[[{"header":{"parameterUnit":"m.s-1","parameterCategory":1,"la1":30.6,"la2":28.766,"lo1":-90.7593,"lo2":-88.6598,"dy":0.0162,"dx":0.0183,"nx":116,"ny":114,"refTime":"2024-06-17T06:00:00:Z","depth":0,"parameterNumber":2,"parameterNumberName":"U-component_of_WINDS"},"data":[0.0,0.0,0.0,0.0,0.0,0.0,0.0,0.0,0.0,0.0,0.0,0.0,0.0,0.0,0.0,0.0,0.0,0.0,0.0,0.0,0.0,0.0,0.0,0.0,0.0,0.0,0.0,0.0,0.0,0.0,0.0,0.0,0.0,0.0,0.0,0.0,0.0,0.0,0.0,0.0,0.0,0.0,0.0,0.0,0.0,0.0,0.0,0.0,0.0,0.0,0.0,0.0,0.0,0.0,0.0,0.0,0.0,0.0,0.0,0.0,0.0,0.0,0.0,0.0,0.0,0.0,0.0,0.0,0.0,0.0,0.0,0.0,0.0,0.0,0.0,0.0,0.0,0.0,0.0,0.0,0.0,0.0,0.0,0.0,0.0,0.0,0.0,0.0,0.0,0.0,0.0,0.0,0.0,0.0,0.0,0.0,0.0,0.0,0.0,0.0,0.0,0.0,0.0,0.0,0.0,0.0,0.0,0.0,0.0,0.0,0.0,0.0,0.0,0.0,0.0,0.0,0.0,0.0,0.0,0.0,0.0,0.0,0.0,0.0,0.0,0.0,0.0,0.0,0.0,0.0,0.0,0.0,0.0,0.0,0.0,0.0,0.0,0.0,0.0,0.0,0.0,0.0,0.0,0.0,0.0,0.0,0.0,0.0,0.0,0.0,0.0,0.0,0.0,0.0,0.0,0.0,0.0,0.0,0.0,0.0,0.0,0.0,0.0,0.0,0.0,0.0,0.0,0.0,0.0,0.0,0.0,0.0,0.0,0.0,0.0,0.0,0.0,0.0,0.0,0.0,0.0,0.0,0.0,0.0,0.0,0.0,0.0,0.0,0.0,0.0,0.0,0.0,0.0,0.0,0.0,0.0,0.0,0.0,0.0,0.0,0.0,0.0,0.0,0.0,0.0,0.0,0.0,0.0,0.0,0.0,0.0,0.0,0.0,0.0,0.0,0.0,0.0,0.0,0.0,0.0,0.0,0.0,0.0,0.0,0.0,0.0,0.0,0.0,0.0,0.0,0.0,0.0,0.0,0.0,0.0,0.0,0.0,0.0,0.0,0.0,0.0,0.0,0.0,0.0,0.0,0.0,0.0,0.0,0.0,0.0,0.0,0.0,0.0,0.0,0.0,0.0,0.0,0.0,0.0,0.0,0.0,0.0,0.0,0.0,0.0,0.0,0.0,0.0,0.0,0.0,0.0,0.0,0.0,0.0,0.0,0.0,0.0,0.0,0.0,0.0,0.0,0.0,0.0,0.0,0.0,0.0,0.0,0.0,0.0,0.0,0.0,0.0,0.0,0.0,0.0,0.0,0.0,0.0,0.0,0.0,0.0,0.0,0.0,0.0,0.0,0.0,0.0,0.0,0.0,0.0,0.0,0.0,0.0,0.0,0.0,0.0,0.0,0.0,0.0,0.0,0.0,0.0,0.0,0.0,0.0,0.0,0.0,0.0,0.0,0.0,0.0,0.0,0.0,0.0,0.0,0.0,0.0,0.0,0.0,0.0,0.0,0.0,0.0,0.0,0.0,0.0,0.0,0.0,0.0,0.0,0.0,0.0,0.0,0.0,0.0,0.0,0.0,0.0,0.0,0.0,0.0,0.0,0.0,0.0,0.0,0.0,0.0,0.0,0.0,0.0,0.0,0.0,0.0,0.0,0.0,0.0,0.0,0.0,0.0,0.0,0.0,0.0,0.0,0.0,0.0,0.0,0.0,0.0,0.0,0.0,0.0,0.0,0.0,0.0,0.0,0.0,0.0,0.0,0.0,0.0,0.0,0.0,0.0,0.0,0.0,0.0,0.0,0.0,0.0,0.0,0.0,0.0,0.0,0.0,0.0,0.0,0.0,0.0,0.0,0.0,0.0,0.0,0.0,0.0,0.0,0.0,0.0,0.0,0.0,0.0,0.0,0.0,0.0,0.0,0.0,0.0,0.0,0.0,0.0,0.0,0.0,0.0,0.0,0.0,0.0,0.0,0.0,0.0,0.0,0.0,0.0,0.0,0.0,0.0,0.0,0.0,0.0,0.0,0.0,0.0,0.0,0.0,0.0,0.0,0.0,0.0,0.0,0.0,0.0,0.0,0.0,0.0,0.0,0.0,0.0,0.0,0.0,0.0,0.0,0.0,0.0,0.0,0.0,0.0,0.0,0.0,0.0,0.0,0.0,0.0,0.0,0.0,0.0,0.0,0.0,0.0,0.0,0.0,0.0,0.0,0.0,0.0,0.0,0.0,0.0,0.0,0.0,0.0,0.0,0.0,0.0,0.0,0.0,0.0,0.0,0.0,0.0,0.0,0.0,0.0,0.0,0.0,0.0,0.0,0.0,0.0,0.0,0.0,0.0,0.0,0.0,0.0,0.0,0.0,0.0,0.0,0.0,0.0,0.0,0.0,0.0,0.0,0.0,0.0,0.0,0.0,0.0,0.0,0.0,0.0,0.0,0.0,0.0,0.0,0.0,0.0,0.0,0.0,0.0,0.0,0.0,0.0,0.0,0.0,0.0,0.0,0.0,0.0,0.0,0.0,0.0,0.0,0.0,0.0,0.0,0.0,0.0,0.0,0.0,0.0,0.0,0.0,0.0,0.0,0.0,0.0,0.0,0.0,0.0,0.0,0.0,0.0,0.0,0.0,0.0,0.0,0.0,0.0,0.0,0.0,0.0,0.0,0.0,0.0,0.0,0.0,0.0,0.0,0.0,0.0,0.0,0.0,0.0,0.0,0.0,0.0,0.0,0.0,0.0,0.0,0.0,0.0,0.0,0.0,0.0,0.0,0.0,0.0,0.0,0.0,0.0,0.0,0.0,0.0,0.0,0.0,0.0,0.0,0.0,0.0,0.0,0.0,0.0,0.0,0.0,0.0,0.0,0.0,0.0,0.0,0.0,0.0,0.0,0.0,0.0,0.0,0.0,0.0,0.0,0.0,0.0,0.0,0.0,0.0,0.0,0.0,0.0,0.0,0.0,0.0,0.0,0.0,0.0,0.0,0.0,0.0,0.0,0.0,0.0,0.0,0.0,0.0,0.0,0.0,0.0,0.0,0.0,0.0,0.0,0.0,0.0,0.0,0.0,0.0,0.0,0.0,0.0,0.0,0.0,0.0,0.0,0.0,0.0,0.0,0.0,0.0,0.0,0.0,0.0,0.0,0.0,0.0,0.0,0.0,0.0,0.0,0.0,0.0,0.0,0.0,0.0,0.0,0.0,0.0,0.0,0.0,0.0,0.0,0.0,0.0,0.0,0.0,0.0,0.0,0.0,0.0,0.0,0.0,0.0,0.0,0.0,0.0,0.0,0.0,0.0,0.0,0.0,0.0,0.0,0.0,0.0,0.0,0.0,0.0,0.0,0.0,0.0,0.0,0.0,0.0,0.0,0.0,0.0,0.0,0.0,0.0,0.0,0.0,0.0,0.0,0.0,0.0,0.0,0.0,0.0,0.0,0.0,0.0,0.0,0.0,0.0,0.0,0.0,0.0,0.0,0.0,0.0,0.0,0.0,0.0,0.0,0.0,0.0,0.0,0.0,0.0,0.0,0.0,0.0,0.0,0.0,0.0,0.0,0.0,0.0,0.0,0.0,0.0,0.0,0.0,0.0,0.0,0.0,0.0,0.0,0.0,0.0,0.0,0.0,0.0,0.0,0.0,0.0,0.0,0.0,0.0,0.0,0.0,0.0,0.0,0.0,0.0,0.0,0.0,0.0,0.0,0.0,0.0,0.0,0.0,0.0,0.0,0.0,0.0,0.0,0.0,0.0,0.0,0.0,0.0,0.0,0.0,0.0,0.0,0.0,0.0,0.0,0.0,0.0,0.0,0.0,0.0,0.0,0.0,0.0,0.0,0.0,0.0,0.0,0.0,0.0,0.0,0.0,0.0,0.0,0.0,0.0,0.0,0.0,0.0,0.0,0.0,0.0,0.0,0.0,0.0,0.0,0.0,0.0,0.0,0.0,0.0,0.0,0.0,0.0,0.0,0.0,0.0,0.0,0.0,0.0,0.0,0.0,0.0,0.0,0.0,0.0,0.0,0.0,0.0,0.0,0.0,0.0,0.0,0.0,0.0,0.0,0.0,0.0,0.0,0.0,0.0,0.0,0.0,0.0,0.0,0.0,0.0,0.0,0.0,0.0,0.0,0.0,0.0,0.0,0.0,0.0,0.0,0.0,0.0,0.0,0.0,0.0,0.0,0.0,0.0,0.0,0.0,0.0,0.0,0.0,0.0,0.0,0.0,0.0,0.0,0.0,0.0,0.0,0.0,0.0,0.0,0.0,0.0,0.0,0.0,0.0,0.0,0.0,0.0,0.0,0.0,0.0,0.0,0.0,0.0,0.0,0.0,0.0,0.0,0.0,0.0,0.0,0.0,0.0,0.0,0.0,0.0,0.0,0.0,0.0,0.0,0.0,0.0,0.0,0.0,0.0,0.0,0.0,0.0,0.0,0.0,0.0,0.0,0.0,0.0,0.0,0.0,0.0,0.0,0.0,0.0,0.0,0.0,0.0,0.0,0.0,0.0,0.0,0.0,0.0,0.0,0.0,0.0,0.0,0.0,0.0,0.0,0.0,0.0,0.0,0.0,0.0,0.0,0.0,0.0,0.0,0.0,0.0,0.0,0.0,0.0,0.0,0.0,0.0,0.0,0.0,0.0,0.0,0.0,0.0,0.0,0.0,0.0,0.0,0.0,0.0,0.0,0.0,0.0,0.0,0.0,0.0,0.0,0.0,0.0,0.0,0.0,0.0,0.0,0.0,0.0,0.0,0.0,0.0,0.0,0.0,0.0,0.0,0.0,0.0,0.0,0.0,0.0,0.0,0.0,0.0,0.0,0.0,0.0,0.0,0.0,0.0,0.0,0.0,0.0,0.0,0.0,0.0,0.0,0.0,0.0,0.0,0.0,0.0,0.0,0.0,0.0,0.0,0.0,0.0,0.0,0.0,0.0,0.0,0.0,0.0,0.0,0.0,0.0,0.0,0.0,0.0,0.0,0.0,0.0,0.0,0.0,0.0,0.0,0.0,0.0,0.0,0.0,0.0,0.0,0.0,0.0,0.0,0.0,0.0,0.0,0.0,0.0,0.0,0.0,0.0,0.0,0.0,0.0,0.0,0.0,0.0,0.0,0.0,0.0,0.0,0.0,0.0,0.0,0.0,0.0,0.0,0.0,0.0,0.0,0.0,0.0,0.0,0.0,0.0,0.0,0.0,0.0,0.0,0.0,0.0,0.0,0.0,0.0,0.0,0.0,0.0,0.0,0.0,0.0,0.0,0.0,0.0,0.0,0.0,0.0,0.0,0.0,0.0,0.0,0.0,0.0,0.0,0.0,0.0,0.0,0.0,0.0,0.0,0.0,0.0,0.0,0.0,0.0,0.0,0.0,0.0,0.0,0.0,0.0,0.0,0.0,0.0,0.0,0.0,0.0,0.0,0.0,0.0,0.0,0.0,0.0,0.0,0.0,0.0,0.0,0.0,0.0,0.0,0.0,0.0,0.0,0.0,0.0,0.0,0.0,0.0,0.0,0.0,0.0,0.0,0.0,0.0,0.0,0.0,0.0,0.0,0.0,0.0,0.0,0.0,0.0,0.0,0.0,0.0,0.0,0.0,0.0,0.0,0.0,0.0,0.0,0.0,0.0,0.0,0.0,0.0,0.0,0.0,0.0,0.0,0.0,0.0,0.0,0.0,0.0,0.0,0.0,0.0,0.0,0.0,0.0,0.0,0.0,0.0,0.0,0.0,0.0,0.0,0.0,0.0,0.0,0.0,0.0,0.0,0.0,0.0,0.0,0.0,0.0,0.0,0.0,0.0,0.0,0.0,0.0,0.0,0.0,0.0,0.0,0.0,0.0,0.0,0.0,0.0,0.0,0.0,0.0,0.0,0.0,0.0,0.0,0.0,0.0,0.0,0.0,0.0,0.0,0.0,0.0,0.0,0.0,0.0,0.0,0.0,0.0,0.0,0.0,0.0,0.0,0.0,0.0,0.0,0.0,0.0,0.0,0.0,0.0,0.0,0.0,0.0,0.0,0.0,0.0,0.0,0.0,0.0,0.0,0.0,0.0,0.0,0.0,0.0,0.0,0.0,0.0,0.0,0.0,0.0,0.0,0.0,0.0,0.0,0.0,-2.0871,0.0,0.0,0.0,0.0,0.0,0.0,0.0,0.0,0.0,0.0,0.0,0.0,0.0,0.0,0.0,0.0,0.0,0.0,0.0,0.0,0.0,0.0,0.0,0.0,-1.1395,-1.2109,-1.0561,-1.0741,-1.0646,-0.9865,-0.9448,-0.9204,-0.914,-0.916,-0.9337,-0.9698,-1.0396,-1.111,-1.1926,-1.2663,-1.3502,-1.4404,-1.384,-1.2821,-1.1408,0.0,0.0,0.0,0.0,0.0,0.0,0.0,0.0,0.0,0.0,0.0,0.0,0.0,0.0,0.0,0.0,0.0,0.0,0.0,0.0,0.0,0.0,0.0,0.0,0.0,0.0,0.0,0.0,0.0,0.0,0.0,0.0,0.0,0.0,0.0,0.0,0.0,0.0,0.0,0.0,0.0,0.0,0.0,0.0,0.0,0.0,0.0,0.0,0.0,0.0,0.0,0.0,0.0,0.0,0.0,0.0,0.0,0.0,0.0,0.0,0.0,0.0,0.0,0.0,0.0,0.0,0.0,0.0,0.0,0.0,0.0,-2.291,0.0,0.0,0.0,0.0,0.0,0.0,0.0,0.0,0.0,0.0,0.0,0.0,0.0,0.0,0.0,0.0,0.0,0.0,0.0,0.0,0.0,-1.0461,-0.9329,-1.16,-1.2737,-1.1515,-1.1938,-1.1965,-1.1327,-1.0579,-1.014,-1.0133,-1.0111,-1.0411,-1.1079,-1.1833,-1.2921,-1.44,-1.5524,-1.665,-1.7731,-1.7983,-1.6752,-1.4249,-1.3712,0.0,0.0,0.0,0.0,0.0,0.0,0.0,0.0,0.0,0.0,0.0,0.0,0.0,0.0,0.0,0.0,0.0,0.0,0.0,0.0,0.0,0.0,0.0,0.0,0.0,0.0,0.0,0.0,0.0,0.0,0.0,0.0,0.0,0.0,0.0,0.0,0.0,0.0,0.0,0.0,0.0,0.0,0.0,0.0,0.0,0.0,0.0,0.0,0.0,0.0,0.0,0.0,0.0,0.0,0.0,0.0,0.0,0.0,0.0,0.0,0.0,0.0,0.0,-3.0749,-3.1596,-3.2248,-3.2248,-3.2248,-3.2103,-2.9445,-2.7767,-2.6763,0.0,0.0,0.0,0.0,0.0,0.0,0.0,0.0,0.0,0.0,0.0,0.0,0.0,0.0,0.0,0.0,0.0,0.0,0.0,0.0,-1.0306,-1.0737,-1.1765,-1.2602,-1.2966,-1.3126,-1.3109,-1.2891,-1.2237,-1.1853,-1.1781,-1.1202,-1.1187,-1.1833,-1.2639,-1.3728,-1.516,-1.7816,-1.9498,-2.0246,-2.0965,-2.105,-2.0482,-1.7731,-1.6586,-1.655,0.0,0.0,0.0,0.0,0.0,0.0,0.0,0.0,0.0,0.0,0.0,0.0,0.0,0.0,0.0,0.0,0.0,0.0,0.0,0.0,0.0,0.0,0.0,0.0,0.0,0.0,0.0,0.0,0.0,0.0,0.0,0.0,0.0,0.0,0.0,0.0,0.0,0.0,0.0,0.0,0.0,-1.8238,-1.8122,0.0,0.0,0.0,0.0,0.0,0.0,0.0,0.0,0.0,0.0,0.0,0.0,0.0,0.0,-3.0364,-3.256,-3.3704,-3.3864,-3.6037,-3.714,-3.7249,-3.7249,-3.7249,-3.7249,-3.6814,0.0,-2.9254,-2.83,0.0,0.0,0.0,0.0,0.0,0.0,0.0,0.0,0.0,0.0,0.0,0.0,0.0,0.0,0.0,0.0,0.0,0.0,0.0,0.0,0.0,-1.392,-1.5349,-1.5218,-1.5991,-1.5923,-1.4635,-1.4246,-1.3479,-1.2146,-1.2188,-1.2356,-1.2605,-1.4222,-1.6153,-1.8381,-2.1425,-2.2763,-2.2575,-2.3896,-2.4446,-2.4265,-2.2891,-2.085,-1.8431,-1.6966,0.0,0.0,0.0,0.0,0.0,0.0,0.0,0.0,0.0,0.0,0.0,0.0,0.0,0.0,0.0,0.0,0.0,0.0,0.0,0.0,0.0,0.0,0.0,0.0,0.0,0.0,0.0,0.0,0.0,0.0,0.0,0.0,0.0,0.0,0.0,0.0,0.0,0.0,0.0,-1.8017,-2.0521,-2.0073,-2.1518,-2.16,0.0,0.0,0.0,0.0,0.0,0.0,0.0,0.0,0.0,-3.1894,-3.2401,-3.3429,-3.5038,-3.6544,-3.7305,-3.7305,-3.879,-3.9478,-3.9478,-3.9478,-3.9478,-3.9478,-3.9478,-3.7848,-3.5038,-3.29,-3.0849,-2.8964,0.0,0.0,0.0,0.0,0.0,-2.8045,0.0,0.0,0.0,0.0,0.0,0.0,0.0,0.0,0.0,0.0,0.0,0.0,-1.3286,-1.6005,-1.7817,-1.785,-1.8843,-1.8775,-1.713,-1.6423,-1.5304,-1.3628,-1.3695,-1.3935,-1.426,-1.6853,-1.941,-2.189,-2.4579,-2.5664,-2.5177,-2.6396,-2.6932,-2.6845,-2.6827,-2.4696,-2.1026,-1.9698,-1.7738,-1.5371,0.0,0.0,0.0,0.0,0.0,0.0,0.0,0.0,0.0,0.0,0.0,0.0,0.0,0.0,0.0,0.0,0.0,0.0,0.0,0.0,0.0,0.0,0.0,0.0,0.0,0.0,0.0,0.0,0.0,0.0,0.0,0.0,0.0,0.0,0.0,0.0,0.0,-2.0499,-2.274,-2.2068,-2.4491,-2.5015,0.0,0.0,0.0,0.0,0.0,0.0,-3.0034,-3.1655,-3.3538,-3.5747,-3.6399,-3.7377,-3.8753,-3.9586,-3.9985,-3.9985,-4.0745,-4.1107,-4.1107,-4.1107,-4.1107,-4.1107,-4.1107,-4.0709,-3.9767,-3.6761,-3.4697,-3.3371,-3.2524,-3.2234,-3.2234,-3.2234,-3.2343,-3.2683,0.0,0.0,0.0,0.0,0.0,0.0,0.0,0.0,0.0,0.0,0.0,-1.3371,-1.618,-1.7253,-1.8674,-2.0784,-2.1021,-2.0995,-2.0827,-1.8793,-1.7524,-1.7423,-1.6061,-1.5961,-1.7456,-2.1008,-2.3528,-2.4878,-2.6509,-2.7644,-2.8291,-2.8282,-2.8334,-2.8391,-2.8315,-2.7419,-2.5779,-2.2997,-2.1226,-2.002,-1.6415,0.0,0.0,0.0,0.0,0.0,0.0,0.0,0.0,0.0,0.0,0.0,0.0,0.0,0.0,0.0,0.0,0.0,0.0,0.0,0.0,0.0,0.0,0.0,0.0,0.0,0.0,0.0,0.0,0.0,0.0,0.0,0.0,0.0,0.0,0.0,0.0,0.0,0.0,-2.4598,-2.8121,0.0,0.0,0.0,0.0,-2.9409,-3.1655,-3.3414,-3.4247,-3.582,-3.7466,-3.9115,-3.9188,-3.9586,-4.0365,-4.1162,-4.1596,-4.1596,-4.2411,-4.2792,-4.2792,-4.2792,-4.2792,-4.2792,-4.2792,-4.2303,-4.1379,-3.9007,-3.7538,-3.6669,-3.5892,-3.555,-3.555,-3.555,-3.6037,-3.6596,0.0,0.0,0.0,-0.8383,-0.8531,-0.8636,-0.8763,-0.9482,-1.0272,-1.1014,-1.3058,-1.4996,-1.6529,-1.908,-2.1028,-2.1854,-2.2327,-2.2192,-2.1231,-1.9909,-1.9163,-1.9185,-1.862,-1.942,-2.1817,-2.3592,-2.4963,-2.5997,-2.7985,-2.8839,-2.8657,-2.9588,-3.0042,-3.0028,-2.9909,-2.9356,-2.821,-2.5262,-2.3287,-2.1882,-1.9095,-1.6767,0.0,0.0,0.0,0.0,0.0,0.0,0.0,0.0,0.0,0.0,0.0,0.0,0.0,0.0,0.0,0.0,0.0,0.0,0.0,0.0,0.0,0.0,0.0,0.0,0.0,0.0,0.0,0.0,0.0,0.0,0.0,0.0,0.0,0.0,0.0,0.0,0.0,-2.8671,-3.1203,0.0,-3.0252,-3.1763,-3.3103,-3.361,-3.5421,-3.6834,-3.7631,-3.9188,-4.0311,-4.0836,-4.1361,-4.1759,-4.2049,-4.2339,-4.2484,-4.2484,-4.2737,-4.2901,-4.2901,-4.2901,-4.2901,-4.2901,-4.2901,-4.2737,-4.2411,-4.1578,-4.0456,-3.9224,-3.8917,-3.8809,-3.8809,-3.8809,-3.9007,-3.9224,-0.7947,-0.8023,0.0,-0.8225,-0.8428,-0.863,-0.8652,-0.9624,-1.073,-1.1724,-1.4242,-1.6553,-1.8054,-2.0873,-2.2868,-2.3361,-2.3613,-2.3357,-2.2375,-2.1103,-2.0368,-2.0394,-2.0807,-2.2161,-2.4527,-2.5747,-2.6749,-2.759,-2.9293,-2.9881,-2.9451,-3.0343,-3.079,-3.0831,-3.0675,-3.0347,-2.9749,-2.7481,-2.5706,-2.4199,-2.1996,-2.0006,-1.8272,0.0,0.0,0.0,0.0,0.0,0.0,0.0,0.0,0.0,0.0,0.0,0.0,0.0,0.0,0.0,0.0,0.0,0.0,0.0,0.0,0.0,0.0,0.0,0.0,0.0,0.0,0.0,0.0,0.0,0.0,0.0,0.0,0.0,0.0,0.0,-3.0774,-3.1173,-3.403,-3.5327,-3.3743,-3.5251,-3.665,-3.7324,-3.8488,-3.9445,-4.013,-4.1397,-4.2122,-4.2122,-4.2629,-4.2901,-4.2901,-4.2901,-4.2901,-4.2901,-4.2901,-4.2901,-4.2901,-4.2901,-4.2901,-4.2901,-4.2901,-4.2901,-4.2901,-4.2901,-4.2266,-4.1325,-4.1325,-4.1325,-4.1325,-4.1325,-4.1325,-4.1289,-0.8075,-0.8102,-0.815,-0.826,-0.8441,-0.8604,-0.8604,-1.0025,-1.1623,-1.3076,-1.5281,-1.785,-2.0784,-2.2477,-2.3985,-2.539,-2.488,-2.4474,-2.4474,-2.2338,-2.1144,-2.1278,-2.2632,-2.4021,-2.5497,-2.7572,-2.9025,-2.9867,-3.0469,-3.0824,-3.0959,-3.0713,-3.0638,-3.0775,-3.0618,-3.0522,-3.0489,-2.9728,-2.8655,-2.7216,-2.4978,-2.3653,-2.2725,0.0,0.0,0.0,0.0,0.0,0.0,0.0,0.0,0.0,0.0,0.0,0.0,0.0,0.0,0.0,0.0,0.0,0.0,0.0,0.0,0.0,0.0,0.0,0.0,0.0,0.0,0.0,0.0,0.0,0.0,0.0,0.0,0.0,-2.6962,-3.1031,-3.347,-3.2013,-3.6556,-3.8928,-3.6648,-3.8519,-4.0066,-4.051,-4.086,-4.1251,-4.1722,-4.2465,-4.2918,-4.2937,-4.2937,-4.2973,-4.2973,-4.2973,-4.2973,-4.2973,-4.2973,-4.2973,-4.2973,-4.2973,-4.2955,-4.2937,-4.2937,-4.2937,-4.2901,-4.2901,-4.2901,-4.2901,-4.2901,-4.2901,-4.2901,-4.2901,-4.2901,-4.2792,-0.794,-0.7963,-0.797,-0.8003,-0.822,-0.8371,-0.8371,-0.9897,-1.138,-1.2304,-1.5377,-1.8008,-1.931,-2.1826,-2.3545,-2.3985,-2.3816,-2.3695,-2.3695,-2.2068,-2.1796,-2.3316,-2.5394,-2.7126,-2.8415,-2.9149,-3.0087,-3.125,-3.1512,-3.1922,-3.2424,-3.2307,-3.2264,-3.2252,-3.1613,-3.1317,-3.125,-3.0522,-2.9959,-2.945,-2.7282,-2.5624,-2.4381,0.0,0.0,0.0,0.0,0.0,0.0,0.0,0.0,0.0,0.0,0.0,0.0,0.0,0.0,0.0,0.0,0.0,0.0,0.0,0.0,0.0,0.0,0.0,0.0,0.0,0.0,0.0,0.0,0.0,0.0,0.0,0.0,-3.1779,-3.196,-3.3579,-3.5304,-3.6844,-3.8641,-3.9599,-3.9209,-4.0603,-4.1578,-4.1733,-4.1812,-4.2076,-4.2537,-4.2449,-4.2825,-4.3751,-4.3751,-4.4041,-4.4621,-4.4621,-4.4621,-4.4621,-4.4621,-4.4621,-4.4621,-4.4621,-4.4331,-4.3751,-4.3751,-4.3445,-4.2901,-4.2901,-4.2901,-4.2901,-4.2901,-4.2901,-4.2901,-4.2901,-4.2901,-4.2865,-0.7906,-0.7899,-0.7891,-0.7906,-0.8072,-0.8341,-0.87,-1.0025,-1.1447,-1.2849,-1.5795,-1.8301,-1.9622,-2.1919,-2.338,-2.341,-2.338,-2.311,-2.251,-2.2231,-2.3017,-2.5143,-2.7163,-2.871,-2.9786,-3.0389,-3.1106,-3.1934,-3.2171,-3.2517,-3.2939,-3.2851,-3.284,-3.2785,-3.2287,-3.2067,-3.2034,-3.1603,-3.1217,-3.0853,-2.9615,-2.8224,-2.68,-2.5773,-2.4199,-2.246,-2.1716,-2.1054,-2.0293,-1.8849,0.0,0.0,0.0,0.0,0.0,0.0,0.0,0.0,0.0,0.0,0.0,0.0,0.0,0.0,0.0,0.0,0.0,0.0,0.0,0.0,0.0,0.0,0.0,0.0,-3.2489,-3.4728,-3.5929,-3.6432,-3.7273,-3.8893,-3.9721,-4.0239,-4.0513,-4.1187,-4.176,-4.2175,-4.2334,-4.268,-4.337,-4.3444,-4.374,-4.4268,-4.4485,-4.4722,-4.4952,-4.5172,-4.5309,-4.5309,-4.5309,-4.5309,-4.5309,-4.5309,-4.5055,0.0,-4.4584,-4.4331,-4.386,-4.3534,-4.3389,0.0,0.0,0.0,0.0,0.0,-4.2901,-4.2901,-0.7914,-0.7914,-0.7914,-0.7914,-0.8003,-0.8399,-0.9247,-1.0221,-1.1653,-1.3974,-1.6236,-1.8446,-2.0598,-2.2093,-2.2998,-2.3139,-2.3081,-2.2594,-2.1529,-2.2835,-2.4578,-2.6708,-2.8174,-2.9368,-3.0287,-3.1307,-3.198,-3.2274,-3.2651,-3.2929,-3.3129,-3.3006,-3.295,-3.2928,-3.2851,-3.2818,-3.2818,-3.2752,-3.2332,-3.1714,-3.1648,-3.0721,-2.9264,-2.8011,-2.6685,-2.5375,-2.4547,-2.347,-2.2177,-2.0638,0.0,0.0,0.0,0.0,0.0,0.0,0.0,0.0,0.0,0.0,0.0,0.0,0.0,0.0,0.0,0.0,0.0,0.0,0.0,0.0,0.0,0.0,0.0,0.0,-3.5025,-3.6738,-3.8836,-3.9106,-3.9106,-3.9106,-4.0065,-4.0707,-4.0707,-4.0847,-4.1279,-4.2115,-4.252,-4.3134,-4.3989,0.0,0.0,0.0,0.0,-4.5153,-4.4763,-4.5302,-4.5562,-4.5562,-4.5562,-4.5562,-4.5562,-4.5562,-4.5526,-4.5454,-4.5454,-4.5381,-4.5236,-4.4512,-4.4186,-4.4005,-4.3227,-4.2901,-4.2901,-4.2901,-4.2901,-4.2901,-0.7914,-0.7914,-0.7914,-0.7914,-0.8012,-0.8346,-0.9057,-0.9915,-1.1325,-1.3668,-1.5494,-1.7242,-1.8976,-2.006,-2.0887,-2.1563,-2.1562,-2.1953,-2.2902,-2.4314,-2.5832,-2.7432,-2.893,-3.0247,-3.1458,-3.1863,-3.2503,-3.3449,-3.3671,-3.4014,-3.4508,-3.4508,-3.4452,-3.4452,-3.3856,-3.3613,-3.3524,-3.295,-3.2597,-3.2431,-3.1846,-3.0721,-2.9363,-2.9118,-2.8489,-2.758,-2.627,-2.6024,-2.5995,-2.3915,-2.3312,-2.3222,-2.2385,-2.0759,0.0,0.0,0.0,0.0,0.0,0.0,0.0,0.0,0.0,0.0,0.0,0.0,0.0,0.0,0.0,0.0,0.0,0.0,0.0,-3.5723,-3.7381,-3.87,-3.974,-3.991,-3.991,-3.991,-4.0086,-4.0229,-4.0229,-4.1111,-4.1771,-4.1927,-4.2559,-4.3169,-4.3754,-4.357,0.0,-4.4789,-4.533,-4.5886,-4.6427,-4.696,-4.7265,-4.7265,0.0,0.0,-4.7265,-4.7265,-4.6902,-4.6287,-4.6287,-4.5888,-4.5273,-4.5128,-4.4693,-4.4005,-4.3227,-4.2901,-4.2901,-4.2901,-4.2901,-4.2901,-0.7914,-0.7914,-0.7914,-0.7914,-0.8221,-0.8766,-0.9544,-1.0312,-1.1639,-1.3898,-1.5397,-1.6815,-1.8344,-1.9323,-1.9874,-1.9976,-2.0282,-2.1291,-2.3274,-2.4991,-2.6689,-2.8295,-3.0003,-3.1288,-3.2026,-3.2713,-3.3362,-3.3995,-3.4303,-3.4598,-3.4883,-3.4883,-3.4883,-3.4883,-3.4518,-3.4352,-3.4319,-3.3955,-3.3591,-3.3216,-3.2464,-3.1504,-3.0456,-3.0092,-2.9516,-2.8754,-2.7694,-2.7334,-2.709,-2.5212,-2.4647,-2.4563,-2.3814,-2.2597,-2.123,0.0,0.0,0.0,0.0,0.0,0.0,0.0,0.0,0.0,0.0,0.0,0.0,0.0,0.0,-3.0032,-3.1948,0.0,-3.5622,-3.7584,-3.8826,-3.9673,-4.0045,-4.0113,-4.0113,-4.0113,-4.0113,-4.0248,-4.0595,-4.1223,-4.1816,-4.2408,-4.3156,-4.3796,-4.4272,-4.444,-4.4734,-4.5082,-4.5633,-4.5952,-4.6098,-4.6637,-4.689,-4.689,-4.689,-4.7039,-4.732,-4.732,-4.7212,-4.712,-4.712,-4.6866,-4.6468,-4.6069,-4.5417,-4.4657,-4.4258,-4.3607,-4.2901,-4.2901,-4.2901,-4.2901,-0.7914,-0.7914,-0.7914,-0.7914,-0.8462,-0.9188,-1.0026,-1.0708,-1.1889,-1.3962,-1.5161,-1.6331,-1.764,-1.8627,-1.9072,-1.8787,-1.9655,-2.1122,-2.323,-2.5413,-2.7326,-2.8887,-3.0771,-3.1993,-3.2428,-3.3339,-3.3962,-3.4342,-3.4712,-3.4883,-3.4883,-3.4883,-3.4883,-3.4883,-3.4883,-3.4883,-3.4883,-3.4883,-3.4551,-3.3922,-3.3027,-3.2332,-3.1714,-3.082,-3.0026,-2.9297,-2.8641,-2.7831,-2.6902,-2.5741,-2.5244,-2.5062,-2.463,-2.3966,-2.3236,-2.2457,-2.1643,0.0,0.0,0.0,0.0,0.0,0.0,0.0,0.0,-2.7394,-2.8538,-3.0359,-3.1644,-3.3064,-3.5013,-3.6343,-3.7604,-3.8971,-3.9681,-4.0087,-4.0113,-4.0113,-4.0113,-4.0113,-4.0113,-4.0383,-4.1136,-4.1339,-4.1894,-4.2988,-4.3829,-4.4449,-4.4819,-4.5461,-4.5631,-4.5161,-4.5648,-4.5724,-4.5285,-4.5825,-4.6098,-4.6098,-4.6098,-4.6352,-4.673,-4.673,-4.6994,-4.7385,-4.7385,-4.745,-4.7478,-4.6829,-4.6106,-4.5405,-4.5405,-4.4441,-4.3048,-4.3115,-4.3136,-4.3118,-0.7914,-0.7914,-0.7914,-0.7914,-0.8462,-0.913,-0.983,-1.0451,-1.1445,-1.3138,-1.4019,-1.4893,-1.5891,-1.6832,-1.7753,-1.8643,-2.0579,-2.218,-2.3149,-2.5849,-2.7791,-2.8684,-3.0208,-3.1587,-3.2817,-3.294,-3.3605,-3.483,-3.4873,-3.4883,-3.4883,-3.4883,-3.4883,-3.4883,-3.4883,-3.4883,-3.4883,-3.4883,-3.4849,-3.4651,-3.3259,-3.2652,-3.2398,-3.104,-3.0026,-2.9297,-2.8641,-2.7537,-2.6412,-2.6228,-2.5797,-2.5481,-2.6033,-2.5664,-2.4863,-2.408,-2.2879,-2.1955,-2.2406,-2.3138,-2.4481,-2.7353,-2.7654,-2.8657,0.0,-3.4341,-3.416,-3.6445,-3.6949,-3.7273,-3.8304,-3.8437,-3.8732,-3.9792,-3.9952,-3.9961,-4.0087,-4.0113,-4.0113,-4.0113,-4.0113,-4.0383,-4.1136,-4.1779,-4.2516,-4.3315,-4.4122,-4.4557,-4.4612,-4.4742,-4.4748,-4.4665,-4.5142,-4.5338,-4.532,-4.5825,-4.6098,-4.6098,-4.6098,-4.6123,-4.6172,-4.6172,-4.622,-4.6269,-4.6269,-4.6566,-4.6959,-4.6887,-4.6387,-4.5672,-4.5672,-4.4813,-4.3636,-4.3888,-4.3969,-4.386,-0.7914,-0.7914,-0.8034,-0.8402,-0.9023,-0.9704,-1.0314,-1.0972,-1.1773,-1.283,-1.3379,-1.3953,-1.4782,-1.5851,-1.686,-1.7712,-1.9903,-2.1611,-2.2448,-2.558,-2.7781,-2.868,-3.0382,-3.1841,-3.2994,-3.3262,-3.3948,-3.5034,-3.493,-3.4883,-3.4883,-3.4883,-3.4883,-3.4883,-3.4883,-3.4883,-3.4883,-3.4883,-3.4651,-3.4154,-3.3116,-3.2431,-3.1901,-3.0423,-2.9152,-2.8144,-2.7845,-2.7101,0.0,-2.5245,-2.4796,-2.4647,-2.4996,-2.4863,-2.4414,-2.3665,-2.3931,-2.478,-2.6376,-2.7341,-2.8306,-3.0049,-3.155,-3.3139,-3.5337,-3.5709,-3.6125,-3.8135,-3.8483,-3.8695,-3.9412,-3.9522,-3.9564,0.0,-4.0357,-4.0544,-4.0146,-4.046,-4.0561,-4.0146,-4.0113,-4.0553,-4.1711,-4.2117,-4.2794,-4.4012,-4.4412,-4.4818,-4.5196,-4.5229,-4.5432,-4.5872,-4.6096,-4.6175,-4.6175,-4.6392,-4.6502,-4.6502,-4.6502,-4.6424,-4.6326,-4.6326,-4.6228,-4.6098,-4.6098,-4.622,-4.6412,-4.6412,-4.6236,-4.5953,-4.5953,-4.5599,-4.4999,-4.4156,-4.3771,-4.3571,-0.7877,-0.8034,-0.8402,-0.9062,-0.9704,-1.0294,-1.0723,-1.1361,-1.1969,-1.246,-1.3023,-1.3748,-1.4714,-1.559,-1.637,-1.7031,-1.9041,-2.0657,-2.1573,-2.4813,-2.7175,-2.8271,-3.0048,-3.1577,-3.2672,-3.3217,-3.3902,-3.4725,-3.4864,-3.4883,-3.4883,-3.4883,-3.4883,-3.4883,-3.4883,-3.4883,-3.4883,-3.4684,-3.4286,-3.3723,-3.2762,-3.1967,-3.1151,-2.9682,-2.8224,-2.6984,-2.6984,-2.627,-2.5143,-2.405,-2.3686,-2.3702,-2.375,-2.3867,-2.4033,-2.4165,-2.561,-2.7452,-2.8968,-3.0222,-3.1337,-3.2527,-3.4754,-3.6549,-3.631,-3.686,-3.7764,-3.9048,-3.9251,-3.937,-3.9859,-3.9935,-4.0002,-4.0205,-4.0736,-4.0923,-4.046,-4.0865,-4.0933,-4.018,-4.0113,-4.062,-4.188,-4.2185,-4.2956,-4.4479,-4.4818,-4.5128,-4.5669,-4.5906,-4.6244,-4.6786,-4.6786,-4.6786,-4.6786,-4.6786,-4.6786,-4.6786,-4.6786,-4.6714,-4.6563,-4.6563,-4.6362,-4.5996,-4.5996,-4.5933,-4.5875,-4.5875,-4.5875,-4.5875,-4.5875,-4.5775,-4.5544,-4.4381,-4.3851,-4.3691,-0.7848,-0.8432,-0.9092,-0.9764,-1.0374,-1.0783,-1.0812,-1.1361,-1.182,-1.182,-1.2957,-1.4373,-1.5976,-1.6184,-1.6401,-1.6952,-1.837,-1.9661,-2.0685,-2.3598,-2.5895,-2.7267,-2.8838,-3.0281,-3.1636,-3.2365,-3.3116,-3.3846,-3.4551,-3.4883,-3.4883,-3.4883,-3.4883,-3.4883,-3.4883,-3.4883,-3.4849,-3.4121,-3.3822,-3.3657,-3.221,-3.1184,-3.039,-2.8973,-2.7528,-2.6219,-2.6219,-2.4845,-2.299,-2.2957,-2.2924,-2.2924,-2.2924,-2.3421,-2.4414,-2.6553,-2.8268,-2.9396,-2.8971,-3.0362,-3.2521,-3.4813,-3.6542,-3.7821,-3.8529,-3.937,-4.0011,-4.0079,-3.9952,-3.9935,-4.0087,-3.9781,-3.9893,-4.0991,-4.0968,-4.0889,-4.1118,-4.1204,-4.0933,-4.018,-4.0113,-4.0417,0.0,-4.188,-4.2956,-4.4479,-4.5263,-4.5669,-4.5703,-4.638,-4.6786,-4.6786,-4.6786,-4.6786,-4.6786,-4.6786,-4.6786,-4.6786,-4.6786,-4.6815,-4.6781,-4.6781,-4.6375,-4.5727,-4.5727,-4.5561,-4.5312,-4.5312,-4.5312,-4.5312,-4.5312,-4.5035,-4.4637,-4.4603,-4.4698,-4.4635,-0.825,-0.8554,-0.9068,-1.0295,-1.0673,-1.0932,-1.1401,-1.167,-1.1969,-1.24,-1.3226,0.0,0.0,0.0,0.0,0.0,-1.7541,-1.8621,-1.9661,-2.2473,-2.4643,-2.5806,-2.7732,-2.9457,-3.082,-3.1118,-3.1835,-3.3061,-3.3315,-3.3448,-3.3448,-3.3448,-3.3448,-3.3448,-3.3448,-3.3448,-3.3425,-3.3183,-3.3061,-3.2928,-3.1449,-3.0721,-3.029,-2.8409,-2.6752,-2.5342,0.0,-2.3222,-2.2111,-2.1613,-2.1448,-2.1514,-2.2071,-2.2373,-2.3171,-2.6354,-2.8087,-2.9415,-3.1646,-3.3561,-3.5214,-3.6406,-3.7786,-3.8956,-3.9224,-3.9562,-3.9833,-3.9833,-3.948,-3.9143,-3.9093,-3.9076,-3.9337,-4.0205,-4.1175,-4.1808,-4.1914,-4.2274,-4.2085,-4.0967,-4.1193,0.0,0.0,0.0,0.0,-4.3707,-4.4519,-4.5399,-4.638,-4.7124,-4.7767,-4.824,-4.8274,-4.8274,-4.8274,-4.8274,-4.8274,-4.824,-4.7767,-4.753,-4.753,-4.7022,-4.665,-4.638,-4.5906,-4.5648,-4.5512,-4.5029,-4.4824,-4.4824,-4.4824,-4.4748,-4.4615,-4.4615,-4.4633,-4.4532,-0.8333,-0.8817,-0.9456,-1.0515,-1.0808,0.0,0.0,0.0,0.0,0.0,0.0,0.0,0.0,0.0,0.0,0.0,0.0,-1.7581,-1.8589,-2.068,-2.259,-2.4099,-2.555,-2.7005,-2.8536,-2.8834,-2.9549,-3.0763,-3.1272,-3.1669,-3.1901,-3.1901,-3.1901,-3.1901,-3.1901,-3.1901,-3.1901,-3.1636,-3.1504,-3.1404,-2.9947,-2.9218,-2.8768,-2.6833,-2.5392,0.0,-2.2626,-2.1812,-2.1282,-2.0572,-2.0486,-2.0884,-2.1938,-2.3302,-2.4995,-2.7437,-2.9129,-3.0911,-3.3996,-3.5636,-3.6712,-3.7861,-3.8872,-3.958,-3.958,-3.9677,-3.9647,-3.9084,-3.8631,-3.8161,-3.7599,-3.7474,-3.7901,-3.9278,-4.0601,-4.1632,-4.2139,-4.28,-4.2778,-4.1666,-4.2038,-4.2381,0.0,0.0,0.0,-4.3713,-4.479,-4.5771,-4.6752,-4.7767,-4.8511,-4.8984,-4.9018,-4.9018,-4.9018,-4.9018,-4.9018,-4.8984,-4.8545,-4.8308,-4.8274,-4.78,-4.7428,-4.7158,-4.6684,-4.621,-4.5669,-4.5196,-4.4852,-4.4615,-4.4615,-4.4615,-4.4615,-4.4615,-4.4615,-4.4439,-0.8221,-0.924,-1.0172,0.0,0.0,0.0,0.0,0.0,0.0,0.0,0.0,0.0,0.0,0.0,0.0,0.0,0.0,0.0,-1.7567,-1.8353,-1.9822,-2.2216,-2.2394,-2.326,-2.4943,-2.5689,-2.6435,-2.7182,-2.8555,-2.9595,-3.029,-3.029,-3.029,-3.029,-3.029,-3.029,-3.0224,-2.9529,-2.9264,-2.9165,-2.7746,-2.6766,-2.602,-2.458,-2.3553,-2.2692,-2.1282,-2.0718,-2.0619,-1.9962,-2.0326,-2.1282,-2.2707,-2.6005,-2.947,-2.9762,-3.1412,-3.3684,-3.585,-3.6558,-3.7153,-3.9193,-3.9703,-3.9703,-3.9703,-3.9773,-3.9379,-3.7907,-3.7431,-3.6846,-3.5508,-3.5157,-3.5866,-3.8244,-3.9413,-4.0523,-4.1937,-4.2818,-4.302,0.0,0.0,0.0,0.0,0.0,0.0,-4.4626,0.0,-4.6786,-4.6853,-4.8206,-4.9018,-4.9018,-4.9018,-4.9018,-4.9018,-4.9018,-4.9018,-4.9018,-4.9018,-4.9018,-4.9018,-4.9018,-4.8612,-4.7939,-4.7906,-4.706,-4.5771,-4.5737,-4.5263,-4.4615,-4.4615,-4.4615,-4.4615,-4.4615,-4.4615,-4.4513,0.0,0.0,0.0,0.0,0.0,0.0,0.0,0.0,0.0,0.0,0.0,0.0,0.0,0.0,0.0,0.0,0.0,0.0,-1.6545,-1.7797,-1.8869,-1.9726,-2.0985,-2.2133,-2.3129,-2.4083,-2.4911,-2.5673,-2.6568,-2.7112,-2.7311,-2.7311,-2.7311,-2.7311,-2.7311,-2.7311,-2.7278,-2.7079,-2.733,-2.7713,-2.6236,-2.5872,-2.602,-2.458,-2.3553,-2.2758,-2.1845,-2.1182,-2.0851,-2.1764,-2.3635,-2.5708,-2.6179,-2.7811,-2.9776,-3.1052,-3.2981,-3.5113,-3.6898,-3.8201,-3.9152,-3.9698,-3.9833,-3.9807,-3.9729,-3.8967,-3.795,-3.6807,-3.5301,-3.3773,-3.2202,-3.3651,-3.5342,-3.6065,-3.9118,0.0,-4.2613,-4.3738,0.0,-4.3657,0.0,-4.5016,-4.4461,-4.5035,0.0,0.0,-4.5808,-4.6296,-4.7534,-4.8511,-4.9018,-4.9018,-4.9018,-4.9018,-4.9018,-4.9018,-4.9018,-4.9018,-4.9018,-4.9018,-4.9018,-4.9018,-4.8917,-4.8714,-4.8142,-4.7394,-4.6481,-4.594,-4.5263,-4.4615,-4.4615,-4.4615,-4.4615,-4.4615,-4.4615,-4.4581,0.0,0.0,0.0,0.0,0.0,0.0,0.0,0.0,0.0,0.0,0.0,0.0,0.0,0.0,0.0,0.0,0.0,0.0,0.0,-1.6783,-1.7512,-1.8116,-1.8765,-1.9578,-2.0542,-2.1425,-2.2154,-2.2676,-2.3752,-2.4282,-2.4282,-2.4282,-2.4282,-2.4282,-2.4282,-2.4282,-2.4282,-2.4282,-2.4514,0.0,0.0,-2.3918,-2.4183,-2.3354,-2.2758,-2.2361,-2.1945,-2.2376,-2.3288,-2.4431,-2.6553,-2.8774,-2.9164,-3.0514,-3.223,-3.393,-3.5234,-3.6515,-3.8136,-3.9118,-3.9737,-3.9625,-3.9677,-3.9443,-3.8345,-3.7601,-3.64,-3.384,-3.2393,-3.1031,-2.9129,-3.0908,-3.3017,0.0,0.0,0.0,-4.2239,-4.386,-4.4797,0.0,-4.5599,0.0,-4.5617,-4.6157,-4.6593,0.0,-4.6438,-4.669,-4.7625,-4.8459,-4.8894,-4.8767,-4.8923,-4.8987,-4.8925,-4.8798,-4.8767,-4.8767,-4.8767,-4.8832,-4.8925,-4.8925,-4.8956,-4.8984,0.0,-4.797,-4.7225,-4.6393,-4.5616,-4.4907,-4.4518,-4.4355,-4.4355,-4.4355,-4.4412,-4.4468,0.0,0.0,0.0,0.0,0.0,0.0,0.0,0.0,0.0,-1.3725,-1.4301,-1.4861,-1.5574,0.0,0.0,0.0,0.0,0.0,0.0,0.0,-1.6184,-1.7051,-1.6527,-1.6714,-1.7835,-1.8621,-1.9162,-1.9358,-2.0808,-2.1485,-2.147,-2.1485,-2.1499,-2.1499,-2.1499,-2.1499,-2.1499,-2.1499,-2.1566,-2.1647,-2.1647,-2.1713,-2.1812,0.0,-2.1812,-2.1812,-2.1812,-2.3586,-2.6071,-2.7083,-2.8986,-3.1052,-3.1835,-3.3514,-3.5518,-3.7184,-3.7561,-3.7786,-3.9309,-3.9633,-3.9475,-3.9395,-3.9382,-3.8802,-3.6547,-3.5919,-3.4621,-3.0316,-2.9282,-2.8481,-2.6378,-2.7977,-3.0275,-3.2374,0.0,-3.9272,-4.1372,-4.3506,-4.4903,-4.5003,-4.6208,-4.6839,-4.63,-4.6738,-4.7104,-4.7296,-4.7389,-4.7483,-4.7546,-4.8339,-4.8675,-4.8515,-4.8767,-4.8894,-4.8769,-4.8578,-4.8515,-4.8515,-4.8515,-4.8578,-4.8769,-4.8769,-4.8832,-4.8923,0.0,0.0,-4.7777,-4.6847,-4.6047,-4.5307,-4.4423,-4.4097,-4.4097,-4.4097,-4.4184,-4.4265,0.0,0.0,0.0,0.0,0.0,0.0,0.0,-1.2034,-1.287,-1.4287,-1.3941,-1.3923,-1.4858,-1.4975,0.0,0.0,0.0,0.0,0.0,0.0,0.0,-1.6035,-1.6155,-1.6291,-1.6524,-1.7695,-1.8197,-1.8047,-1.9329,-1.9866,-1.9652,-1.9866,-1.9995,-1.9995,-1.9995,-1.9995,-1.9995,-1.9995,-2.0326,-2.0884,-2.0884,-2.1249,-2.1812,-2.1812,0.0,0.0,-2.1812,-2.2924,-2.4779,-2.7348,-3.0464,-3.3381,-3.4236,-3.559,-3.7103,-3.8245,-3.8405,-3.8445,-3.9546,-3.9711,-3.9528,-3.9599,-3.9191,-3.8321,-3.6683,-3.4488,-3.1997,-2.9321,-2.7281,-2.5646,-2.4597,-2.7149,-2.9967,-3.1558,-3.5461,-3.901,-4.1138,-4.3326,-4.4981,0.0,-4.6908,0.0,0.0,0.0,0.0,0.0,0.0,0.0,-4.8283,-4.8448,-4.8547,-4.8515,-4.8547,-4.8578,-4.8547,-4.8515,-4.8515,-4.8515,-4.8515,-4.8515,-4.8547,-4.8547,-4.8547,-4.8578,0.0,0.0,-4.7407,-4.6669,-4.5902,-4.5165,-4.4398,-4.4097,-4.4097,-4.4097,-4.4126,-4.4126,0.0,0.0,0.0,0.0,0.0,0.0,-1.2079,-1.2521,-1.3348,-1.5107,-1.4662,-1.4374,-1.4892,-1.4418,-1.4129,0.0,0.0,0.0,0.0,0.0,0.0,-1.5799,-1.5911,-1.6066,-1.6188,-1.7176,-1.7504,-1.7124,0.0,-1.8508,-1.785,-1.8117,-1.8235,-1.8235,-1.8235,-1.8345,-1.8518,-1.8518,-1.8915,-1.9578,-1.9975,-2.0572,-2.1282,-2.1647,0.0,0.0,-2.1812,-2.2758,-2.4282,-2.6071,-2.9085,-3.2497,-3.4821,-3.6605,-3.7893,-3.843,-3.8772,-3.9087,-3.9558,-3.9606,-3.9501,-3.9468,-3.8712,-3.7235,-3.4528,-3.2271,-2.9808,-2.6328,-2.4763,-2.3783,-2.3006,-2.5541,-2.8205,-2.9682,-3.3292,-3.6936,-3.9885,-4.217,0.0,-4.5616,-4.7106,0.0,0.0,0.0,0.0,0.0,0.0,0.0,-4.8227,-4.8227,-4.8324,-4.8483,-4.8324,-4.826,-4.8356,-4.826,-4.8227,-4.8227,-4.8227,-4.826,-4.8356,-4.8356,-4.8388,-4.8515,-4.8515,0.0,-4.7881,-4.6684,-4.5985,-4.5551,-4.4297,-4.3835,-4.3835,-4.3835,-4.3894,-4.4015,0.0,0.0,0.0,0.0,0.0,0.0,-1.2468,-1.2823,-1.3627,-1.5649,-1.5318,-1.4907,-1.4899,-1.4112,-1.3607,0.0,0.0,0.0,0.0,0.0,0.0,0.0,-1.5799,-1.5913,-1.6122,0.0,0.0,0.0,-1.7385,0.0,0.0,0.0,0.0,0.0,0.0,-1.7084,-1.7386,-1.7386,-1.7906,0.0,0.0,-2.0141,0.0,0.0,0.0,0.0,0.0,-2.2526,-2.3686,-2.4746,-2.698,-2.9926,-3.3326,-3.5909,-3.779,-3.8077,-3.8668,-3.9249,-3.9468,-3.9475,-3.9448,-3.9342,-3.8166,-3.6089,-3.2431,-3.036,-2.7992,-2.3784,-2.2758,-2.2526,-2.2096,-2.405,-2.6369,-2.831,-3.1272,-3.4651,-3.852,-4.1044,-4.3264,0.0,0.0,0.0,0.0,0.0,0.0,0.0,0.0,0.0,-4.8001,-4.8001,-4.8131,-4.8388,-4.8164,-4.8066,-4.8163,-4.8066,-4.8001,-4.8001,-4.8001,-4.8066,-4.8163,-4.8163,-4.8227,-4.8388,-4.8388,0.0,0.0,-4.686,-4.6198,-4.5868,-4.4387,-4.3731,-4.3598,-4.3598,-4.3687,-4.3839,0.0,0.0,0.0,0.0,0.0,0.0,-1.189,-1.2546,-1.353,-1.532,-1.5031,-1.4532,-1.4203,-1.4162,-1.3923,0.0,0.0,0.0,0.0,0.0,0.0,0.0,0.0,0.0,0.0,0.0,0.0,0.0,0.0,0.0,0.0,0.0,0.0,0.0,0.0,0.0,-1.7059,-1.7059,0.0,0.0,0.0,0.0,0.0,0.0,0.0,0.0,0.0,-2.1912,-2.2343,-2.4414,-2.5342,-2.6005,-2.8376,-3.2365,-3.6365,-3.7178,-3.7859,-3.8486,-3.9275,-3.9422,-3.9342,-3.9315,-3.7691,-3.5313,-3.2277,-2.9483,-2.6637,-2.3536,-2.2376,-2.2111,-2.2692,-2.3553,-2.5309,-2.8734,-3.0721,-3.3303,-3.7698,-4.0718,-4.3098,-4.4622,0.0,0.0,0.0,0.0,0.0,0.0,0.0,0.0,0.0,-4.8001,-4.8001,-4.8033,-4.8001,-4.8001,-4.8033,-4.8001,-4.8001,-4.8001,-4.8001,-4.8001,-4.8033,-4.8033,-4.8033,-4.8033,0.0,0.0,0.0,-4.7172,-4.6442,-4.5746,-4.4917,-4.4191,-4.3598,-4.3598,-4.3628,-4.3628,0.0,0.0,0.0,0.0,0.0,0.0,-1.2296,-1.2755,-1.353,-1.5265,-1.5604,-1.5485,-1.499,-1.4447,-1.3554,-1.2096,-1.2594,0.0,0.0,0.0,0.0,0.0,0.0,0.0,0.0,0.0,-1.6563,0.0,0.0,0.0,0.0,0.0,0.0,0.0,0.0,0.0,0.0,-1.7266,0.0,0.0,0.0,0.0,0.0,0.0,0.0,0.0,0.0,0.0,-2.193,-2.2824,-2.3686,-2.458,-2.5475,-2.8078,-3.126,-3.3815,-3.5699,-3.7261,-3.8406,-3.9063,-3.9422,-3.9342,-3.7301,-3.4584,-3.1615,-2.8721,-2.5806,-2.2873,-2.2011,-2.1912,-2.2177,-2.2824,-2.4116,-2.6417,-2.7675,-2.986,-3.4253,-3.7036,-3.9785,0.0,0.0,0.0,0.0,0.0,0.0,0.0,0.0,0.0,0.0,-4.8001,-4.8001,-4.8001,-4.8001,-4.8001,-4.8001,-4.8001,-4.8001,-4.8001,-4.8001,-4.8001,-4.8001,-4.8001,-4.8001,-4.8001,0.0,0.0,0.0,-4.6709,-4.6046,-4.5682,-4.4522,-4.386,-4.3598,-4.3598,-4.3598,-4.3598,0.0,0.0,0.0,0.0,0.0,-1.0821,-1.2389,-1.2781,-1.3477,-1.5029,-1.5604,-1.5709,-1.5265,-1.4188,-1.2984,-1.1731,-1.2005,0.0,0.0,0.0,0.0,0.0,0.0,0.0,0.0,0.0,-1.6801,-1.6995,-1.7893,0.0,0.0,0.0,0.0,0.0,0.0,0.0,0.0,0.0,0.0,0.0,0.0,0.0,0.0,0.0,0.0,0.0,0.0,0.0,0.0,0.0,0.0,-2.3354,-2.3354,-2.4564,-2.6785,-3.0841,-3.3549,-3.5557,-3.7392,-3.8479,-3.9089,-3.8984,-3.6903,-3.4054,-3.0886,-2.8105,-2.5358,-2.2394,-2.1812,-2.1812,-2.1812,-2.2228,-2.3123,-2.4812,-2.5905,-2.8058,-3.2398,-3.5114,0.0,0.0,0.0,0.0,0.0,0.0,0.0,0.0,0.0,0.0,0.0,-4.8001,-4.8001,-4.8001,-4.8001,-4.8001,-4.8001,-4.8001,-4.8001,-4.8001,-4.8001,-4.8001,-4.8001,-4.8001,-4.8001,-4.8001,0.0,0.0,0.0,-4.6643,-4.598,-4.5682,-4.4423,-4.3764,-4.3598,-4.3598,-4.3598,-4.3598,0.0,0.0,0.0,0.0,0.0,-1.0691,-1.1838,-1.252,-1.332,-1.4472,-1.4611,-1.4611,-1.4611,-1.3053,-1.2244,-1.2823,-1.2279,0.0,0.0,0.0,0.0,0.0,0.0,0.0,0.0,0.0,-1.7025,-1.7699,-1.8373,-1.8702,-1.8702,0.0,0.0,0.0,0.0,0.0,0.0,0.0,0.0,0.0,0.0,0.0,-2.134,0.0,0.0,0.0,0.0,0.0,0.0,0.0,0.0,0.0,0.0,-2.2343,-2.3951,-2.9032,-3.157,-3.3381,-3.6307,-3.7665,-3.8228,-3.8202,-3.6539,-3.3922,-3.0257,-2.7741,-2.5358,-2.2394,-2.1812,-2.1812,-2.1812,-2.1812,-2.2526,-2.4746,-2.6354,-2.8807,-3.316,-3.6307,0.0,0.0,0.0,0.0,0.0,0.0,0.0,0.0,0.0,0.0,0.0,-4.8001,-4.8001,-4.8001,-4.8001,-4.8001,-4.8001,-4.8001,-4.8001,-4.8001,-4.8001,-4.8001,-4.8001,-4.8001,-4.8001,0.0,0.0,0.0,0.0,-4.7206,-4.6444,-4.5715,-4.4953,-4.4257,-4.3598,-4.3598,-4.3598,-4.3598,0.0,0.0,0.0,0.0,0.0,0.0,-1.1344,-1.1931,-1.2557,-1.3346,-1.3791,-1.4053,-1.4053,-1.2818,-1.2411,-1.3425,-1.2408,0.0,0.0,0.0,0.0,0.0,0.0,0.0,0.0,-1.6832,-1.7712,-1.8386,-1.9492,-2.0318,-2.0737,-2.0288,-1.972,0.0,0.0,0.0,0.0,0.0,0.0,0.0,0.0,-2.0563,-2.0614,0.0,0.0,0.0,0.0,0.0,0.0,0.0,0.0,0.0,0.0,0.0,0.0,-2.5309,-2.8158,-3.0775,-3.2177,-3.3491,-3.4187,-3.317,-3.2012,-3.0477,-2.7808,-2.6285,-2.4746,-2.2294,-2.1812,-2.1812,-2.1812,-2.1812,-2.2873,-2.6089,-2.6984,-2.8807,-3.3216,0.0,0.0,0.0,0.0,0.0,0.0,0.0,0.0,0.0,0.0,0.0,0.0,-4.8001,-4.8001,-4.8001,-4.8001,-4.8001,-4.8001,-4.8001,-4.8001,-4.8001,-4.8001,-4.8001,-4.8001,-4.8001,0.0,0.0,0.0,0.0,0.0,-4.6643,-4.6013,-4.5682,-4.4423,-4.3797,-4.3598,-4.3598,-4.3598,-4.3598,0.0,0.0,0.0,0.0,0.0,0.0,-1.1056,-1.1461,-1.1997,-1.2781,-1.3017,-1.3304,-1.3765,-1.2714,-1.2505,-1.367,-1.2739,0.0,0.0,0.0,0.0,0.0,0.0,0.0,-1.6129,-1.716,-1.8147,-1.9061,-2.0408,-2.1306,-2.1695,-2.1545,-2.0946,-2.0049,-1.9361,0.0,0.0,0.0,0.0,0.0,-1.9945,-2.0155,-2.0122,0.0,0.0,0.0,0.0,0.0,0.0,0.0,0.0,0.0,0.0,0.0,0.0,0.0,-2.5375,-2.7727,-2.9284,-3.0576,-3.1239,-3.029,-2.9549,-2.8456,-2.6303,-2.5209,-2.4149,-2.221,-2.1812,-2.1812,-2.1812,-2.1812,-2.274,-2.5591,-2.6519,-2.8409,-3.2785,0.0,0.0,0.0,0.0,0.0,0.0,0.0,0.0,0.0,0.0,0.0,0.0,0.0,-4.8001,-4.8001,-4.8001,-4.8001,-4.8001,-4.8001,-4.8001,-4.8001,-4.8001,-4.8001,-4.8001,-4.8001,0.0,0.0,0.0,0.0,0.0,-4.6411,-4.5781,-4.5649,-4.4191,-4.3598,-4.3598,-4.3598,-4.3598,-4.3598,0.0,0.0,0.0,0.0,0.0,0.0,0.0,-1.112,-1.1579,-1.2677,-1.2333,-1.2411,-1.3539,-1.2661,-1.2438,-1.3566,-1.3189,0.0,0.0,0.0,0.0,0.0,0.0,0.0,-1.6606,-1.7308,-1.8356,-1.9708,-2.1096,-2.1814,-2.1904,-2.2553,-2.2113,-2.0808,-2.0139,-1.9798,0.0,0.0,0.0,0.0,-1.9806,-2.0039,0.0,0.0,0.0,0.0,0.0,0.0,0.0,0.0,0.0,0.0,0.0,0.0,0.0,0.0,0.0,0.0,0.0,-2.8456,-2.8966,-2.8867,-2.8423,-2.7448,-2.5342,-2.4381,0.0,-2.2096,-2.1812,-2.1831,-2.1951,-2.1915,-2.246,-2.4199,-2.5671,-2.8092,-3.2398,-3.5048,0.0,0.0,0.0,0.0,0.0,0.0,0.0,0.0,0.0,0.0,0.0,0.0,-4.8001,-4.8001,-4.8001,-4.8001,-4.8001,-4.8001,-4.8001,-4.8001,-4.8001,-4.8001,-4.8001,-4.8001,0.0,0.0,0.0,0.0,0.0,-4.6411,-4.5781,-4.5649,-4.4191,-4.3598,-4.3598,-4.3598,-4.3598,-4.3598,0.0,0.0,0.0,0.0,0.0,0.0,0.0,0.0,0.0,0.0,-1.198,-1.2036,-1.231,-1.2147,-1.2125,0.0,0.0,0.0,0.0,0.0,0.0,0.0,0.0,0.0,-1.5638,-1.699,-1.8356,-1.9708,-2.1565,-2.2951,-2.3917,-2.4066,-2.346,-2.2194,-2.1515,-2.0647,0.0,0.0,0.0,0.0,-1.9707,-1.9924,0.0,0.0,0.0,0.0,-2.1632,-2.1648,0.0,0.0,0.0,0.0,0.0,0.0,0.0,0.0,-2.2177,-2.2475,-2.3171,0.0,-2.5011,-2.3851,-2.3884,-2.3901,0.0,-2.2891,-2.2891,-2.2011,-2.1812,-2.2187,-2.3399,-2.3096,-2.4099,-2.8493,-2.9842,-3.1681,-3.5545,0.0,0.0,0.0,0.0,0.0,0.0,0.0,0.0,0.0,0.0,0.0,0.0,0.0,-4.8001,-4.8001,-4.8001,-4.8001,-4.8001,-4.8001,-4.8001,-4.8001,-4.8001,-4.8001,-4.8001,-4.8001,0.0,0.0,0.0,0.0,-4.7901,-4.6411,-4.5781,-4.5649,-4.4191,-4.3598,-4.3598,-4.3598,-4.3598,-4.3598,0.0,0.0,0.0,0.0,0.0,0.0,0.0,0.0,0.0,0.0,-1.1859,-1.1903,-1.1903,-1.218,-1.2262,0.0,0.0,0.0,0.0,0.0,0.0,0.0,0.0,-1.5576,-1.6158,-1.718,-1.8655,-2.0636,-2.1655,-2.2978,-2.4605,-2.4186,-2.3509,-2.256,-2.1307,-2.0341,0.0,0.0,0.0,-1.9288,-1.9588,0.0,0.0,0.0,0.0,0.0,-2.1402,-2.1449,0.0,-2.1693,-2.1812,-2.1812,0.0,0.0,0.0,0.0,-2.1812,-2.1812,-2.1812,-2.2891,-2.3818,-2.299,-2.3089,-2.3288,-2.2891,-2.2484,-2.2077,-2.1849,-2.1572,-2.1891,-2.3762,-2.3881,-2.508,-2.9454,-3.098,-3.3013,0.0,0.0,0.0,0.0,0.0,0.0,0.0,0.0,0.0,0.0,0.0,0.0,0.0,0.0,-4.7438,-4.7438,-4.7803,-4.8001,-4.8001,-4.8001,-4.8001,-4.8001,-4.8001,-4.8001,-4.8001,-4.8001,0.0,0.0,0.0,0.0,-4.6947,-4.6118,-4.5426,-4.4747,-4.3938,-4.3598,-4.3598,-4.3598,-4.3598,-4.3598,0.0,0.0,0.0,0.0,0.0,0.0,0.0,0.0,0.0,0.0,0.0,0.0,0.0,0.0,0.0,0.0,0.0,0.0,0.0,0.0,0.0,0.0,-1.4811,-1.574,-1.706,-1.7436,-1.8884,-2.1505,-2.1704,-2.2744,-2.4537,-2.4022,-2.3297,-2.2375,-2.0555,-1.97,-1.9654,-1.9654,-1.9325,-1.8894,-1.9462,0.0,0.0,0.0,0.0,0.0,0.0,0.0,0.0,-2.1617,-2.1768,-2.1812,-2.1812,0.0,0.0,0.0,0.0,0.0,-2.2077,-2.3288,-2.4381,-2.3951,-2.4017,-2.4149,-2.4017,-2.2801,-2.1775,-2.2007,-2.1601,-2.1853,-2.4089,-2.4789,-2.6157,-2.9448,0.0,0.0,0.0,0.0,0.0,0.0,0.0,0.0,0.0,0.0,0.0,0.0,0.0,0.0,0.0,0.0,0.0,-4.6622,-4.7404,-4.7803,-4.7803,-4.7935,-4.8001,-4.8001,-4.7902,-4.7803,-4.7803,-4.7704,-4.7704,0.0,0.0,0.0,-4.5761,-4.5569,-4.4689,-4.3525,-4.35,-4.3355,-4.3295,-4.3386,-4.3355,-4.3265,0.0,0.0,0.0,0.0,0.0,0.0,0.0,0.0,0.0,0.0,0.0,0.0,0.0,0.0,0.0,0.0,0.0,0.0,0.0,0.0,0.0,-1.3615,-1.416,-1.5098,-1.6481,-1.6952,-1.8326,-2.0606,-2.2212,-2.3482,-2.4391,-2.5318,-2.4528,-2.2279,-2.0882,-1.9967,-1.9465,-1.9465,-1.946,-1.9462,0.0,0.0,0.0,0.0,0.0,0.0,0.0,0.0,0.0,-2.1262,-2.1572,-2.1812,-2.1812,0.0,0.0,0.0,0.0,0.0,-2.3321,-2.5194,-2.6188,-2.3686,-2.4017,-2.4779,-2.4149,-2.3786,-2.349,-2.3207,-2.3071,-2.3734,-2.6168,-2.6957,-2.8414,0.0,0.0,0.0,0.0,0.0,0.0,0.0,0.0,0.0,0.0,0.0,0.0,0.0,0.0,0.0,0.0,0.0,0.0,-4.5877,-4.6585,-4.6999,-4.6999,-4.7671,-4.8001,-4.8001,-4.7303,-4.6999,-4.6965,-4.634,-4.641,0.0,0.0,-4.5958,-4.5694,-4.4445,-4.3506,-4.2774,-4.275,-4.2396,-4.1884,-4.2522,-4.2332,-4.1819,0.0,0.0,0.0,0.0,0.0,0.0,0.0,0.0,0.0,0.0,0.0,0.0,0.0,0.0,0.0,0.0,0.0,0.0,0.0,-1.3497,-1.3617,-1.3871,-1.415,-1.499,-1.649,-1.7495,-1.9163,-2.1526,-2.263,-2.392,-2.5324,-2.4781,-2.3524,-2.1653,-2.0352,-1.9656,-1.9409,-1.9409,-1.9446,-1.9501,0.0,0.0,0.0,0.0,0.0,0.0,0.0,0.0,0.0,0.0,-2.1526,-2.1812,-2.1812,0.0,0.0,0.0,0.0,0.0,-2.2626,-2.4414,-2.5819,-2.4533,-2.5882,-2.7388,-2.6632,-2.5779,-2.512,-2.5171,-2.4872,-2.5298,-2.7635,0.0,-3.0542,-3.4739,0.0,0.0,0.0,0.0,0.0,0.0,0.0,0.0,0.0,0.0,0.0,0.0,0.0,0.0,0.0,0.0,0.0,0.0,-4.5773,-4.6234,-4.6234,-4.655,-4.7168,-4.8001,-4.7638,-4.7236,-4.6793,-4.648,-4.6269,-4.6166,0.0,-4.4717,-4.3955,-4.3295,-4.2428,-4.1497,-4.1881,-4.1787,-4.1558,-4.1884,-4.1787,-4.1492,0.0,0.0,0.0,0.0,0.0,0.0,0.0,0.0,0.0,0.0,0.0,0.0,0.0,0.0,0.0,0.0,0.0,0.0,0.0,-1.3412,-1.365,-1.4138,-1.4472,-1.5414,-1.7123,-1.8129,-1.9867,-2.2414,-2.286,-2.3943,-2.5617,-2.3885,-2.2367,-2.1091,-1.9992,-1.9415,-1.9325,-1.9325,-1.9372,-1.9391,0.0,0.0,0.0,0.0,0.0,0.0,0.0,0.0,0.0,0.0,0.0,0.0,0.0,0.0,0.0,-2.1783,-2.1812,-2.1879,-2.2228,-2.3637,-2.5117,-2.5626,-2.747,-2.9102,-2.8896,-2.7731,-2.6838,-2.7402,-2.7055,-2.7273,-2.915,-3.0634,0.0,0.0,0.0,0.0,0.0,0.0,0.0,0.0,0.0,0.0,0.0,0.0,0.0,0.0,0.0,0.0,0.0,0.0,0.0,0.0,-4.4999,-4.5442,-4.5442,-4.5588,-4.6269,-4.7471,-4.727,-4.6862,-4.6237,-4.5936,-4.5588,-4.5123,-4.4288,-4.3314,-4.2309,-4.214,-4.1376,-4.0305,-4.0992,-4.126,-4.1227,-4.106,-4.0992,-4.0992,0.0,0.0,0.0,0.0,0.0,0.0,0.0,0.0,0.0,0.0,0.0,0.0,0.0,0.0,0.0,0.0,0.0,0.0,-1.3378,-1.3301,-1.3501,-1.4091,-1.5079,-1.6616,-1.8801,-1.8376,-1.9478,-2.2123,-2.2716,-2.3379,-2.4047,-2.3286,-2.2214,-2.1009,-2.034,-1.9701,-1.912,-1.912,-1.9176,-1.9306,-1.9306,0.0,0.0,0.0,0.0,0.0,0.0,0.0,0.0,0.0,0.0,0.0,0.0,0.0,-2.1402,-2.1708,-2.1812,-2.2111,-2.3454,-2.4228,-2.5038,-2.6741,-2.7344,-2.7866,-2.935,-2.8976,-2.864,-2.9693,-2.9919,-3.016,-3.1142,-3.3358,0.0,0.0,0.0,0.0,0.0,0.0,0.0,0.0,0.0,0.0,0.0,0.0,0.0,0.0,0.0,0.0,0.0,0.0,0.0,0.0,0.0,-4.4586,-4.4586,-4.5332,-4.5769,-4.5841,-4.511,-4.4737,-4.4631,-4.3328,-4.3092,-4.3562,-4.2243,-4.165,-4.1621,-4.0873,-4.0154,-3.9553,-4.027,-4.0581,-4.0478,-3.9809,-3.9553,-3.9553,0.0,0.0,0.0,0.0,0.0,0.0,0.0,0.0,0.0,0.0,0.0,-1.1672,-1.1094,0.0,0.0,0.0,0.0,0.0,-1.3259,-1.3232,-1.3483,-1.4065,-1.4828,-1.6093,-1.7945,-1.9147,-2.0552,-2.23,-2.3232,-2.3572,-2.3382,-2.2333,-2.1527,-2.0959,-1.9943,-1.9333,-1.9101,-1.9101,-1.912,-1.9176,-1.9176,-1.9232,0.0,0.0,0.0,0.0,0.0,0.0,0.0,0.0,-1.9638,-2.0273,-2.083,-2.1135,-2.1324,-2.1449,-2.1495,-2.1626,-2.2181,-2.3808,-2.5453,-2.588,-2.7434,-2.9134,-3.0225,-3.0427,-3.0815,-3.2518,-3.2522,-3.2463,-3.3216,0.0,0.0,0.0,0.0,0.0,0.0,0.0,0.0,0.0,0.0,0.0,0.0,0.0,0.0,0.0,0.0,0.0,0.0,0.0,0.0,0.0,0.0,-4.359,-4.3205,-4.351,-4.3417,-4.3019,-4.452,-4.4781,-4.3857,-4.3349,-4.275,-4.2138,-4.1205,-4.0822,-4.0777,-4.0094,-3.9649,-3.9409,-3.9732,-3.9809,-3.9773,-3.9517,-3.9373,-3.9373,0.0,0.0,0.0,0.0,0.0,0.0,0.0,0.0,-1.2246,0.0,0.0,0.0,0.0,-1.16,0.0,0.0,0.0,0.0,-1.3173,-1.3198,-1.3483,-1.4065,-1.4777,-1.5764,-1.7074,-1.9133,-2.0728,-2.1873,-2.2804,-2.2931,-2.23,-2.1532,-2.1059,-2.0773,-1.9826,-1.942,-1.9391,-1.9188,-1.9101,-1.9101,-1.9101,-1.9139,0.0,0.0,0.0,0.0,0.0,0.0,0.0,0.0,-1.9038,-1.9607,-2.0376,-2.0763,-2.0974,-2.1103,-2.144,-2.1744,-2.1744,-2.3322,-2.5145,-2.5864,-2.7419,-2.9292,-3.1161,-3.1668,-3.2374,-3.4653,-3.4773,-3.4592,-3.5073,-3.5489,0.0,0.0,0.0,0.0,0.0,0.0,0.0,0.0,0.0,0.0,0.0,0.0,0.0,0.0,0.0,0.0,0.0,0.0,0.0,0.0,0.0,0.0,-4.2081,-4.2081,-4.1871,-4.1422,-4.3396,-4.3834,-4.2816,-4.2633,-4.2001,-4.1025,-4.0367,-4.0098,-4.0068,-3.9619,-3.9373,-3.9373,-3.9373,-3.9373,-3.9373,-3.9373,-3.9373,-3.9373,0.0,0.0,0.0,0.0,0.0,0.0,0.0,0.0,-1.1939,-1.2339,-1.1952,0.0,0.0,0.0,0.0,0.0,0.0,0.0,-1.3198,-1.3198,-1.3483,-1.4065,-1.511,-1.5944,-1.6475,-1.813,-1.956,-2.0666,-2.1145,-2.112,-2.057,-2.0992,-2.0906,-2.038,-2.0197,-2.0088,-2.0059,-1.9391,-1.9101,-1.9101,-1.9101,-1.9101,-1.9043,0.0,0.0,0.0,0.0,0.0,0.0,0.0,-1.8067,-1.8843,-1.9888,-2.0176,-2.0292,-2.0695,-2.169,-2.2676,-2.2676,-2.2959,-2.3948,-2.7007,-2.7224,-2.7775,-3.214,-3.2652,-3.3055,-3.5917,-3.6507,-3.6507,-3.6507,-3.6507,0.0,0.0,0.0,0.0,0.0,0.0,0.0,0.0,0.0,0.0,0.0,0.0,0.0,0.0,0.0,0.0,0.0,0.0,0.0,0.0,0.0,0.0,-4.1422,-4.1422,-4.1422,-4.1392,-4.1392,-4.1354,-4.1392,-4.0696,-4.0397,-4.0337,-3.9709,-3.9373,-3.9373,-3.9373,-3.9373,-3.9373,-3.9373,-3.9373,-3.9373,-3.9373,-3.9373,-3.9373,0.0,0.0,0.0,0.0,0.0,0.0,0.0,0.0,-1.2351,-1.2389,-1.2588,0.0,0.0,0.0,0.0,0.0,0.0,0.0,-1.3198,-1.3198,-1.3273,-1.3441,-1.4538,-1.5211,-1.5387,-1.7021,-1.8405,-1.951,-2.0016,-1.9989,-1.9465,-1.9515,-1.9586,-1.969,-1.9287,-1.9224,-1.9372,-1.8874,-1.8855,-1.9101,-1.9101,-1.9101,-1.9072,0.0,0.0,0.0,0.0,0.0,0.0,0.0,0.0,0.0,-1.8775,-1.9563,-2.0224,-2.0306,-2.0928,-2.1644,-2.1644,-2.3224,-2.5221,-2.663,-2.885,-3.1209,-3.2976,-3.3608,-3.445,-3.666,-3.7494,-3.7674,-3.7225,-3.7135,0.0,0.0,0.0,0.0,0.0,0.0,0.0,0.0,0.0,0.0,0.0,0.0,0.0,0.0,0.0,0.0,0.0,0.0,0.0,0.0,0.0,0.0,-4.0696,-4.0696,-4.0457,-4.0008,-4.0008,-4.0247,-4.0696,-4.0487,-4.0157,-3.9709,-3.9499,-3.9373,-3.9373,-3.9373,-3.9373,-3.9373,-3.9373,-3.9373,-3.9373,-3.9373,-3.9373,-3.9373,0.0,0.0,0.0,0.0,0.0,0.0,-1.1897,-1.245,-1.2815,-1.273,-1.2797,-1.2839,0.0,0.0,0.0,-1.3173,-1.3198,0.0,-1.3198,-1.3198,-1.3315,-1.3559,-1.4431,-1.5085,-1.5537,-1.6769,-1.7601,-1.8005,-1.8782,-1.8876,-1.838,-1.8936,-1.9197,-1.9248,-1.9342,-1.9333,-1.9293,-1.8959,-1.8823,-1.8893,-1.9045,-1.9101,-1.9101,0.0,0.0,0.0,0.0,0.0,0.0,0.0,0.0,0.0,-1.83,-1.8775,-1.9226,-1.9753,-2.057,-2.1527,-2.2646,-2.4537,-2.6639,-2.8491,-3.0648,-3.2674,-3.4101,-3.5063,-3.5968,-3.7165,-3.7943,-3.8272,-3.7883,0.0,0.0,0.0,0.0,0.0,0.0,0.0,0.0,0.0,0.0,0.0,0.0,0.0,0.0,0.0,0.0,0.0,0.0,0.0,0.0,0.0,0.0,0.0,-4.0008,-4.0008,-3.9798,-3.9373,-3.9373,-3.9619,-4.0008,-4.0008,-3.9798,-3.9373,-3.9373,-3.9373,-3.9373,-3.9373,-3.9373,-3.9373,-3.9373,-3.9373,-3.9373,-3.9373,-3.9373,-3.9373,0.0,0.0,-1.0533,-0.9994,0.0,0.0,-1.1778,-1.2453,-1.3037,-1.3146,-1.2722,-1.2613,0.0,0.0,0.0,-1.3148,-1.3198,-1.3198,-1.3198,-1.3198,-1.3483,-1.4065,-1.4651,-1.5462,-1.6475,-1.7024,-1.7049,-1.65,-1.7601,-1.7852,-1.7348,-1.8926,-1.9392,-1.8937,-1.979,-1.9943,-1.9505,-1.9224,-1.8867,-1.8519,-1.8912,-1.9064,-1.9101,-1.9043,0.0,0.0,0.0,0.0,0.0,0.0,0.0,0.0,-1.8207,-1.803,-1.784,-1.9093,-2.0349,-2.1898,-2.4656,-2.6209,-2.7859,-3.1483,-3.2287,-3.2899,-3.5288,-3.6531,-3.731,-3.737,-3.7943,-3.8392,-3.8357,0.0,0.0,0.0,0.0,0.0,0.0,0.0,0.0,0.0,0.0,0.0,0.0,0.0,0.0,0.0,0.0,0.0,0.0,0.0,0.0,0.0,0.0,0.0,-3.9373,-3.9373,-3.9373,0.0,-3.9337,-3.9337,-3.9373,-3.9373,-3.9373,-3.9373,-3.9373,-3.9373,-3.9373,-3.9373,-3.9373,-3.9373,-3.9373,-3.9373,-3.9373,-3.9373,-3.9373,-3.9373,0.0,0.0,-0.9642,-0.9219,0.0,0.0,-1.1044,-1.1371,-1.1889,-1.263,-1.2531,-1.2613,-1.3148,-1.3098,0.0,-1.3198,-1.3198,-1.3198,-1.3198,-1.3198,-1.3483,-1.4065,-1.5009,-1.5844,-1.6475,-1.6647,-1.6647,-1.65,-1.7225,-1.7275,-1.6722,-1.7968,-1.8452,-1.8248,-1.8547,-1.8744,-1.8838,-1.8019,-1.7984,-1.85,-1.8577,-1.8836,-1.9043,-1.8579,-1.8317,0.0,0.0,0.0,0.0,0.0,0.0,0.0,-1.7619,-1.7851,-1.8325,-1.852,-1.9557,-2.1069,-2.3238,-2.5082,-2.7211,-3.0482,-3.2814,-3.443,-3.499,-3.571,-3.6433,-3.7109,-3.7769,-3.8245,0.0,0.0,0.0,0.0,0.0,0.0,0.0,0.0,0.0,0.0,0.0,0.0,0.0,0.0,0.0,0.0,0.0,0.0,0.0,0.0,0.0,0.0,0.0,-3.9228,-3.9373,-3.9228,-3.9156,0.0,-3.898,-3.9017,-3.9192,-3.9337,-3.9373,-3.9373,-3.9373,-3.9373,-3.9373,-3.9373,-3.9373,-3.9373,-3.9373,-3.9373,-3.9373,-3.9373,-3.9373,-3.9373,0.0,0.0,0.0,0.0,0.0,0.0,0.0,0.0,-1.1914,-1.277,-1.2846,-1.2889,-1.3173,-1.3198,0.0,0.0,-1.3198,-1.3198,-1.3198,-1.3198,-1.3566,-1.445,-1.5512,-1.6095,-1.612,-1.612,-1.612,-1.612,-1.6421,-1.6697,-1.6948,-1.8055,-1.8676,-1.8865,-1.8929,-1.8921,-1.8796,-1.7935,-1.7686,-1.7888,-1.8088,-1.8235,-1.8312,-1.798,-1.782,-1.7737,-1.7737,0.0,0.0,0.0,0.0,0.0,0.0,0.0,-1.7587,-1.8508,-1.9064,-2.005,-2.3356,-2.558,-2.7825,-3.1654,-3.3771,-3.4868,-3.4702,-3.4999,-3.5452,-3.5908,-3.6837,0.0,0.0,0.0,0.0,0.0,0.0,0.0,0.0,0.0,0.0,0.0,0.0,0.0,0.0,0.0,0.0,0.0,0.0,0.0,0.0,0.0,0.0,0.0,-3.9017,-3.9017,-3.909,-3.9017,-3.8943,-3.8943,-3.887,-3.887,-3.898,-3.9265,-3.9373,-3.9373,-3.9301,-3.9265,-3.9265,-3.9156,-3.909,-3.909,-3.909,-3.9192,-3.9265,-3.9265,-3.9301,-3.9373,0.0,0.0,0.0,0.0,0.0,0.0,0.0,0.0,0.0,-1.2899,-1.296,-1.3029,-1.3198,-1.3198,-1.3198,0.0,0.0,0.0,-1.3198,-1.3315,-1.3785,-1.4727,-1.5693,-1.6019,-1.5567,-1.5542,-1.5613,-1.5693,-1.5693,-1.6421,-1.785,-1.8632,-1.9284,-1.9811,-1.971,-1.9359,-1.8807,-1.7962,-1.7401,-1.7083,-1.7297,-1.7347,-1.7255,-1.7153,-1.704,-1.6956,-1.6956,-1.7337,-1.7882,-1.8114,0.0,0.0,0.0,0.0,-1.6708,-1.8443,-1.8593,-1.9128,-2.3282,-2.61,-2.8855,-3.3035,-3.4455,-3.4735,-3.4467,-3.453,-3.4664,-3.4664,0.0,0.0,0.0,0.0,0.0,0.0,0.0,0.0,0.0,0.0,0.0,0.0,0.0,0.0,0.0,0.0,0.0,0.0,0.0,0.0,0.0,0.0,-3.8723,-3.8797,-3.876,-3.876,-3.8797,-3.876,-3.876,-3.876,-3.876,-3.876,-3.876,-3.9156,-3.9301,-3.9301,-3.909,-3.9053,-3.9017,-3.887,-3.8797,-3.8797,-3.8797,-3.8907,-3.9053,-3.9053,-3.9156,-3.9301,0.0,0.0,0.0,0.0,0.0,0.0,0.0,0.0,0.0,0.0,-1.2087,-1.2314,-1.3113,-1.3198,-1.3198,-1.3198,-1.3198,-1.3198,-1.3198,0.0,0.0,-1.4198,-1.4802,-1.5085,-1.5009,-1.5009,-1.5236,-1.5693,-1.5693,-1.6999,-1.9484,-1.9133,-1.9284,-1.9786,-1.9309,-1.8807,-1.8204,-1.6662,-1.6196,-1.6474,-1.6007,-1.6024,-1.6299,-1.5716,-1.5674,-1.5891,-1.5891,-1.6129,-1.6646,-1.7824,-1.8201,0.0,0.0,0.0,0.0,-1.7405,-1.7824,-1.8579,-2.0331,-2.4583,-2.9232,-3.2048,-3.362,-3.4433,-3.4399,-3.4428,-3.4462,0.0,0.0,0.0,0.0,0.0,0.0,0.0,0.0,0.0,0.0,0.0,0.0,0.0,0.0,0.0,0.0,0.0,0.0,0.0,0.0,0.0,0.0,-3.8352,-3.8464,-3.8797,-3.8612,-3.8612,-3.8797,-3.8612,-3.8567,-3.8567,-3.8567,-3.8567,-3.8567,-3.876,-3.887,-3.887,-3.887,-3.8833,-3.8833,-3.8833,-3.8797,-3.8797,-3.8797,-3.8833,-3.8833,-3.8833,-3.887,-3.887,0.0,0.0,0.0,0.0,0.0,0.0,0.0,0.0,0.0,0.0,0.0,-1.2736,-1.3104,-1.3181,-1.3198,-1.3198,-1.3198,-1.3198,-1.3198,-1.3752,-1.4116,-1.4116,-1.4601,-1.4752,-1.445,-1.445,-1.4727,-1.5261,-1.4934,-1.6694,-2.0314,-2.0062,-2.074,-2.2096,-2.0941,-2.0087,-1.9485,-1.7498,-1.6397,-1.5971,-1.5715,-1.6237,-1.6996,-1.5442,-1.5667,-1.6638,-1.558,-1.5511,-1.61,-1.7262,-1.7882,-1.8201,-1.8201,0.0,0.0,0.0,-1.7139,-1.7824,-2.1278,-2.4878,-2.8447,-3.17,-3.2916,-3.3529,-3.4254,-3.4399,-3.4399,0.0,0.0,0.0,0.0,0.0,0.0,0.0,0.0,0.0,0.0,0.0,0.0,0.0,0.0,0.0,0.0,0.0,0.0,0.0,0.0,0.0,-3.8315,-3.824,-3.8277,-3.8464,-3.8389,-3.8352,-3.8464,-3.8389,-3.8315,-3.8315,-3.8315,-3.8315,-3.8315,-3.8427,-3.8612,-3.8797,-3.8686,-3.8612,-3.8612,-3.8501,-3.8464,-3.8464,-3.8464,-3.8538,-3.8612,-3.8612,-3.8686,-3.8797,0.0,0.0,0.0,0.0,0.0,0.0,0.0,0.0,0.0,0.0,0.0,-1.3077,-1.3112,0.0,0.0,0.0,-1.3198,-1.3198,-1.3198,-1.3609,-1.3871,-1.3871,-1.4255,-1.428,-1.3896,-1.3871,-1.4148,-1.4702,-1.4425,-1.6489,-2.0691,-2.0842,-2.225,-2.4556,-2.2874,-2.1521,-2.0339,-1.8429,-1.7099,-1.6321,-1.6195,-1.6794,-1.7672,-1.6561,-1.7053,-1.8121,-1.6519,-1.6208,-1.6617,-1.7251,-1.7795,-1.8201,0.0,0.0,0.0,0.0,0.0,-1.6982,-2.1656,-2.421,-2.6445,-3.0132,-3.1555,-3.2367,-3.3645,0.0,0.0,0.0,0.0,0.0,0.0,0.0,0.0,0.0,0.0,0.0,0.0,0.0,0.0,0.0,0.0,0.0,0.0,0.0,0.0,0.0,0.0,0.0,-3.797,-3.797,-3.8057,-3.8202,-3.8202,-3.8202,-3.8202,-3.8202,-3.8202,-3.8202,-3.8202,-3.8202,-3.8202,-3.8202,-3.8352,-3.8649,-3.8501,-3.8389,-3.8389,-3.824,-3.8202,-3.8202,-3.8202,-3.8277,-3.8389,-3.8389,-3.8501,-3.8649,0.0,0.0,0.0,0.0,0.0,0.0,-1.0467,-1.0977,0.0,0.0,0.0,-1.2791,-1.3146,-1.3198,-1.3198,-1.3198,-1.3198,-1.3198,-1.3198,-1.3223,-1.3248,-1.3248,-1.3273,0.0,-1.3248,-1.3248,-1.3534,-1.4141,-1.4626,-1.6845,-2.0691,-2.1219,-2.3231,-2.6298,-2.4607,-2.2372,-1.9761,-1.8631,-1.8129,-1.8028,-1.7524,-1.7348,-1.7647,-1.9636,-2.0322,-2.016,-1.9353,-1.8973,0.0,0.0,0.0,0.0,0.0,-1.7737,-1.7098,0.0,0.0,0.0,-1.9391,-2.1249,-2.302,-2.6271,-2.8912,-3.1003,0.0,0.0,0.0,0.0,0.0,0.0,0.0,0.0,0.0,0.0,0.0,0.0,0.0,0.0,0.0,0.0,0.0,0.0,0.0,0.0,0.0,0.0,0.0,0.0,-3.7331,-3.736,-3.7622,-3.8173,-3.8202,-3.8202,-3.8202,-3.8202,-3.8202,-3.8202,-3.8202,-3.8202,-3.8202,-3.8202,-3.8202,-3.824,-3.8202,-3.8202,-3.8202,-3.8202,-3.8202,-3.8202,-3.8202,-3.8202,-3.8202,-3.8202,-3.8202,-3.824,0.0,0.0,0.0,0.0,0.0,0.0,-1.1115,-1.145,-1.1872,0.0,0.0,0.0,0.0,-1.3077,-1.3129,-1.3129,-1.3129,-1.3146,-1.3198,-1.3198,-1.3198,-1.3198,-1.3198,-1.3198,-1.3198,-1.3198,-1.3456,-1.3969,-1.4237,-1.5969,-1.8983,-1.9961,-2.127,-2.2778,-2.2874,-2.2548,-2.1741,-1.9258,-1.8204,-1.8229,-1.838,-1.9284,-2.0514,-2.0213,-2.14,-2.2988,-2.1173,0.0,0.0,0.0,0.0,0.0,-1.7718,-1.7388,-1.6982,-1.5921,-1.6037,-1.6849,-1.8462,-2.0088,-2.1917,-2.435,-2.6852,-2.9087,-3.0335,0.0,0.0,0.0,0.0,0.0,0.0,0.0,0.0,0.0,0.0,0.0,0.0,0.0,0.0,0.0,0.0,0.0,0.0,0.0,0.0,0.0,0.0,0.0,-3.6664,-3.6664,-3.678,-3.6983,-3.6983,-3.7186,-3.7622,-3.7999,-3.8202,-3.8202,-3.8202,-3.8202,-3.8202,-3.8202,-3.8202,-3.8202,-3.8202,-3.8202,-3.8202,-3.8202,-3.8202,-3.8202,-3.8202,-3.8202,-3.8202,-3.8202,-3.8202,-3.8202,0.0,0.0,-1.0185,-1.0617,0.0,-1.1,-1.1671,-1.1854,-1.215,-1.272,0.0,0.0,0.0,0.0,-1.3512,-1.3375,-1.3218,-1.3112,-1.3163,-1.3163,-1.3146,-1.3112,-1.3268,-1.3268,-1.3112,-1.3303,-1.3503,-1.3623,-1.3942,-1.5347,-1.7764,-1.8783,-1.9835,-2.0886,-2.0914,-2.1515,-2.2418,-2.0439,-1.9484,-1.9384,-2.0313,-2.144,-2.2569,-2.2769,-2.3904,-2.5199,0.0,0.0,0.0,0.0,0.0,0.0,-1.8493,-1.7561,-1.6663,-1.5602,-1.6037,-1.7011,-1.7679,-1.9101,-2.093,-2.331,-2.4998,-2.6709,-2.9058,0.0,0.0,0.0,0.0,0.0,0.0,0.0,0.0,0.0,0.0,0.0,0.0,0.0,0.0,0.0,0.0,0.0,0.0,0.0,0.0,0.0,0.0,0.0,-3.5996,-3.5996,-3.6083,-3.6286,-3.6315,-3.6519,-3.6954,-3.7593,-3.7912,-3.7912,-3.8115,-3.8202,-3.8202,-3.8202,-3.8202,-3.8202,-3.8202,-3.8202,-3.8202,-3.8202,-3.8202,-3.8202,-3.8202,-3.8202,-3.8202,-3.8202,-3.8202,-3.8202,-1.0728,-1.0907,-1.1061,-1.1434,-1.153,-1.1678,-1.2087,-1.2191,-1.2394,-1.2786,0.0,0.0,0.0,0.0,0.0,-1.3952,-1.3424,-1.3119,-1.3119,-1.3119,-1.3042,-1.2913,-1.3411,-1.346,-1.2945,-1.3569,-1.3648,-1.3102,-1.3792,-1.5146,-1.7117,-1.7806,-1.9208,-2.1098,-1.9083,-1.9409,-2.1443,-2.1945,-2.1895,-2.1669,-2.3276,-2.3653,-2.3622,-2.7383,-2.7896,0.0,-2.7028,-2.6425,0.0,-2.4092,0.0,0.0,0.0,-1.8238,-1.6095,-1.55,-1.5776,-1.6401,0.0,0.0,0.0,0.0,0.0,0.0,0.0,0.0,0.0,0.0,0.0,0.0,0.0,0.0,0.0,0.0,0.0,0.0,0.0,0.0,0.0,0.0,0.0,0.0,0.0,0.0,0.0,0.0,0.0,-3.469,-3.5334,-3.5363,-3.5654,-3.6228,-3.6257,-3.6286,-3.6286,-3.6954,-3.7273,-3.7273,-3.7854,-3.8144,-3.8173,-3.8173,-3.8173,-3.8202,-3.8202,-3.8202,-3.8202,-3.8202,-3.8202,-3.8202,-3.8202,-3.8202,-3.8202,-3.8202,-3.8202,-3.8202,-1.079,-1.1195,-1.1503,-1.1621,-1.2216,-1.2798,-1.3196,-1.3274,-1.3431,0.0,0.0,0.0,-1.4196,-1.4338,-1.4406,-1.4356,-1.384,-1.3582,-1.3672,-1.3353,-1.3163,-1.3129,-1.3688,-1.3876,-1.3636,-1.4199,-1.4143,-1.3448,-1.4143,-1.4552,-1.4755,-1.5819,-1.7082,-1.8457,-1.8281,-1.8756,-1.961,-1.8556,-1.986,-2.2619,-2.2322,-2.3778,-2.6214,0.0,0.0,0.0,0.0,-2.7698,-2.6714,0.0,-2.47,-2.2432,0.0,-1.7796,-1.6474,-1.6287,-1.6907,-1.7592,-1.7272,0.0,0.0,0.0,0.0,0.0,0.0,0.0,0.0,0.0,0.0,0.0,0.0,0.0,0.0,0.0,0.0,0.0,0.0,0.0,0.0,0.0,0.0,0.0,0.0,0.0,0.0,0.0,-3.4399,-3.4486,-3.4661,-3.469,-3.4748,-3.4922,-3.5386,-3.5654,-3.5654,-3.6257,-3.6577,-3.6577,-3.6751,-3.7099,-3.7564,-3.7564,-3.7796,-3.8202,-3.8202,-3.8202,-3.8202,-3.8202,-3.8202,-3.8202,-3.8202,-3.8202,-3.8202,-3.8202,-3.8202,-3.8202,-1.1583,-1.1989,-1.2375,-1.2962,-1.3519,-1.4044,-1.4507,-1.4408,-1.4328,0.0,0.0,0.0,-1.5239,-1.5526,-1.552,-1.5167,-1.443,-1.3931,-1.3766,-1.3526,-1.3346,-1.3335,-1.389,-1.4143,-1.4072,-1.4627,-1.4489,-1.3593,-1.4004,-1.4061,-1.3791,-1.475,-1.5554,-1.6264,-1.6542,-1.7137,-1.7833,-1.6382,-1.8207,-2.2196,-2.3175,-2.4815,0.0,-2.7555,-2.8373,0.0,0.0,0.0,-2.7957,-2.7855,-2.5986,0.0,-2.0465,-1.8897,-1.7903,-1.6892,-1.7757,-1.8855,-1.8158,-1.8927,-1.9943,0.0,0.0,0.0,0.0,0.0,0.0,0.0,0.0,0.0,0.0,0.0,0.0,0.0,0.0,0.0,0.0,0.0,0.0,0.0,0.0,0.0,0.0,0.0,0.0,0.0,-3.4399,-3.4399,-3.4399,-3.4399,-3.4399,-3.4399,-3.4777,-3.498,-3.498,-3.559,-3.5909,-3.5909,-3.617,-3.6519,-3.6896,-3.6896,-3.7244,-3.7825,-3.7825,-3.797,-3.8202,-3.8202,-3.8202,-3.8202,-3.8202,-3.8202,-3.8202,-3.8202,-3.8202,-3.8202,0.0,-1.3033,-1.3466,-1.4799,-1.5111,-1.5372,-1.5994,-1.5612,-1.5325,0.0,-1.5492,-1.59,-1.6931,-1.7363,-1.7243,-1.6395,-1.525,-1.4371,-1.3909,-1.369,-1.3599,-1.3615,-1.4075,-1.4365,-1.4393,-1.4962,-1.4785,-1.3769,-1.3771,-1.3784,-1.3784,-1.4263,-1.4528,-1.4597,-1.4671,-1.5274,-1.6246,-1.555,-1.7385,-2.1039,-2.4538,-2.5887,0.0,0.0,-2.9051,-2.8423,-2.9428,-2.9478,-2.8963,-2.8838,-2.7043,-2.44,-2.2062,-2.0968,0.0,0.0,-1.8594,-2.015,-1.9492,-2.0267,-2.1433,0.0,0.0,0.0,-2.3635,-2.3496,0.0,0.0,0.0,0.0,0.0,0.0,0.0,0.0,0.0,0.0,0.0,0.0,0.0,0.0,0.0,0.0,0.0,0.0,-3.4399,-3.4399,-3.4399,-3.4399,-3.4399,-3.4399,-3.4399,-3.4399,-3.4399,-3.4399,-3.4399,-3.5014,-3.5305,-3.5305,-3.5822,-3.6141,-3.6199,-3.6199,-3.6606,-3.7302,-3.7302,-3.7651,-3.8202,-3.8202,-3.8202,-3.8202,-3.8202,-3.8202,-3.8202,-3.8202,-3.8202,-3.8202,-1.3351,-1.3866,-1.4329,-1.5033,-1.5792,-1.6619,-1.7579,-1.7267,-1.7243,-1.8109,-1.859,-1.9119,-1.9741,-1.9143,-1.859,-1.8423,-1.6735,-1.5641,-1.5541,-1.4362,-1.3863,-1.4303,-1.4445,-1.4694,-1.5007,-1.5563,-1.5496,-1.4742,-1.4369,-1.4211,-1.4245,-1.3928,-1.4121,-1.47,-1.5085,-1.5402,-1.5806,-1.7864,-1.9603,-2.1029,-2.206,0.0,-2.7515,-2.8186,-2.8875,-2.9503,-2.9704,-2.9729,-2.9478,0.0,-2.7314,-2.5727,0.0,0.0,0.0,0.0,0.0,0.0,0.0,0.0,0.0,0.0,0.0,0.0,0.0,-2.1605,0.0,0.0,0.0,0.0,0.0,0.0,0.0,0.0,0.0,0.0,0.0,0.0,0.0,0.0,0.0,0.0,0.0,0.0,-3.4399,-3.4399,-3.4399,-3.4399,-3.4399,-3.4399,-3.4399,-3.4399,-3.4399,-3.4399,-3.4399,-3.4545,-3.4603,-3.4603,-3.4719,-3.5038,-3.5595,-3.5595,-3.6199,-3.7302,-3.7302,-3.7651,-3.8202,-3.8202,-3.8202,-3.8202,-3.8202,-3.8202,-3.8202,-3.8202,-3.8202,-3.8202,-1.4169,-1.4567,-1.5082,-1.6127,-1.6693,-1.746,-1.8782,-1.8542,-1.859,-1.9672,-2.073,-2.1193,-2.0658,-2.0586,-2.0153,-1.9095,-1.7846,-1.676,-1.5941,-1.5163,-1.4748,-1.4748,-1.4768,-1.5035,-1.548,-1.5746,-1.5582,-1.5013,-1.4522,-1.4215,-1.4007,-1.3968,-1.4444,-1.5327,-1.5243,-1.5828,-1.699,-1.76,-1.893,-2.0797,-2.2934,0.0,-2.7767,-2.8387,-2.901,-2.9599,-2.9507,-2.9546,-2.9424,-2.8436,-2.7544,0.0,0.0,-2.4109,-2.3897,0.0,-2.2296,-2.3091,0.0,0.0,0.0,-2.2178,0.0,0.0,0.0,0.0,0.0,0.0,0.0,0.0,0.0,0.0,0.0,0.0,0.0,0.0,0.0,0.0,0.0,0.0,0.0,0.0,0.0,0.0,-3.4399,-3.4399,-3.4399,-3.4399,-3.4399,-3.4399,-3.4399,-3.4399,-3.4399,-3.4399,-3.4399,-3.4399,-3.4399,-3.4399,-3.4399,-3.4574,-3.4893,-3.4893,-3.5415,-3.6344,-3.6664,-3.7157,-3.7767,-3.8086,-3.8202,-3.8202,-3.8202,-3.8202,-3.8202,-3.8202,-3.8202,-3.8202,-1.5029,-1.5186,-1.566,-1.7027,-1.7436,-1.8061,-1.9579,-1.9504,-1.972,-2.0923,-2.2438,-2.2999,-2.1795,-2.2246,-2.2029,-2.049,-1.9408,-1.8252,-1.6955,-1.638,-1.5948,-1.5636,-1.5229,-1.5348,-1.609,-1.5922,-1.5588,-1.5157,-1.457,-1.4152,-1.3871,-1.4152,-1.4849,-1.5835,-1.568,-1.6641,-1.8334,-1.7338,-1.8532,-2.132,0.0,-2.6276,-2.7041,-2.8357,-2.8927,-2.9043,-2.9135,-2.9263,-2.9269,-2.8525,0.0,-2.7212,-2.5628,-2.5528,0.0,0.0,0.0,0.0,0.0,0.0,0.0,0.0,0.0,-2.3378,0.0,0.0,0.0,-2.3751,0.0,0.0,0.0,0.0,0.0,0.0,0.0,0.0,0.0,0.0,0.0,0.0,0.0,0.0,0.0,0.0,-3.3703,-3.4196,-3.3877,-3.3877,-3.4399,-3.4399,-3.4399,-3.4399,-3.4399,-3.4399,-3.4399,-3.4399,-3.4399,-3.4399,-3.4399,-3.4399,-3.4399,-3.4399,-3.4748,-3.5421,-3.5909,-3.6577,-3.7331,-3.7825,-3.8115,-3.8202,-3.8202,-3.8202,-3.8202,-3.8202,-3.8202,-3.8202,-1.5686,-1.5712,-1.5927,-1.6595,-1.7459,-1.8494,-1.9627,-2.0153,-2.0971,-2.251,-2.4073,-2.5155,-2.5444,-2.4747,-2.453,-2.5228,-2.2678,-2.0971,-2.0779,-1.854,-1.7387,-1.782,-1.5996,-1.5684,-1.7171,-1.6307,-1.5756,-1.5708,-1.4763,-1.4474,-1.4842,-1.4474,-1.4655,-1.5368,-1.7074,-1.8039,-1.848,-1.9718,-2.1692,0.0,-2.4696,-2.4841,0.0,-2.7196,-2.7903,-2.7853,-2.8955,-2.938,-2.9319,0.0,-2.8537,-2.7965,0.0,-2.6862,0.0,0.0,0.0,0.0,0.0,0.0,0.0,0.0,-2.586,0.0,0.0,0.0,-2.3862,-2.1859,0.0,0.0,0.0,0.0,0.0,0.0,0.0,0.0,0.0,0.0,0.0,0.0,0.0,0.0,0.0,0.0,0.0,-3.3445,-3.2021,-3.2019,-3.4283,-3.4399,-3.4399,-3.4399,-3.4399,-3.4399,-3.4399,-3.4399,-3.4399,-3.4399,-3.4399,-3.4399,-3.4399,-3.4399,-3.4748,-3.5392,-3.5479,-3.617,-3.7302,-3.7389,-3.7738,-3.8202,-3.8202,-3.8202,-3.8202,-3.8202,-3.8202,-3.8202,-1.576,-1.5804,-1.5948,-1.6499,-1.7219,-1.8205,-1.9603,-2.1813,-2.3568,-2.4242,-2.5733,-2.6671,-2.6561,-2.6153,-2.5817,-2.5661,0.0,-2.3159,0.0,0.0,-1.9696,-1.96,-1.782,-1.7171,-1.7845,-1.6811,-1.6092,-1.5804,-1.5058,-1.4818,-1.5013,-1.4794,-1.5678,-1.7436,-1.7966,-1.9435,-2.1517,-2.1252,-2.1976,0.0,0.0,0.0,0.0,-2.7225,-2.8198,-2.8183,-2.8959,-2.9248,-2.9139,0.0,-2.8226,0.0,0.0,0.0,0.0,0.0,0.0,0.0,0.0,0.0,0.0,0.0,0.0,0.0,0.0,0.0,-2.2305,0.0,0.0,0.0,0.0,0.0,0.0,0.0,0.0,0.0,0.0,0.0,0.0,0.0,0.0,0.0,0.0,0.0,0.0,0.0,0.0,-3.0974,-3.3177,-3.3674,-3.4022,-3.4399,-3.4399,-3.4399,-3.4399,-3.4399,-3.4399,-3.4399,-3.4399,-3.4399,-3.4399,-3.4399,-3.4545,-3.4835,-3.5247,-3.588,-3.6751,-3.7157,-3.768,-3.8202,-3.8202,-3.8202,-3.8202,-3.8202,-3.8202,-3.8202,-1.5951,-1.59,-1.5948,-1.6499,-1.7171,-1.8253,-2.0181,-2.2967,-2.4987,-2.5276,-2.6561,-2.7498,-2.7546,-2.7546,0.0,0.0,-2.6743,-2.5685,0.0,0.0,-2.2077,-2.1692,-1.9865,0.0,-1.9071,-1.7748,-1.6715,-1.6018,-1.5325,-1.5085,-1.5229,-1.5085,-1.6211,-1.835,-1.871,-2.0538,-2.3336,0.0,-2.3103,-2.4168,-2.5022,-2.5515,-2.5888,-2.7767,-2.8634,-2.8915,-2.9154,-2.9135,-2.8905,-2.8187,-2.7978,0.0,-2.7841,0.0,0.0,0.0,0.0,0.0,-2.6615,0.0,0.0,0.0,0.0,0.0,0.0,0.0,0.0,0.0,0.0,0.0,0.0,0.0,0.0,0.0,0.0,0.0,0.0,0.0,0.0,0.0,0.0,0.0,0.0,0.0,0.0,0.0,0.0,0.0,-3.2367,-3.2948,-3.3587,-3.4399,-3.4399,-3.4399,-3.4399,-3.4399,-3.4399,-3.4399,-3.4399,-3.4399,-3.4399,-3.4399,-3.4399,-3.4428,-3.4893,-3.5508,-3.6112,-3.6751,-3.7389,-3.797,-3.8144,-3.8202,-3.8202,-3.8202,-3.8202,-3.8202,-1.6571,-1.6163,-1.5948,-1.6499,-1.7459,-1.9071,-2.1716,-2.3119,-2.4203,-2.518,-2.6225,0.0,0.0,0.0,0.0,0.0,0.0,-2.8931,-2.8354,0.0,-2.4376,-2.4386,0.0,-2.0779,0.0,-1.9239,-1.7652,-1.6571,-1.5516,-1.5277,-1.5756,-1.5253,-1.5588,-1.6787,-1.9357,-2.1187,-2.2366,-2.4338,-2.6406,-2.8258,-2.7801,-2.8522,-2.9773,0.0,-2.9052,-2.9837,-2.965,0.0,0.0,-2.8415,-2.8027,0.0,0.0,0.0,0.0,0.0,0.0,0.0,0.0,0.0,0.0,-2.5485,0.0,0.0,0.0,0.0,-2.3474,0.0,0.0,0.0,0.0,0.0,-2.1844,-2.124,0.0,0.0,0.0,0.0,0.0,0.0,0.0,0.0,0.0,0.0,0.0,0.0,0.0,0.0,-3.222,-3.251,-3.3122,-3.437,-3.4399,-3.4399,-3.4399,-3.4399,-3.4399,-3.4399,-3.4399,-3.4399,-3.4399,-3.4399,-3.4399,-3.4399,-3.4428,-3.4806,-3.5479,-3.6083,-3.6722,-3.7389,-3.797,-3.8202,-3.8202,-3.8202,-3.8202,-3.8202,-1.7676,-1.7507,-1.7315,-1.7147,-1.8013,-1.9744,-2.2806,-2.441,-2.5949,0.0,0.0,0.0,0.0,-3.1408,-3.1721,0.0,0.0,-3.1023,-3.0134,-2.8258,0.0,0.0,0.0,-2.3247,0.0,0.0,-1.9624,-1.8205,-1.7459,-1.7027,-1.6859,-1.6307,-1.6811,-1.8253,-1.9889,-2.1765,0.0,0.0,0.0,0.0,0.0,-2.9412,-3.1067,0.0,0.0,-3.0029,-2.9987,-2.9666,0.0,-2.9212,-2.8675,-2.8114,-2.8362,-2.8145,-2.7828,-2.8,-2.8114,0.0,0.0,0.0,-2.8487,-2.6866,0.0,0.0,0.0,0.0,0.0,0.0,0.0,0.0,0.0,0.0,-2.1505,-2.1271,-2.0548,-1.9762,0.0,0.0,0.0,0.0,0.0,0.0,0.0,0.0,0.0,0.0,-2.572,0.0,0.0,-3.1785,-3.2919,-3.3794,-3.4196,-3.4399,-3.4399,-3.4399,-3.4399,-3.4399,-3.4399,-3.4399,-3.4399,-3.4399,-3.4399,-3.4399,-3.4399,-3.5009,-3.5996,-3.6228,-3.6925,-3.7912,-3.8115,-3.8202,-3.8202,-3.8202,-3.8202,-3.8202,-1.8758,-1.8758,-1.859,-1.8061,-1.9167,-2.1019,-2.364,-2.554,0.0,0.0,-2.9917,0.0,-3.2611,0.0,-3.2923,0.0,-3.3164,-3.2515,-3.1284,-3.0206,0.0,-2.9581,-2.7416,0.0,0.0,-2.3785,-2.1716,-1.9579,-1.9023,-1.8398,-1.7676,-1.7123,-1.7556,-1.8782,-2.0249,-2.2029,-2.4121,-2.6441,-2.7666,0.0,0.0,-3.0446,0.0,0.0,-3.0518,-3.0374,0.0,-3.0097,-2.9738,-2.9544,-2.9116,-2.866,-2.8743,-2.8407,-2.8033,-2.8299,-2.833,-2.8323,-2.8708,-2.8859,0.0,-2.7512,-2.6317,0.0,-2.3015,0.0,0.0,0.0,0.0,0.0,0.0,0.0,-2.1637,-2.1586,-2.0436,-1.9275,0.0,0.0,0.0,0.0,0.0,0.0,0.0,0.0,-2.2649,-2.4413,-2.4675,0.0,0.0,0.0,-3.2338,-3.3474,-3.408,-3.4399,-3.4399,-3.4399,-3.4399,-3.4399,-3.4399,-3.4399,-3.4399,-3.4399,-3.4399,-3.4399,-3.4399,-3.5009,-3.5996,-3.6199,-3.6925,-3.7912,-3.8115,-3.8014,-3.7758,-3.8089,-3.8202,-3.8202,-1.9916,-1.9965,-1.9844,-1.936,-2.0923,0.0,0.0,0.0,-2.8098,0.0,-3.0326,-3.1577,-3.3188,-3.3356,-3.3765,-3.4703,-3.4318,0.0,-3.1958,-3.1813,0.0,0.0,-2.9701,-2.8907,-2.7858,-2.6214,0.0,0.0,-2.0181,-1.9338,-1.8301,-1.7724,-1.7748,-1.8326,-2.0442,-2.1981,-2.3288,-2.6887,-2.91,-3.0206,-3.1284,-3.1717,-3.1717,-3.1717,-3.1404,-3.0946,-3.0946,-3.0567,-3.0037,-2.9532,-2.9364,-2.9285,-2.893,-2.884,-2.8879,-2.9013,-2.9091,-2.9091,-2.9091,-2.9091,-2.8762,-2.7457,0.0,0.0,0.0,0.0,-2.5352,0.0,0.0,0.0,0.0,0.0,0.0,-2.2124,-2.0732,-1.9255,0.0,0.0,0.0,0.0,0.0,0.0,0.0,0.0,-2.117,-2.3601,-2.3258,-2.4592,0.0,0.0,-3.144,-3.3329,-3.4051,-3.4399,-3.4399,-3.4399,-3.4366,-3.4332,-3.4366,-3.4366,-3.4332,-3.4332,-3.4332,-3.4332,-3.4327,-3.4703,-3.5375,-3.5977,-3.6642,-3.7345,-3.7895,-3.7644,-3.7,-3.7834,-3.8127,-3.8127,-2.1572,-2.2228,-2.2855,0.0,-2.3256,-2.4025,0.0,0.0,0.0,0.0,-3.1649,-3.2683,-3.427,-3.4438,-3.4535,-3.4751,-3.4655,0.0,0.0,0.0,0.0,-3.302,-3.1384,-3.035,-3.0062,-2.732,0.0,-2.4097,0.0,-2.0249,-1.9965,-1.8614,-1.8277,-1.8855,-2.0201,-2.1837,-2.377,-2.6262,-2.8619,-3.0735,-3.1452,-3.1717,0.0,0.0,-3.1621,-3.15,-3.15,-3.1163,-3.0663,-3.0561,-3.0206,-2.9797,-2.9325,-2.9181,-2.9084,-2.8738,-2.8776,-2.8895,-2.8895,-2.9013,-2.8993,-2.8653,-2.7569,-2.6417,0.0,0.0,0.0,0.0,0.0,0.0,0.0,0.0,0.0,-2.1882,-2.0269,-1.902,0.0,0.0,0.0,0.0,0.0,0.0,0.0,-2.0525,-2.142,-2.2417,-2.3194,-2.4704,0.0,0.0,0.0,-3.199,-3.3587,-3.4399,-3.4399,-3.4399,-3.4128,-3.352,-3.4099,-3.4094,-3.352,-3.352,-3.352,-3.3514,-3.3362,-3.3661,-3.4306,-3.4875,-3.5868,-3.6995,-3.7175,-3.7106,-3.6922,-3.7144,-3.7222,-3.7337,-2.3159,0.0,0.0,-2.5841,0.0,0.0,-2.7825,0.0,0.0,-3.1452,-3.2346,0.0,-3.4054,-3.4559,-3.4775,-3.4775,-3.4775,0.0,0.0,0.0,0.0,-3.3717,-3.2779,-3.2058,-3.1601,-2.9364,0.0,-2.53,0.0,-2.138,-2.023,-1.9071,-1.859,-1.871,-2.0273,-2.174,-2.3336,-2.6574,-2.91,-3.097,-3.15,0.0,0.0,-3.1717,-3.1717,-3.1717,-3.1717,-3.1524,-3.1235,-3.0995,-3.073,-3.035,-2.9821,-2.9484,-2.9244,-2.8955,-2.8771,-2.8657,-2.8657,-2.8736,-2.8855,-2.8973,-2.8187,-2.737,-2.7091,-2.7066,-2.6966,0.0,0.0,0.0,0.0,0.0,0.0,0.0,0.0,0.0,0.0,0.0,0.0,0.0,0.0,0.0,0.0,-1.9896,-2.0933,-2.1262,-2.2409,-2.3681,0.0,0.0,0.0,-3.0695,-3.288,-3.4138,-3.4399,-3.4031,-3.3624,-3.3213,-3.3659,-3.3624,-3.3213,-3.3555,-3.352,-3.3206,-3.3384,-3.3584,-3.3946,-3.4504,-3.535,-3.6306,-3.5936,-3.5816,-3.5816,-3.5816,-3.6016,-3.6385,-2.4712,0.0,0.0,0.0,0.0,0.0,0.0,-3.0206,0.0,-3.1982,0.0,-3.3693,-3.3693,-3.4487,-3.504,-3.504,0.0,-3.4559,-3.3645,-3.4366,-3.4438,-3.3525,-3.379,-3.3574,-3.2731,-3.136,0.0,0.0,0.0,-2.2325,-1.9892,-1.9263,-1.871,-1.8301,-2.037,-2.1813,0.0,-2.7416,-2.9917,-3.097,-3.15,-3.1717,-3.1717,-3.1717,-3.1717,-3.1717,-3.1717,-3.1717,-3.1645,-3.1187,-3.1019,-3.0922,-3.035,-2.9869,-2.9484,-2.9436,-2.9027,-2.8619,-2.8619,-2.857,-2.8538,-2.8736,-2.8752,-2.8548,-2.78,-2.7655,-2.7655,-2.7655,-2.6895,-2.6747,0.0,0.0,0.0,0.0,0.0,0.0,0.0,0.0,0.0,0.0,0.0,0.0,0.0,-1.9118,-2.0043,-2.0182,-2.1105,-2.2042,0.0,0.0,0.0,-2.9597,-3.2166,0.0,-3.4065,0.0,-3.3108,-3.2897,-3.3003,-3.3003,-3.2932,-3.3624,-3.3612,-3.3036,-3.3531,-3.3721,-3.3707,-3.4258,-3.4875,-3.5386,-3.4662,-3.4397,-3.4397,-3.4272,-3.4662,-3.5305,0.0,0.0,0.0,0.0,0.0,-3.1693,-3.2466,-3.2683,-3.3092,-3.415,-3.5208,-3.5857,-3.5857,-3.6026,-3.6122,-3.6122,-3.5737,0.0,0.0,0.0,0.0,-3.451,-3.4174,-3.391,-3.3718,-3.1023,-2.9051,0.0,-2.4266,-2.1795,-2.0446,-1.9459,-1.871,-1.8277,-1.9985,-2.2486,-2.5588,-2.8186,0.0,-3.097,-3.15,-3.1717,-3.1717,-3.1717,-3.1717,-3.1717,-3.1717,-3.1717,-3.1693,-3.1597,-3.1573,-3.1476,-3.0946,-3.0706,-3.0518,-3.0086,-2.9581,-2.9148,-2.9148,-2.8835,-2.8498,-2.8538,-2.8538,-2.849,-2.8361,-2.8445,-2.8563,-2.8563,-2.8417,-2.8163,-2.7864,0.0,0.0,0.0,0.0,0.0,0.0,0.0,0.0,0.0,0.0,0.0,0.0,0.0,-1.9162,-1.9083,-1.9558,0.0,0.0,0.0,0.0,0.0,0.0,0.0,0.0,0.0,-3.2577,-3.1304,-3.1965,-3.1965,-3.1304,-3.1452,-3.1655,-3.197,-3.1914,-3.2107,-3.2546,-3.3131,-3.3901,-3.4579,-3.4481,-3.4397,-3.4314,-3.3581,-3.3411,-3.3768,0.0,0.0,0.0,0.0,0.0,0.0,0.0,-3.4968,0.0,-3.4871,-3.528,-3.5593,-3.5593,-3.6074,-3.6411,-3.6411,-3.617,-3.6026,-3.6026,-3.5521,-3.5183,-3.5183,-3.4679,0.0,-3.4006,-3.201,-3.0158,-2.8522,-2.5348,-2.2847,-2.0971,-1.9941,-1.9119,-1.871,-2.0875,-2.3592,0.0,0.0,0.0,-3.0995,-3.1769,-3.1958,-3.1741,-3.203,-3.1958,-3.1717,-3.1717,-3.1717,-3.1717,-3.1717,-3.1717,-3.1669,-3.1404,-3.1139,-3.0874,-3.0567,-3.0134,-2.9653,-2.9364,-2.91,-2.8859,-2.857,-2.8522,-2.8522,-2.8522,-2.8578,-2.8657,-2.8657,-2.8657,-2.8343,-2.7392,-2.6177,0.0,0.0,0.0,0.0,0.0,0.0,0.0,0.0,0.0,0.0,0.0,0.0,0.0,0.0,0.0,0.0,0.0,0.0,0.0,0.0,0.0,0.0,0.0,0.0,0.0,-3.0895,-3.1304,-3.1267,-3.0932,-3.1341,-3.1585,-3.1707,-3.1911,-3.2097,-3.2265,-3.2842,-3.3368,-3.3751,-3.3751,-3.3751,-3.3641,-3.324,-3.3111,-3.324,0.0,-3.2223,0.0,0.0,-3.4054,0.0,-3.5665,-3.6675,-3.6916,-3.5665,-3.5497,-3.5497,-3.5497,-3.6242,-3.6747,-3.6747,-3.6627,-3.6579,-3.6579,-3.6074,-3.5785,-3.5785,-3.528,-3.4751,-3.4342,-3.326,-3.1408,0.0,0.0,-2.4314,-2.1716,-2.0783,-2.023,-2.0105,-2.2438,0.0,0.0,0.0,-3.0326,-3.1456,-3.2322,-3.2394,-3.2102,-3.2491,-3.2394,-3.2054,-3.1934,-3.1886,-3.1862,-3.1741,-3.1717,-3.1717,-3.1717,-3.1428,-3.1091,-3.1091,-3.0663,-3.0158,-2.9749,-2.946,-2.9196,-2.8787,-2.8595,-2.8522,-2.8522,-2.8522,-2.8522,-2.8522,-2.8522,-2.8186,-2.709,-2.6541,0.0,0.0,0.0,0.0,0.0,0.0,0.0,0.0,0.0,0.0,0.0,0.0,0.0,0.0,0.0,0.0,0.0,0.0,0.0,0.0,0.0,-3.0045,-3.1225,0.0,-3.0782,0.0,-3.0594,-3.0594,-3.0696,-3.1437,-3.1732,-3.1656,-3.2251,-3.248,-3.2441,-3.2893,-3.3111,-3.3111,-3.3111,-3.3111,-3.3111,-3.3111,-3.3111,-3.3111,0.0,0.0,0.0,0.0,0.0,0.0,0.0,-3.7228,-3.7853,-3.7709,-3.7685,-3.7685,-3.7685,-3.7781,-3.7829,-3.7829,-3.7397,-3.7132,-3.7132,-3.6627,-3.6338,-3.6338,-3.5833,-3.5521,-3.5473,-3.3982,-3.213,0.0,0.0,0.0,-2.2855,-2.2246,-2.2493,-2.3408,-2.4554,0.0,0.0,-3.0254,-3.1625,-3.3068,-3.3164,-3.3188,-3.314,-3.3188,-3.3188,-3.3068,-3.2587,-3.2418,-3.2346,-3.1886,-3.1717,-3.1717,-3.1717,-3.1669,-3.1645,-3.1645,-3.1259,-3.0826,-3.0735,-3.0037,-2.9292,-2.9244,-2.8859,-2.8522,-2.8522,-2.8522,-2.8522,-2.8522,-2.8522,-2.8186,-2.709,-2.7633,-2.7599,0.0,0.0,0.0,0.0,0.0,0.0,0.0,0.0,0.0,0.0,0.0,0.0,0.0,0.0,0.0,0.0,0.0,0.0,-2.5378,0.0,-2.9156,-2.8504,-2.9917,0.0,-2.9895,-2.9651,-2.9677,-2.992,-3.0503,-3.1008,-3.1458,-3.2012,-3.255,-3.2993,-3.3086,-3.3111,-3.3111,-3.3111,-3.3111,-3.3111,-3.3111,-3.3111,-3.3111,0.0,0.0,0.0,0.0,0.0,0.0,0.0,-3.7709,-3.7974,-3.7974,-3.7974,-3.7974,-3.7974,-3.7974,-3.7974,-3.7974,-3.7781,-3.7661,-3.7661,-3.718,-3.6867,-3.6867,-3.6362,-3.593,-3.5617,-3.4703,-3.3332,0.0,0.0,0.0,0.0,-2.4458,-2.4795,-2.619,0.0,-2.8835,-3.0802,-3.1529,-3.2418,-3.3308,-3.3621,-3.3549,-3.3308,-3.3621,-3.3549,-3.326,-3.3044,-3.2971,-3.2947,-3.2707,-3.2247,-3.1717,-3.1717,-3.1717,-3.1717,-3.1717,-3.1548,-3.1332,-3.0995,-3.0567,-3.0086,-2.946,-2.9148,-2.8907,-2.857,-2.8522,-2.8522,-2.8522,-2.8522,-2.8378,-2.7969,-2.7666,-2.745,0.0,0.0,0.0,0.0,0.0,0.0,0.0,0.0,0.0,0.0,0.0,0.0,0.0,0.0,0.0,0.0,0.0,0.0,-2.4429,0.0,-2.784,-2.7939,-2.9101,-2.9574,-2.939,-2.9287,-2.946,-2.9886,-3.0084,-3.0654,-3.1497,-3.2067,-3.2438,-3.2705,-3.281,-3.2853,-3.2896,-3.3025,-3.2982,-3.2853,-3.2853,-3.2766,-3.2705,-3.6603,0.0,-3.593,0.0,-3.6819,-3.6699,-3.7805,-3.7974,-3.7974,-3.7974,-3.7974,-3.7974,-3.7974,-3.7974,-3.7974,-3.7974,-3.7974,-3.7974,-3.7974,-3.7637,-3.7421,-3.7421,-3.6916,0.0,-3.6098,-3.5569,-3.4535,-3.2947,-3.1288,0.0,0.0,-2.7152,-2.7416,0.0,-2.9581,-3.0783,-3.2223,-3.2731,-3.326,-3.3765,-3.4078,-3.4054,-3.3789,-3.4078,-3.4054,-3.3717,-3.3573,-3.3501,-3.3477,-3.3332,-3.2779,-3.2151,-3.1961,-3.1837,-3.1717,-3.1717,-3.1717,-3.1621,-3.1259,-3.1043,-3.073,-2.9941,-2.9532,-2.9196,-2.8835,-2.8619,-2.8522,-2.8522,-2.8522,-2.8522,-2.8522,-2.7858,-2.7498,-2.7969,0.0,0.0,0.0,0.0,0.0,0.0,0.0,-2.0113,0.0,0.0,0.0,0.0,0.0,0.0,0.0,0.0,0.0,0.0,0.0,0.0,0.0,-2.859,-2.9052,-2.9091,-2.9052,-2.9322,-2.9901,-3.0221,-3.0883,-3.1767,-3.2228,-3.24,-3.24,-3.255,-3.2593,-3.2636,-3.2896,-3.281,-3.2636,-3.268,-3.255,-3.24,-3.7084,-3.718,-3.7324,-3.7878,-3.795,-3.795,-3.7974,-3.7974,-3.7974,-3.7974,-3.7974,-3.7974,-3.7974,-3.7974,-3.7974,-3.7974,-3.7974,-3.7974,-3.7974,-3.7974,-3.7974,0.0,0.0,-3.718,-3.718,-3.6651,-3.5617,-3.3982,0.0,0.0,-3.085,-3.0278,-3.0326,-3.0898,-3.1452,-3.2295,-3.3308,-3.3766,-3.427,-3.4751,-3.4775,-3.4775,-3.4751,-3.4775,-3.4775,-3.4703,-3.4174,-3.3982,-3.391,-3.3452,-3.3284,-3.3188,-3.2659,-3.2106,-3.1717,-3.1717,-3.1717,-3.1717,-3.1693,-3.1308,-3.0922,-3.0898,-3.0062,-2.9292,-2.9292,-2.8883,-2.8522,-2.8522,-2.8522,-2.8522,-2.8522,-2.8498,-2.8162,-2.709,0.0,0.0,0.0,0.0,0.0,0.0,0.0,-1.982,-1.9796,0.0,0.0,0.0,0.0,0.0,0.0,0.0,0.0,-2.5484,-2.6834,0.0,-2.7471,-2.8397,-2.887,-2.9091,-2.887,-2.9203,-2.9926,-3.1006,-3.1792,-3.2376,-3.24,-3.24,-3.24,-3.24,-3.24,-3.2444,-3.2636,-3.2593,-3.2444,-3.2636,-3.255,-3.24,-3.7685,-3.7733,-3.7781,-3.795,-3.831,-3.8431,-3.8046,-3.831,-3.8407,-3.8046,-3.7974,-3.7974,-3.7974,-3.7974,-3.7974,0.0,-3.7974,-3.7974,0.0,-3.7974,-3.7974,-3.7974,-3.7829,-3.7565,-3.7204,-3.7036,-3.6507,-3.5665,0.0,0.0,0.0,-3.1817,-3.2202,-3.3044,-3.3212,-3.3669,-3.4342,-3.4462,-3.4631,-3.4775,-3.4775,-3.4775,-3.4775,-3.4775,-3.4775,-3.4751,-3.4583,-3.4534,-3.451,-3.439,-3.4102,-3.3765,-3.355,-3.2947,-3.2226,-3.2226,-3.2006,-3.1717,-3.1717,-3.1597,-3.138,-3.0995,-3.0615,-3.0182,-2.946,-2.8883,-2.8522,-2.8522,-2.8522,-2.8522,-2.8522,-2.8522,-2.8402,-2.8065,-2.7993,0.0,0.0,0.0,0.0,0.0,0.0,-2.1284,0.0,-2.0586,0.0,0.0,0.0,0.0,0.0,0.0,0.0,0.0,-2.6591,0.0,-2.7272,-2.8164,-2.8618,-2.8697,-2.898,-2.9673,-3.061,-3.1312,-3.1724,-3.1937,-3.1937,-3.1937,-3.1937,-3.2069,-3.2113,-3.2157,-3.2376,-3.2332,-3.2138,-3.2201,-3.2113,-3.1937,-3.8599,-3.8599,-3.8599,-3.8599,-3.8888,-3.9008,-3.8647,-3.8888,-3.8984,-3.8647,-3.8431,-3.8286,-3.8286,-3.8118,0.0,-3.7974,-3.7974,-3.7974,-3.7974,-3.7974,-3.7974,-3.7974,-3.7974,-3.7829,-3.7493,0.0,0.0,-3.6699,-3.5521,-3.4607,-3.3958,-3.3765,-3.4006,-3.4583,-3.4366,-3.4462,-3.4775,-3.4775,-3.4775,-3.4775,-3.4775,-3.4775,-3.4775,-3.4775,-3.4775,-3.4775,-3.4775,-3.4775,-3.4775,-3.4775,-3.4558,-3.4294,-3.4294,-3.3718,-3.3044,-3.2851,-3.2418,-3.203,-3.203,-3.1862,-3.1621,-3.1308,-3.1067,-3.0591,-2.9532,-2.9051,-2.8739,-2.8546,-2.8522,-2.8522,-2.8522,-2.8522,-2.8522,-2.8522,-2.8065,-2.7498,0.0,0.0,0.0,0.0,0.0,0.0,0.0,-2.2221,0.0,0.0,0.0,0.0,0.0,0.0,0.0,-2.5484,-2.7107,0.0,-2.769,-2.8225,-2.8619,-2.8811,-2.9532,-3.023,-3.0946,-3.1476,-3.1717,-3.1717,-3.1717,-3.1717,-3.1717,-3.1849,-3.1893,-3.1893,-3.2157,-3.2069,-3.1893,-3.1981,-3.1893,-3.1717,-3.9609,-3.9609,0.0,0.0,-3.9633,0.0,-3.9609,-3.9633,-3.9657,-3.9609,-3.9176,-3.8864,-3.8864,-3.8383,-3.8046,-3.8046,0.0,0.0,0.0,-3.7974,-3.7974,-3.7974,-3.7974,-3.7974,-3.7974,-3.7974,-3.7733,-3.7204,-3.6699,-3.6435,-3.6386,-3.5905,-3.5665,-3.5641,-3.5111,-3.4895,-3.4895,-3.4895,-3.4871,-3.4847,-3.4847,-3.4799,-3.4775,-3.4775,-3.4775,-3.4775,-3.4775,-3.4775,-3.4775,-3.4775,-3.4775,-3.4775,-3.4775,-3.4438,-3.3958,-3.3501,-3.2971,-3.2539,-3.2515,-3.213,-3.1765,-3.1717,-3.1308,-3.0657,-2.9629,-2.934,-2.9148,-2.8667,-2.8546,-2.8522,-2.8522,-2.8522,-2.8498,-2.8474,-2.7978,-2.745,-2.6922,0.0,0.0,0.0,0.0,0.0,0.0,-2.3785,-2.4616,0.0,0.0,0.0,0.0,0.0,-2.5131,-2.7594,-2.8234,-2.8522,-2.8522,-2.8546,-2.8859,-2.9412,-3.0398,-3.0946,-3.0995,-3.1476,-3.1717,-3.1717,-3.1717,-3.1717,-3.1717,-3.1717,-3.1717,-3.1717,-3.1893,-3.1849,-3.1717,-3.1893,-3.1849,-3.1717,0.0,0.0,-3.9609,-3.9609,-3.9946,-4.0066,-3.9657,-3.9946,-4.0066,-3.9657,-3.9489,-3.9417,-3.9417,-3.8936,-3.8623,-3.8623,-3.8238,-3.7974,-3.7974,-3.7974,-3.7974,-3.7974,-3.7974,-3.7974,-3.7974,-3.7974,-3.7733,-3.7204,-3.706,-3.6795,-3.6411,-3.6266,-3.6218,-3.6218,-3.6098,-3.6026,-3.6026,-3.6026,-3.5785,-3.5425,-3.5425,-3.5184,-3.4775,-3.4775,-3.4775,-3.4775,-3.4775,-3.4775,-3.4775,-3.4775,-3.4775,-3.4775,-3.4775,-3.4703,-3.4486,-3.3958,-3.3501,-3.302,-3.2611,-3.2394,-3.2202,-3.1813,-3.1308,-3.0807,-3.0567,-2.9869,-2.9268,-2.9148,-2.8787,-2.8522,-2.8522,-2.8522,-2.8378,-2.7969,-2.7426,-2.6898,-2.6382,-2.5733,0.0,0.0,-2.53,-2.5276,-2.4626,-2.5625,-2.5817,0.0,0.0,0.0,0.0,-2.6238,-2.6647,-2.7642,-2.8234,-2.8522,-2.8522,-2.8907,-2.9581,-3.0494,-3.0802,-3.1139,-3.1524,-3.1645,-3.1717,-3.1717,-3.1717,-3.1717,-3.1717,-3.1717,-3.1717,-3.1717,-3.1761,-3.1761,-3.1717,-3.1761,-3.1761,-3.1717,-4.0331,-4.0331,-4.0331,-4.0331,-4.0571,-4.0667,-4.0379,-4.0571,-4.0643,-4.0355,-4.0114,-3.997,-3.997,-3.9489,-3.9176,-3.9176,-3.8455,-3.7974,-3.7974,-3.7974,-3.7974,-3.7974,-3.7974,-3.7974,-3.7974,-3.7974,-3.7829,-3.7565,-3.7565,-3.7397,-3.7132,-3.6867,-3.6771,-3.6747,-3.6507,-3.6411,-3.6411,-3.6411,-3.6242,-3.5978,-3.5978,-3.5809,-3.5545,-3.5545,-3.54,-3.5184,-3.5184,-3.504,-3.4775,-3.4775,-3.4775,-3.4775,-3.4775,-3.4775,-3.4727,-3.4438,-3.3982,-3.3573,-3.3284,-3.3044,-3.2731,-3.2178,-3.1649,-3.1211,-3.097,-3.0422,-2.9893,-2.9388,-2.9076,-2.8787,-2.857,-2.8522,-2.833,-2.7762,-2.745,-2.7066,-2.655,-2.6201,0.0,-2.6009,-2.6526,-2.6622,-2.6057,-2.6994,-2.7162,-2.6033,0.0,0.0,-2.72,-2.745,-2.7738,-2.8065,-2.8354,-2.8619,-2.8859,-2.9629,-3.0302,-3.0922,-3.1163,-3.1428,-3.1717,-3.1717,-3.1717,-3.1717,-3.1717,-3.1717,-3.1717,-3.1717,-3.1717,-3.1717,-3.1717,-3.1717,-3.1717,-3.1717,-3.1862,-3.2102,-4.1172,-4.1172,-4.1172,-4.1172,-4.1172,-4.1172,-4.1172,-4.1172,-4.1172,-4.1172,-4.0787,-4.0523,-4.0523,-4.0042,-3.9729,-3.9729,-3.8815,-3.819,-3.8118,-3.8022,-3.7974,-3.7974,-3.7974,-3.7974,-3.7974,-3.7974,-3.7974,-3.7974,-3.7974,-3.7974,-3.7974,-3.7517,-3.73,-3.73,-3.6843,-3.6651,-3.6651,-3.6651,-3.6603,-3.6531,-3.6531,-3.6483,-3.6411,-3.6411,-3.6122,-3.5737,-3.5737,-3.5449,-3.5015,-3.5015,-3.5016,-3.4895,-3.4895,-3.4895,-3.4775,-3.4775,-3.4462,-3.4102,-3.4006,-3.3669,-3.3164,-3.2635,-3.2154,-3.1693,-3.1163,-3.097,-3.0615,-2.9725,-2.9484,-2.9268,-2.8715,-2.8619,-2.8402,-2.7666,-2.7681,-2.7474,-2.6849,0.0,-2.7018,-2.7018,-2.7474,-2.7618,-2.7186,-2.7993,-2.833,-2.7873,-2.8258,-2.8522,0.0,-2.8595,-2.8619,-2.8619,-2.8619,-2.8931,-2.9532,-3.0422,-3.0946,-3.1043,-3.15,-3.1717,-3.1717,-3.1717,-3.1717,-3.1717,-3.1717,-3.1717,-3.1717,-3.1717,-3.1717,-3.1717,-3.1789,-3.1837,-3.1837,-3.1934,-3.2202,-3.2611,-4.1172,-4.1172,-4.1172,-4.1172,-4.1172,-4.1172,-4.1172,-4.1172,-4.1172,-4.1172,-4.1124,-4.1052,-4.1052,-4.0595,-4.0282,-4.0282,-3.9705,-3.9152,-3.8719,-3.8238,-3.7974,-3.7974,-3.7974,-3.7974,-3.7974,-3.7974,-3.7974,-3.7974,-3.7974,-3.7974,-3.7974,-3.7902,-3.7853,-3.7853,-3.7781,-3.7733,-3.7733,-3.7733,-3.7469,-3.706,-3.706,-3.6795,-3.6411,-3.6411,-3.6362,-3.629,-3.629,-3.6218,-3.617,-3.617,-3.5857,-3.5497,-3.5497,-3.5135,-3.4775,-3.4775,-3.4727,-3.4558,-3.4102,-3.3669,-3.3164,-3.2635,-3.2442,-3.2226,-3.1717,-3.1235,-3.0874,-3.0706,-3.0278,-2.9797,-2.9268,-2.9172,-2.8715,-2.7258,-2.7402,-2.733,-2.6358,0.0,-2.7609,-2.7609,-2.8065,-2.8354,-2.8282,-2.8426,-2.8474,-2.8402,-2.8474,-2.8522,-2.8522,-2.8931,-2.9172,-2.9172,-2.9172,-2.9653,-3.0615,-3.085,-3.1139,-3.1597,-3.1669,-3.1717,-3.1717,-3.1717,-3.1717,-3.1717,-3.1717,-3.1717,-3.1717,-3.1717,-3.1717,-3.1765,-3.2178,-3.237,-3.2418,-3.2875,-3.3092,-3.3164,-4.1172,-4.1172,-4.1172,-4.1172,-4.1172,-4.1172,-4.1172,-4.1172,-4.1172,-4.1172,-4.1172,-4.1172,-4.1172,-4.0956,-4.0812,-4.0812,-4.0331,-3.9922,-3.9681,-3.8888,-3.831,-3.7998,-3.7974,-3.7974,-3.7974,-3.7974,-3.7974,-3.7974,-3.7974,-3.7974,-3.7974,-3.7974,-3.7974,-3.7974,-3.7974,-3.7974,-3.7974,-3.7974,-3.7829,-3.7613,-3.7613,-3.7469,-3.7252,-3.7252,-3.7084,-3.6819,-3.6819,-3.6651,-3.6411,-3.6411,-3.6242,-3.605,-3.605,-3.5881,-3.5617,-3.5328,-3.504,-3.4727,-3.4486,-3.403,-3.3645,-3.338,-3.2899,-3.2442,-3.2178,-3.1741,-3.1259,-3.097,-3.073,-3.035,-2.9821,-2.9484,-2.9051,-2.833,-2.8162,0.0,0.0,-2.7825,-2.8138,-2.8138,-2.8354,-2.8522,-2.8522,-2.8522,-2.8619,-2.8907,-2.8931,-2.9051,-2.934,-2.9581,-2.9845,-3.0134,-3.0158,-3.0374,-3.0922,-3.1211,-3.1476,-3.1717,-3.1717,-3.1717,-3.1717,-3.1717,-3.1717,-3.1717,-3.1717,-3.1717,-3.1717,-3.1717,-3.1886,-3.2154,-3.2394,-3.2683,-3.2947,-3.3212,-3.3452,-3.3693,-4.1172,-4.1172,-4.1172,-4.1172,-4.1172,-4.1172,-4.1172,-4.1172,-4.1172,-4.1172,-4.1172,-4.1172,-4.1172,-4.1172,-4.1172,-4.1172,-4.0812,-4.0523,-4.0403,-3.9633,-3.8936,-3.8383,-3.8238,-3.819,-3.819,-3.8046,-3.7974,-3.7974,-3.7974,-3.7974,-3.7974,-3.7974,-3.7974,-3.7974,-3.7974,-3.7974,-3.7974,-3.7974,-3.7974,-3.7974,-3.7974,-3.7974,-3.7974,-3.7974,-3.7733,-3.7372,-3.7372,-3.7108,-3.6771,-3.6771,-3.6699,-3.6579,-3.6579,-3.6507,-3.6314,-3.593,-3.5425,-3.4943,-3.4799,-3.4486,-3.415,-3.403,-3.3406,-3.2827,-3.2707,-3.225,-3.1789,-3.138,-3.1187,-3.0946,-3.0374,-2.9941,-2.9532,-2.9172,0.0,0.0,0.0,-2.8619,-2.8739,-2.8859,-2.8883,-2.8883,-2.8883,-2.8883,-2.9051,-2.946,-2.9484,-2.9653,-3.0062,-3.0206,-3.0518,-3.1091,-3.1091,-3.1091,-3.1091,-3.15,-3.1717,-3.1717,-3.1717,-3.1717,-3.1717,-3.1717,-3.1717,-3.1717,-3.1837,-3.191,-3.191,-3.203,-3.2298,-3.2707,-3.2803,-3.3116,-3.3477,-3.3597,-3.3885,-3.4174,-4.1172,-4.1172,-4.1172,-4.1172,-4.1172,-4.1172,-4.1172,-4.1172,-4.1172,-4.1172,-4.1172,-4.1172,-4.1172,-4.1172,-4.1172,-4.1172,-4.1148,-4.0908,-4.0427,-4.0331,-4.0042,-3.9513,-3.9008,-3.8767,-3.8767,-3.8238,-3.7974,-3.7974,-3.7974,-3.7974,-3.7974,-3.7974,-3.7974,-3.7974,-3.7974,-3.7974,-3.7974,-3.7974,-3.7974,-3.7974,-3.7974,-3.7974,-3.7974,-3.7974,-3.795,-3.7926,-3.7926,-3.7902,-3.7853,-3.7853,-3.7541,-3.7132,-3.7132,-3.6795,-3.6386,-3.6362,-3.5978,-3.5449,-3.4919,-3.4751,-3.4607,-3.4126,-3.3934,-3.3766,-3.3332,-3.2827,-3.2418,-3.2394,-3.1961,-3.15,-3.0946,-3.0826,-3.0278,-2.8811,0.0,0.0,-2.857,-2.8931,-2.9436,-2.9917,-2.9965,-2.9965,-2.9965,-2.9965,-2.9989,-3.0037,-3.0037,-3.0037,-3.0086,-3.0543,-3.1091,-3.1645,-3.1645,-3.1645,-3.1645,-3.1693,-3.1717,-3.1717,-3.1717,-3.1717,-3.1717,-3.1717,-3.1717,-3.1741,-3.2226,-3.2442,-3.2491,-3.2971,-3.3188,-3.3284,-3.3694,-3.391,-3.4006,-3.4535,-3.4679,-3.4727,-4.1172,-4.1172,-4.1172,-4.1172,-4.1172,-4.1172,-4.1172,-4.1172,-4.1172,-4.1172,-4.1172,-4.1172,-4.1172,-4.1172,-4.1172,-4.1172,-4.1172,-4.11,-4.0908,-4.0884,-4.0499,-3.9657,-3.9417,-3.9152,-3.8815,-3.8623,-3.8334,-3.7974,-3.7974,-3.7974,-3.7974,-3.7974,-3.7974,-3.7974,-3.7974,-3.7974,-3.7974,-3.7974,-3.7974,-3.7974,-3.7974,-3.7974,-3.7974,-3.7974,-3.7974,-3.7974,-3.7974,-3.7974,-3.7974,-3.7974,-3.7853,-3.7685,-3.7685,-3.7541,-3.7324,-3.6988,-3.6531,-3.605,-3.5857,-3.5328,-3.4727,-3.4534,-3.4246,-3.3934,-3.3742,-3.3356,-3.2996,-3.2996,-3.2563,-3.213,-3.1913,-3.1336,-3.0826,-3.0518,0.0,-2.9845,-2.9965,-2.9869,-2.9869,-3.0062,-3.0086,-3.0086,-3.0086,-3.0086,-3.023,-3.0543,-3.0609,-3.0754,-3.1091,-3.1308,-3.15,-3.1693,-3.1717,-3.1717,-3.1717,-3.1717,-3.1717,-3.1717,-3.2054,-3.2178,-3.2202,-3.2515,-3.2659,-3.2683,-3.2899,-3.2996,-3.2996,-3.3212,-3.3477,-3.3718,-3.391,-3.4198,-3.451,-3.4703,-3.4775,-3.4775,-4.1172,-4.1172,-4.1172,-4.1172,-4.1172,-4.1172,-4.1172,-4.1172,-4.1172,-4.1172,-4.1172,-4.1172,-4.1172,-4.1172,-4.1172,-4.1172,-4.1172,-4.1172,-4.1172,-4.1172,-4.086,-4.0138,-3.9946,-3.9681,-3.932,-3.9152,-3.8791,-3.8238,-3.8238,-3.8166,-3.7974,-3.7974,-3.7974,-3.7974,-3.7974,-3.7974,-3.7974,-3.7974,-3.7974,-3.7974,-3.7974,-3.7974,-3.7974,-3.7974,-3.7974,-3.7974,-3.7974,-3.7974,-3.7974,-3.7974,-3.7974,-3.7974,-3.7974,-3.7974,-3.7902,-3.7541,-3.706,-3.6651,-3.6651,-3.6002,-3.528,-3.5063,-3.4631,-3.4246,-3.4246,-3.3885,-3.3525,-3.3525,-3.3116,-3.2755,-3.2755,-3.201,-3.15,-3.1669,-3.0946,-3.047,-3.0874,-3.0567,-3.0398,-3.0567,-3.0591,-3.0591,-3.0591,-3.0591,-3.0735,-3.1139,-3.1163,-3.1332,-3.1693,-3.1717,-3.1717,-3.1717,-3.1886,-3.1937,-3.1937,-3.1937,-3.1937,-3.1982,-3.2491,-3.2755,-3.2755,-3.3116,-3.3284,-3.3308,-3.3452,-3.3525,-3.3525,-3.3693,-3.3982,-3.4246,-3.4246,-3.4462,-3.4775,-3.4775,-3.4775,-3.4775,-4.1172,-4.1172,-4.1172,-4.1172,-4.1172,-4.1172,-4.1172,-4.1172,-4.1172,-4.1172,-4.1172,-4.1172,-4.1172,-4.1172,-4.1172,-4.1172,-4.1172,-4.1172,-4.1172,-4.1172,-4.1172,-4.1172,-4.0691,-4.0403,-4.0403,-3.9874,-3.9345,-3.8815,-3.8815,-3.8527,-3.7998,-3.7974,-3.7974,-3.7974,-3.7974,-3.7974,-3.7974,-3.7974,-3.7974,-3.7974,-3.7974,-3.7974,-3.7974,-3.7974,-3.7974,-3.7974,-3.7974,-3.7974,-3.7974,-3.7974,-3.7974,-3.7974,-3.7974,-3.7974,-3.7974,-3.7974,-3.7613,-3.7204,-3.7204,-3.6819,-3.629,-3.5761,-3.5232,-3.4799,-3.4775,-3.4366,-3.4006,-3.4006,-3.3645,-3.3308,-3.3308,-3.2875,-3.2322,-3.1813,-3.1284,-3.0946,-3.0946,-3.0946,-3.1115,-3.1645,-3.1717,-3.1717,-3.1717,-3.1717,-3.1717,-3.1717,-3.1717,-3.1717,-3.1717,-3.1717,-3.1717,-3.1717,-3.2226,-3.2515,-3.2515,-3.2515,-3.2515,-3.2515,-3.3044,-3.3308,-3.3308,-3.3308,-3.3308,-3.3332,-3.379,-3.4006,-3.403,-3.4558,-3.4775,-3.4775,-3.4775,-3.4775,-3.4775,-3.4775,-3.4775,-3.4775,-4.1172,-4.1172,-4.1172,-4.1172,-4.1172,-4.1172,-4.1172,-4.1172,-4.1172,-4.1172,-4.1172,-4.1172,-4.1172,-4.1172,-4.1172,-4.1172,-4.1172,-4.1172,-4.1172,-4.1172,-4.1172,-4.1172,-4.1028,-4.0787,-4.0403,-4.0234,-3.9898,-3.9369,-3.9008,-3.8743,-3.8551,-3.8166,-3.7974,-3.7974,-3.7974,-3.7974,-3.7974,-3.7974,-3.7974,-3.7974,-3.7974,-3.7974,-3.7974,-3.7974,-3.7974,-3.7974,-3.7974,-3.7974,-3.7974,-3.7974,-3.7974,-3.7974,-3.7974,-3.7974,-3.7974,-3.7974,-3.7878,-3.7733,-3.7733,-3.7348,-3.6747,-3.5833,-3.5497,-3.528,-3.4871,-3.4655,-3.4534,-3.4534,-3.4126,-3.3766,-3.3766,-3.3404,-3.2996,-3.2827,-3.2683,-3.2563,-3.2563,-3.225,-3.2082,-3.2226,-3.1958,-3.1717,-3.1717,-3.1717,-3.1717,-3.1717,-3.1717,-3.1886,-3.2226,-3.225,-3.2418,-3.2803,-3.2971,-3.3044,-3.3044,-3.3044,-3.3044,-3.3068,-3.3573,-3.3766,-3.379,-3.4198,-3.4366,-3.4366,-3.4486,-3.4534,-3.4558,-3.4703,-3.4775,-3.4775,-3.4775,-3.4775,-3.4775,-3.4775,-3.4775,-3.4775,-3.9893,-4.0165,-4.0374,-4.0374,-4.0884,-4.1172,-4.1172,-4.1172,-4.1172,-4.1172,-4.1172,-4.1172,-4.1172,-4.1172,-4.1172,-4.1172,-4.1172,-4.1172,-4.1172,-4.1172,-4.1172,-4.1172,-4.1172,-4.1028,-4.0715,-4.0715,-4.0451,-3.9922,-3.9609,-3.9345,-3.9128,-3.8575,-3.831,-3.831,-3.807,-3.7974,-3.7974,-3.7974,-3.7974,-3.7974,-3.7974,-3.7974,-3.7974,-3.7974,-3.7974,-3.7974,-3.7974,-3.7974,-3.7974,-3.7974,-3.7974,-3.7974,-3.7974,-3.7974,-3.7974,-3.7974,-3.7974,-3.7974,-3.7974,-3.7733,-3.73,-3.6459,-3.6074,-3.5833,-3.5521,-3.5304,-3.5136,-3.5136,-3.4679,-3.4318,-3.4318,-3.3933,-3.3597,-3.3597,-3.3428,-3.3284,-3.3284,-3.302,-3.2827,-3.2827,-3.2515,-3.2343,-3.2343,-3.2343,-3.2343,-3.2343,-3.2343,-3.2466,-3.2803,-3.2827,-3.2971,-3.3284,-3.3477,-3.3597,-3.3597,-3.3789,-3.3789,-3.3597,-3.4054,-3.4318,-3.4318,-3.4631,-3.4775,-3.4775,-3.4775,-3.4775,-3.4775,-3.4775,-3.4775,-3.4775,-3.4775,-3.4775,-3.4775,-3.4775,-3.4775,-3.4775,-3.7885,-3.8627,-3.9285,-3.9239,-4.0316,-4.1172,-4.1172,-4.1172,-4.1172,-4.1172,-4.1172,-4.1172,-4.1172,-4.1172,-4.1172,-4.1172,-4.1172,-4.1172,-4.1172,-4.1172,-4.1172,-4.1172,-4.1172,-4.1172,-4.1172,-4.1172,-4.0956,-4.0475,-4.0427,-4.0138,-3.9657,-3.9128,-3.8888,-3.8864,-3.831,-3.8046,-3.8046,-3.7998,-3.7974,-3.7974,-3.7974,-3.7974,-3.7974,-3.7974,-3.7974,-3.7974,-3.7974,-3.7974,-3.7974,-3.7974,-3.7974,-3.7974,-3.7974,-3.7974,-3.7974,-3.7974,-3.7974,-3.7974,-3.7974,-3.7974,-3.7853,-3.7372,-3.6892,-3.6531,-3.6435,-3.6026,-3.5689,-3.5689,-3.5207,-3.4847,-3.4847,-3.4414,-3.4054,-3.4054,-3.3717,-3.3428,-3.3428,-3.338,-3.3356,-3.3356,-3.3308,-3.3284,-3.3284,-3.3284,-3.3284,-3.3284,-3.3284,-3.3308,-3.3356,-3.3356,-3.338,-3.3428,-3.3861,-3.4054,-3.4054,-3.4534,-3.4534,-3.4078,-3.4558,-3.4775,-3.4775,-3.4775,-3.4775,-3.4775,-3.4775,-3.4775,-3.4775,-3.4775,-3.4775,-3.4775,-3.4775,-3.4775,-3.4775,-3.4775,-3.4775,-3.4775,-3.795,-3.8918,-3.9639,-3.9226,-4.0316,-4.1172,-4.1172,-4.1172,-4.1172,-4.1172,-4.1172,-4.1172,-4.1172,-4.1172,-4.1172,-4.1172,-4.1172,-4.1172,-4.1172,-4.1172,-4.1172,-4.1172,-4.1172,-4.1172,-4.1172,-4.1172,-4.1124,-4.1004,-4.0595,-4.0331,-4.021,-3.9681,-3.9441,-3.9417,-3.8888,-3.8647,-3.8599,-3.8166,-3.7974,-3.7974,-3.7974,-3.7974,-3.7974,-3.7974,-3.7974,-3.7974,-3.7974,-3.7974,-3.7974,-3.7974,-3.7974,-3.7974,-3.7974,-3.7974,-3.7974,-3.7974,-3.7974,-3.7974,-3.7974,-3.7974,-3.795,-3.7829,-3.7733,-3.7421,-3.6603,-3.6314,-3.6242,-3.6242,-3.5809,-3.5449,-3.5449,-3.4967,-3.4607,-3.4607,-3.451,-3.4438,-3.4438,-3.4078,-3.3838,-3.3838,-3.3525,-3.3284,-3.3284,-3.3284,-3.3284,-3.3284,-3.3284,-3.3452,-3.3814,-3.3838,-3.4006,-3.4487,-3.4558,-3.4607,-3.4607,-3.4727,-3.4727,-3.4607,-3.4727,-3.4775,-3.4775,-3.4775,-3.4775,-3.4775,-3.4775,-3.4775,-3.4775,-3.4775,-3.4775,-3.4775,-3.4775,-3.4775,-3.4775,-3.4775,-3.4775,-3.4775,-3.6742,-3.74,-3.7942,-3.7741,-3.9081,-4.0257,-4.0257,-4.0257,-4.0257,-4.0257,-3.9732,-3.9357,-3.9357,-3.9357,-3.9357,-3.9357,-3.9908,-4.0257,-4.0257,-3.9674,-3.9592,-4.0199,-3.965,-3.9357,-3.9357,-3.9357,-3.9966,-4.1172,-4.0908,-4.0763,-4.0763,-4.0234,-3.9994,-3.997,-3.9441,-3.92,-3.9176,-3.8888,-3.8743,-3.8743,-3.8743,-3.8743,-3.8743,-3.8743,-3.8743,-3.8719,-3.8479,-3.8214,-3.7974,-3.7974,-3.7974,-3.7974,-3.7974,-3.7974,-3.7974,-3.7974,-3.7974,-3.7974,-3.7974,-3.7974,-3.7974,-3.7974,-3.7974,-3.7829,-3.7276,-3.6964,-3.6771,-3.6771,-3.6362,-3.6002,-3.6002,-3.5761,-3.5497,-3.5256,-3.5159,-3.5063,-3.4871,-3.4534,-3.4366,-3.4366,-3.4174,-3.403,-3.403,-3.403,-3.403,-3.403,-3.403,-3.415,-3.4366,-3.4366,-3.4486,-3.4775,-3.4775,-3.4775,-3.4775,-3.4775,-3.4775,-3.4775,-3.4775,-3.4775,-3.4775,-3.4775,-3.4775,-3.4775,-3.4775,-3.4775,-3.4775,-3.4775,-3.4775,-3.4775,-3.4775,-3.4775,-3.4775,-3.4775,-3.4775,-3.4775,-3.541,-3.5876,-3.6182,-3.61,-3.7663,-3.8976,-3.8976,-3.8908,-3.8862,-3.8862,-3.797,-3.7309,-3.7309,-3.7489,-3.761,-3.761,-3.8803,-3.9474,-3.9216,-3.8447,-3.8268,-3.8862,-3.8089,-3.755,-3.7309,-3.7528,-3.8684,-4.0884,-4.0629,-4.0629,-4.086,-4.0202,-3.9988,-4.0135,-3.961,-3.9507,-3.9729,-3.9657,-3.9609,-3.9609,-3.9609,-3.9609,-3.9609,-3.9609,-3.9609,-3.9561,-3.9104,-3.8647,-3.8238,-3.8166,-3.8118,-3.8118,-3.8022,-3.7974,-3.7974,-3.7974,-3.7974,-3.7974,-3.7974,-3.7974,-3.7974,-3.7974,-3.7974,-3.7974,-3.7974,-3.7637,-3.7324,-3.7324,-3.6916,-3.6531,-3.6531,-3.6459,-3.6266,-3.5833,-3.5761,-3.5593,-3.516,-3.4967,-3.4968,-3.4968,-3.4847,-3.4775,-3.4775,-3.4775,-3.4775,-3.4775,-3.4775,-3.4775,-3.4775,-3.4775,-3.4775,-3.4775,-3.4775,-3.4775,-3.4775,-3.4775,-3.4775,-3.4775,-3.4775,-3.4775,-3.4775,-3.4775,-3.4775,-3.4775,-3.4775,-3.4775,-3.4775,-3.4775,-3.4775,-3.4775,-3.4775,-3.4775,-3.4775,-3.4775,-3.4775,-3.4775,-3.5469,-3.6314,-3.6985,-3.6637,-3.7419,-3.8082,-3.8082,-3.7791,-3.755,-3.755,-3.7429,-3.7309,-3.7309,-3.8268,-3.8921,-3.8921,-4.0141,-4.0455,-3.9275,-4.0141,-3.9732,-3.767,-3.8447,-3.8447,-3.7287,-3.8387,-3.9098,-3.9474,-3.8387,-3.8387,-3.9474,-3.826,-3.8297,-3.9336,-3.877,-3.9216,-4.0258,-3.9801,-3.9609,-3.9609,-3.9609,-3.9609,-3.9609,-3.9609,-3.9609,-3.9609,-3.9537,-3.9465,-3.932,-3.8864,-3.8695,-3.8623,-3.8142,-3.7974,-3.7974,-3.7974,-3.7974,-3.7974,-3.7974,-3.7974,-3.7974,-3.7974,-3.7974,-3.7974,-3.7974,-3.7926,-3.7878,-3.7878,-3.7445,-3.7084,-3.7084,-3.6723,-3.6386,-3.6314,-3.629,-3.6266,-3.6194,-3.5785,-3.5497,-3.5497,-3.5112,-3.4775,-3.4775,-3.4775,-3.4775,-3.4775,-3.4775,-3.4775,-3.4775,-3.4775,-3.4775,-3.4775,-3.4775,-3.4775,-3.4775,-3.4775,-3.4775,-3.4775,-3.4775,-3.4775,-3.4775,-3.4775,-3.4775,-3.4775,-3.4775,-3.4775,-3.4775,-3.4775,-3.4775,-3.4775,-3.4775,-3.4775,-3.4775,-3.4775,-3.4775,-3.4775,-3.5781,-3.5996,-3.6156,-3.6022,-3.6678,-3.7149,-3.6874,-3.6662,-3.6512,-3.6258,-3.5602,-3.5108,-3.5108,-3.6276,-3.7067,-3.7067,-3.761,-3.8029,-3.8149,-3.7309,-3.6642,-3.6276,-3.6093,-3.5725,-3.5108,-3.5664,-3.6338,-3.7067,-3.8684,-3.9357,-3.9157,-3.8625,-3.8684,-3.9157,-3.8222,-3.8895,-4.0755,-3.9807,-3.9827,-4.0499,-4.0499,-4.0499,-4.0499,-4.0499,-4.0499,-4.0451,-4.0138,-3.985,-3.9561,-3.9345,-3.9272,-3.9176,-3.8623,-3.8455,-3.8383,-3.807,-3.7974,-3.7974,-3.7974,-3.7974,-3.7974,-3.7974,-3.7974,-3.7974,-3.7974,-3.7974,-3.7974,-3.7974,-3.7252,-3.6661,-3.6661,-3.5917,-3.5184,-3.4888,-3.5369,-3.5718,-3.5413,-3.5765,-3.605,-3.605,-3.5857,-3.5713,-3.5713,-3.5449,-3.528,-3.528,-3.4943,-3.4775,-3.4775,-3.4775,-3.4775,-3.4775,-3.4775,-3.4775,-3.4775,-3.5112,-3.528,-3.528,-3.528,-3.5112,-3.4775,-3.4775,-3.4775,-3.4775,-3.4775,-3.4775,-3.4775,-3.4775,-3.4775,-3.4775,-3.4775,-3.4775,-3.4775,-3.4775,-3.4775,-3.4775]},{"header":{"parameterUnit":"m.s-1","parameterCategory":1,"la1":30.6,"la2":28.766,"lo1":-90.7593,"lo2":-88.6598,"dy":0.0162,"dx":0.0183,"nx":116,"ny":114,"refTime":"2024-06-17T06:00:00:Z","depth":0,"parameterNumber":3,"parameterNumberName":"V-component_of_WINDS"},"data":[0.0,0.0,0.0,0.0,0.0,0.0,0.0,0.0,0.0,0.0,0.0,0.0,0.0,0.0,0.0,0.0,0.0,0.0,0.0,0.0,0.0,0.0,0.0,0.0,0.0,0.0,0.0,0.0,0.0,0.0,0.0,0.0,0.0,0.0,0.0,0.0,0.0,0.0,0.0,0.0,0.0,0.0,0.0,0.0,0.0,0.0,0.0,0.0,0.0,0.0,0.0,0.0,0.0,0.0,0.0,0.0,0.0,0.0,0.0,0.0,0.0,0.0,0.0,0.0,0.0,0.0,0.0,0.0,0.0,0.0,0.0,0.0,0.0,0.0,0.0,0.0,0.0,0.0,0.0,0.0,0.0,0.0,0.0,0.0,0.0,0.0,0.0,0.0,0.0,0.0,0.0,0.0,0.0,0.0,0.0,0.0,0.0,0.0,0.0,0.0,0.0,0.0,0.0,0.0,0.0,0.0,0.0,0.0,0.0,0.0,0.0,0.0,0.0,0.0,0.0,0.0,0.0,0.0,0.0,0.0,0.0,0.0,0.0,0.0,0.0,0.0,0.0,0.0,0.0,0.0,0.0,0.0,0.0,0.0,0.0,0.0,0.0,0.0,0.0,0.0,0.0,0.0,0.0,0.0,0.0,0.0,0.0,0.0,0.0,0.0,0.0,0.0,0.0,0.0,0.0,0.0,0.0,0.0,0.0,0.0,0.0,0.0,0.0,0.0,0.0,0.0,0.0,0.0,0.0,0.0,0.0,0.0,0.0,0.0,0.0,0.0,0.0,0.0,0.0,0.0,0.0,0.0,0.0,0.0,0.0,0.0,0.0,0.0,0.0,0.0,0.0,0.0,0.0,0.0,0.0,0.0,0.0,0.0,0.0,0.0,0.0,0.0,0.0,0.0,0.0,0.0,0.0,0.0,0.0,0.0,0.0,0.0,0.0,0.0,0.0,0.0,0.0,0.0,0.0,0.0,0.0,0.0,0.0,0.0,0.0,0.0,0.0,0.0,0.0,0.0,0.0,0.0,0.0,0.0,0.0,0.0,0.0,0.0,0.0,0.0,0.0,0.0,0.0,0.0,0.0,0.0,0.0,0.0,0.0,0.0,0.0,0.0,0.0,0.0,0.0,0.0,0.0,0.0,0.0,0.0,0.0,0.0,0.0,0.0,0.0,0.0,0.0,0.0,0.0,0.0,0.0,0.0,0.0,0.0,0.0,0.0,0.0,0.0,0.0,0.0,0.0,0.0,0.0,0.0,0.0,0.0,0.0,0.0,0.0,0.0,0.0,0.0,0.0,0.0,0.0,0.0,0.0,0.0,0.0,0.0,0.0,0.0,0.0,0.0,0.0,0.0,0.0,0.0,0.0,0.0,0.0,0.0,0.0,0.0,0.0,0.0,0.0,0.0,0.0,0.0,0.0,0.0,0.0,0.0,0.0,0.0,0.0,0.0,0.0,0.0,0.0,0.0,0.0,0.0,0.0,0.0,0.0,0.0,0.0,0.0,0.0,0.0,0.0,0.0,0.0,0.0,0.0,0.0,0.0,0.0,0.0,0.0,0.0,0.0,0.0,0.0,0.0,0.0,0.0,0.0,0.0,0.0,0.0,0.0,0.0,0.0,0.0,0.0,0.0,0.0,0.0,0.0,0.0,0.0,0.0,0.0,0.0,0.0,0.0,0.0,0.0,0.0,0.0,0.0,0.0,0.0,0.0,0.0,0.0,0.0,0.0,0.0,0.0,0.0,0.0,0.0,0.0,0.0,0.0,0.0,0.0,0.0,0.0,0.0,0.0,0.0,0.0,0.0,0.0,0.0,0.0,0.0,0.0,0.0,0.0,0.0,0.0,0.0,0.0,0.0,0.0,0.0,0.0,0.0,0.0,0.0,0.0,0.0,0.0,0.0,0.0,0.0,0.0,0.0,0.0,0.0,0.0,0.0,0.0,0.0,0.0,0.0,0.0,0.0,0.0,0.0,0.0,0.0,0.0,0.0,0.0,0.0,0.0,0.0,0.0,0.0,0.0,0.0,0.0,0.0,0.0,0.0,0.0,0.0,0.0,0.0,0.0,0.0,0.0,0.0,0.0,0.0,0.0,0.0,0.0,0.0,0.0,0.0,0.0,0.0,0.0,0.0,0.0,0.0,0.0,0.0,0.0,0.0,0.0,0.0,0.0,0.0,0.0,0.0,0.0,0.0,0.0,0.0,0.0,0.0,0.0,0.0,0.0,0.0,0.0,0.0,0.0,0.0,0.0,0.0,0.0,0.0,0.0,0.0,0.0,0.0,0.0,0.0,0.0,0.0,0.0,0.0,0.0,0.0,0.0,0.0,0.0,0.0,0.0,0.0,0.0,0.0,0.0,0.0,0.0,0.0,0.0,0.0,0.0,0.0,0.0,0.0,0.0,0.0,0.0,0.0,0.0,0.0,0.0,0.0,0.0,0.0,0.0,0.0,0.0,0.0,0.0,0.0,0.0,0.0,0.0,0.0,0.0,0.0,0.0,0.0,0.0,0.0,0.0,0.0,0.0,0.0,0.0,0.0,0.0,0.0,0.0,0.0,0.0,0.0,0.0,0.0,0.0,0.0,0.0,0.0,0.0,0.0,0.0,0.0,0.0,0.0,0.0,0.0,0.0,0.0,0.0,0.0,0.0,0.0,0.0,0.0,0.0,0.0,0.0,0.0,0.0,0.0,0.0,0.0,0.0,0.0,0.0,0.0,0.0,0.0,0.0,0.0,0.0,0.0,0.0,0.0,0.0,0.0,0.0,0.0,0.0,0.0,0.0,0.0,0.0,0.0,0.0,0.0,0.0,0.0,0.0,0.0,0.0,0.0,0.0,0.0,0.0,0.0,0.0,0.0,0.0,0.0,0.0,0.0,0.0,0.0,0.0,0.0,0.0,0.0,0.0,0.0,0.0,0.0,0.0,0.0,0.0,0.0,0.0,0.0,0.0,0.0,0.0,0.0,0.0,0.0,0.0,0.0,0.0,0.0,0.0,0.0,0.0,0.0,0.0,0.0,0.0,0.0,0.0,0.0,0.0,0.0,0.0,0.0,0.0,0.0,0.0,0.0,0.0,0.0,0.0,0.0,0.0,0.0,0.0,0.0,0.0,0.0,0.0,0.0,0.0,0.0,0.0,0.0,0.0,0.0,0.0,0.0,0.0,0.0,0.0,0.0,0.0,0.0,0.0,0.0,0.0,0.0,0.0,0.0,0.0,0.0,0.0,0.0,0.0,0.0,0.0,0.0,0.0,0.0,0.0,0.0,0.0,0.0,0.0,0.0,0.0,0.0,0.0,0.0,0.0,0.0,0.0,0.0,0.0,0.0,0.0,0.0,0.0,0.0,0.0,0.0,0.0,0.0,0.0,0.0,0.0,0.0,0.0,0.0,0.0,0.0,0.0,0.0,0.0,0.0,0.0,0.0,0.0,0.0,0.0,0.0,0.0,0.0,0.0,0.0,0.0,0.0,0.0,0.0,0.0,0.0,0.0,0.0,0.0,0.0,0.0,0.0,0.0,0.0,0.0,0.0,0.0,0.0,0.0,0.0,0.0,0.0,0.0,0.0,0.0,0.0,0.0,0.0,0.0,0.0,0.0,0.0,0.0,0.0,0.0,0.0,0.0,0.0,0.0,0.0,0.0,0.0,0.0,0.0,0.0,0.0,0.0,0.0,0.0,0.0,0.0,0.0,0.0,0.0,0.0,0.0,0.0,0.0,0.0,0.0,0.0,0.0,0.0,0.0,0.0,0.0,0.0,0.0,0.0,0.0,0.0,0.0,0.0,0.0,0.0,0.0,0.0,0.0,0.0,0.0,0.0,0.0,0.0,0.0,0.0,0.0,0.0,0.0,0.0,0.0,0.0,0.0,0.0,0.0,0.0,0.0,0.0,0.0,0.0,0.0,0.0,0.0,0.0,0.0,0.0,0.0,0.0,0.0,0.0,0.0,0.0,0.0,0.0,0.0,0.0,0.0,0.0,0.0,0.0,0.0,0.0,0.0,0.0,0.0,0.0,0.0,0.0,0.0,0.0,0.0,0.0,0.0,0.0,0.0,0.0,0.0,0.0,0.0,0.0,0.0,0.0,0.0,0.0,0.0,0.0,0.0,0.0,0.0,0.0,0.0,0.0,0.0,0.0,0.0,0.0,0.0,0.0,0.0,0.0,0.0,0.0,0.0,0.0,0.0,0.0,0.0,0.0,0.0,0.0,0.0,0.0,0.0,0.0,0.0,0.0,0.0,0.0,0.0,0.0,0.0,0.0,0.0,0.0,0.0,0.0,0.0,0.0,0.0,0.0,0.0,0.0,0.0,0.0,0.0,0.0,0.0,0.0,0.0,0.0,0.0,0.0,0.0,0.0,0.0,0.0,0.0,0.0,0.0,0.0,0.0,0.0,0.0,0.0,0.0,0.0,0.0,0.0,0.0,0.0,0.0,0.0,0.0,0.0,0.0,0.0,0.0,0.0,0.0,0.0,0.0,0.0,0.0,0.0,0.0,0.0,0.0,0.0,0.0,0.0,0.0,0.0,0.0,0.0,0.0,0.0,0.0,0.0,0.0,0.0,0.0,0.0,0.0,0.0,0.0,0.0,0.0,0.0,0.0,0.0,0.0,0.0,0.0,0.0,0.0,0.0,0.0,0.0,0.0,0.0,0.0,0.0,0.0,0.0,0.0,0.0,0.0,0.0,0.0,0.0,0.0,0.0,0.0,0.0,0.0,0.0,0.0,0.0,0.0,0.0,0.0,0.0,0.0,0.0,0.0,0.0,0.0,0.0,0.0,0.0,0.0,0.0,0.0,0.0,0.0,0.0,0.0,0.0,0.0,0.0,0.0,0.0,0.0,0.0,0.0,0.0,0.0,0.0,0.0,0.0,0.0,0.0,0.0,0.0,0.0,0.0,0.0,0.0,0.0,0.0,0.0,0.0,0.0,0.0,0.0,0.0,0.0,0.0,0.0,0.0,0.0,0.0,0.0,0.0,0.0,0.0,0.0,0.0,0.0,0.0,0.0,0.0,0.0,0.0,0.0,0.0,0.0,0.0,0.0,0.0,0.0,0.0,0.0,0.0,0.0,0.0,0.0,0.0,0.0,0.0,0.0,0.0,0.0,0.0,0.0,0.0,0.0,0.0,0.0,0.0,0.0,0.0,0.0,0.0,0.0,0.0,0.0,0.0,0.0,0.0,0.0,0.0,0.0,0.0,0.0,0.0,0.0,0.0,0.0,0.0,0.0,0.0,0.0,0.0,0.0,0.0,0.0,0.0,0.0,0.0,0.0,0.0,0.0,0.0,0.0,0.0,0.0,0.0,0.0,0.0,0.0,0.0,0.0,0.0,0.0,0.0,0.0,0.0,0.0,0.0,0.0,0.0,0.0,0.0,0.0,0.0,0.0,0.0,0.0,0.0,0.0,0.0,0.0,0.0,0.0,0.0,0.0,0.0,0.0,0.0,0.0,0.0,0.0,0.0,0.0,0.0,0.0,0.0,0.0,0.0,0.0,0.0,0.0,0.0,0.0,0.0,0.0,0.0,0.0,0.0,0.0,0.0,0.0,0.0,0.0,0.0,0.0,0.0,0.0,0.0,0.0,0.0,0.0,0.0,0.0,0.0,0.0,0.0,0.0,0.0,0.0,0.0,0.0,0.0,0.0,0.0,0.0,0.0,0.0,0.0,0.0,0.0,0.0,0.0,0.0,0.0,0.0,0.0,0.0,0.0,0.0,0.0,0.0,0.0,0.0,0.0,0.0,0.0,0.0,0.0,0.0,0.0,0.0,0.0,0.0,0.0,0.0,0.0,0.0,0.0,0.0,0.0,0.0,0.0,0.0,0.0,0.0,0.0,0.0,0.0,0.0,0.0,0.0,0.0,0.0,0.0,0.0,0.0,0.0,0.0,0.0,0.0,0.0,0.0,0.0,0.0,0.0,0.0,0.0,0.0,0.0,0.0,0.0,0.0,0.0,0.0,0.0,0.0,0.0,0.0,0.0,0.0,0.0,0.0,0.0,0.0,0.0,0.0,0.0,0.0,0.0,0.0,0.0,0.0,0.0,0.0,0.0,0.0,0.0,0.0,0.0,0.0,0.0,0.0,0.0,0.0,0.0,0.0,0.0,0.8406,0.0,0.0,0.0,0.0,0.0,0.0,0.0,0.0,0.0,0.0,0.0,0.0,0.0,0.0,0.0,0.0,0.0,0.0,0.0,0.0,0.0,0.0,0.0,0.0,0.6746,0.715,0.6314,0.647,0.6476,0.6105,0.5889,0.5836,0.5936,0.5906,0.5991,0.6223,0.6655,0.7061,0.7452,0.7894,0.854,0.9377,0.9379,0.8999,0.8289,0.0,0.0,0.0,0.0,0.0,0.0,0.0,0.0,0.0,0.0,0.0,0.0,0.0,0.0,0.0,0.0,0.0,0.0,0.0,0.0,0.0,0.0,0.0,0.0,0.0,0.0,0.0,0.0,0.0,0.0,0.0,0.0,0.0,0.0,0.0,0.0,0.0,0.0,0.0,0.0,0.0,0.0,0.0,0.0,0.0,0.0,0.0,0.0,0.0,0.0,0.0,0.0,0.0,0.0,0.0,0.0,0.0,0.0,0.0,0.0,0.0,0.0,0.0,0.0,0.0,0.0,0.0,0.0,0.0,0.0,0.0,0.9198,0.0,0.0,0.0,0.0,0.0,0.0,0.0,0.0,0.0,0.0,0.0,0.0,0.0,0.0,0.0,0.0,0.0,0.0,0.0,0.0,0.0,0.6177,0.5633,0.6782,0.7391,0.6851,0.7208,0.7314,0.7009,0.6659,0.6475,0.6486,0.6302,0.6411,0.689,0.7305,0.7996,0.902,0.9654,1.0506,1.157,1.1539,1.0853,0.9611,0.9358,0.0,0.0,0.0,0.0,0.0,0.0,0.0,0.0,0.0,0.0,0.0,0.0,0.0,0.0,0.0,0.0,0.0,0.0,0.0,0.0,0.0,0.0,0.0,0.0,0.0,0.0,0.0,0.0,0.0,0.0,0.0,0.0,0.0,0.0,0.0,0.0,0.0,0.0,0.0,0.0,0.0,0.0,0.0,0.0,0.0,0.0,0.0,0.0,0.0,0.0,0.0,0.0,0.0,0.0,0.0,0.0,0.0,0.0,0.0,0.0,0.0,0.0,0.0,1.2423,1.2726,1.2988,1.2988,1.2988,1.293,1.1897,1.1148,1.061,0.0,0.0,0.0,0.0,0.0,0.0,0.0,0.0,0.0,0.0,0.0,0.0,0.0,0.0,0.0,0.0,0.0,0.0,0.0,0.0,0.6055,0.6246,0.681,0.7313,0.7619,0.7655,0.7684,0.7746,0.7317,0.7122,0.7166,0.6764,0.6789,0.7305,0.7783,0.8474,0.9427,1.0998,1.2066,1.2713,1.3037,1.3121,1.2923,1.157,1.0823,1.0518,0.0,0.0,0.0,0.0,0.0,0.0,0.0,0.0,0.0,0.0,0.0,0.0,0.0,0.0,0.0,0.0,0.0,0.0,0.0,0.0,0.0,0.0,0.0,0.0,0.0,0.0,0.0,0.0,0.0,0.0,0.0,0.0,0.0,0.0,0.0,0.0,0.0,0.0,0.0,0.0,0.0,0.9293,0.8644,0.0,0.0,0.0,0.0,0.0,0.0,0.0,0.0,0.0,0.0,0.0,0.0,0.0,0.0,1.2229,1.3155,1.366,1.3682,1.456,1.4958,1.5002,1.5002,1.5002,1.5002,1.4827,0.0,1.1745,1.129,0.0,0.0,0.0,0.0,0.0,0.0,0.0,0.0,0.0,0.0,0.0,0.0,0.0,0.0,0.0,0.0,0.0,0.0,0.0,0.0,0.0,0.8077,0.8884,0.8875,0.9256,0.9217,0.8556,0.8371,0.798,0.7316,0.7323,0.7498,0.7838,0.8715,0.9899,1.1347,1.3033,1.3915,1.4072,1.4608,1.4907,1.4979,1.4304,1.3219,1.1855,1.1097,0.0,0.0,0.0,0.0,0.0,0.0,0.0,0.0,0.0,0.0,0.0,0.0,0.0,0.0,0.0,0.0,0.0,0.0,0.0,0.0,0.0,0.0,0.0,0.0,0.0,0.0,0.0,0.0,0.0,0.0,0.0,0.0,0.0,0.0,0.0,0.0,0.0,0.0,0.0,0.9379,1.0231,0.9174,0.9581,0.9589,0.0,0.0,0.0,0.0,0.0,0.0,0.0,0.0,0.0,1.2927,1.3132,1.3506,1.4112,1.4765,1.5072,1.5072,1.5672,1.595,1.595,1.595,1.595,1.595,1.595,1.5292,1.4112,1.3251,1.2385,1.1629,0.0,0.0,0.0,0.0,0.0,1.1295,0.0,0.0,0.0,0.0,0.0,0.0,0.0,0.0,0.0,0.0,0.0,0.0,0.7768,0.931,1.0312,1.0332,1.0879,1.084,0.994,0.9601,0.9037,0.8188,0.8229,0.8435,0.8803,1.0252,1.1836,1.3546,1.4915,1.5611,1.5656,1.6136,1.6383,1.6451,1.648,1.5395,1.3524,1.2701,1.163,1.0392,0.0,0.0,0.0,0.0,0.0,0.0,0.0,0.0,0.0,0.0,0.0,0.0,0.0,0.0,0.0,0.0,0.0,0.0,0.0,0.0,0.0,0.0,0.0,0.0,0.0,0.0,0.0,0.0,0.0,0.0,0.0,0.0,0.0,0.0,0.0,0.0,0.0,1.0361,1.103,0.9883,1.0681,1.0747,0.0,0.0,0.0,0.0,0.0,0.0,1.2211,1.2789,1.355,1.4443,1.4706,1.5101,1.5657,1.5994,1.6155,1.6155,1.6462,1.6608,1.6608,1.6608,1.6608,1.6608,1.6608,1.6448,1.6067,1.4853,1.4018,1.3441,1.314,1.3023,1.3023,1.3023,1.3067,1.3163,0.0,0.0,0.0,0.0,0.0,0.0,0.0,0.0,0.0,0.0,0.0,0.77,0.9318,0.9961,1.0781,1.1969,1.2106,1.2152,1.2207,1.1042,1.0348,1.0443,0.9674,0.9614,1.0463,1.2591,1.4312,1.5546,1.6325,1.694,1.7379,1.7544,1.7534,1.7441,1.7564,1.7009,1.5797,1.4058,1.3135,1.2632,1.0584,0.0,0.0,0.0,0.0,0.0,0.0,0.0,0.0,0.0,0.0,0.0,0.0,0.0,0.0,0.0,0.0,0.0,0.0,0.0,0.0,0.0,0.0,0.0,0.0,0.0,0.0,0.0,0.0,0.0,0.0,0.0,0.0,0.0,0.0,0.0,0.0,0.0,0.0,1.1113,1.1828,0.0,0.0,0.0,0.0,1.1882,1.2789,1.3543,1.388,1.4472,1.509,1.5804,1.5833,1.5994,1.636,1.6683,1.6859,1.6859,1.7135,1.7235,1.7235,1.7235,1.7235,1.7235,1.7235,1.7091,1.6771,1.576,1.5119,1.4769,1.4501,1.4408,1.4408,1.4408,1.456,1.4739,0.0,0.0,0.0,0.5938,0.5795,0.5635,0.5436,0.5683,0.6036,0.6391,0.7539,0.8636,0.9495,1.1016,1.2171,1.2617,1.2891,1.2812,1.2289,1.161,1.126,1.1301,1.1105,1.1669,1.3141,1.4281,1.5185,1.5814,1.6982,1.7457,1.7304,1.7954,1.8185,1.8132,1.8328,1.8034,1.7287,1.5594,1.4481,1.3707,1.2048,1.0759,0.0,0.0,0.0,0.0,0.0,0.0,0.0,0.0,0.0,0.0,0.0,0.0,0.0,0.0,0.0,0.0,0.0,0.0,0.0,0.0,0.0,0.0,0.0,0.0,0.0,0.0,0.0,0.0,0.0,0.0,0.0,0.0,0.0,0.0,0.0,0.0,0.0,1.2133,1.3366,0.0,1.2299,1.2833,1.3375,1.3579,1.4311,1.4882,1.5204,1.5833,1.6287,1.6551,1.6711,1.6872,1.6989,1.7106,1.7165,1.7165,1.7267,1.7279,1.7279,1.7279,1.7279,1.7279,1.7279,1.7267,1.7135,1.6799,1.6345,1.5848,1.5773,1.5729,1.5729,1.5729,1.576,1.5848,0.6449,0.6354,0.0,0.6156,0.5874,0.5645,0.5539,0.5826,0.6258,0.6803,0.8223,0.9533,1.0371,1.2051,1.3203,1.3522,1.3633,1.3451,1.2886,1.2276,1.1908,1.1864,1.2318,1.325,1.4774,1.5624,1.6232,1.6578,1.7688,1.7999,1.7652,1.8367,1.8684,1.8617,1.8798,1.8734,1.8364,1.713,1.6063,1.5085,1.3745,1.2653,1.1668,0.0,0.0,0.0,0.0,0.0,0.0,0.0,0.0,0.0,0.0,0.0,0.0,0.0,0.0,0.0,0.0,0.0,0.0,0.0,0.0,0.0,0.0,0.0,0.0,0.0,0.0,0.0,0.0,0.0,0.0,0.0,0.0,0.0,0.0,0.0,1.5051,1.4206,1.5285,1.5636,1.428,1.4827,1.5228,1.5127,1.5893,1.6339,1.6213,1.6726,1.7018,1.7018,1.7223,1.7279,1.7279,1.7279,1.7279,1.7279,1.7279,1.7279,1.7279,1.7279,1.7279,1.7279,1.7279,1.7279,1.7279,1.7279,1.7077,1.6696,1.6696,1.6696,1.6696,1.6696,1.6696,1.6682,0.6351,0.6316,0.6254,0.6043,0.5788,0.5614,0.5614,0.6068,0.6744,0.7664,0.8845,1.0254,1.1969,1.2944,1.3848,1.4696,1.4328,1.4094,1.4094,1.3027,1.2362,1.2285,1.3298,1.4326,1.5282,1.6608,1.7526,1.7946,1.8535,1.8704,1.8556,1.8959,1.9006,1.8859,1.9039,1.9119,1.9098,1.8621,1.7905,1.6965,1.5608,1.478,1.42,0.0,0.0,0.0,0.0,0.0,0.0,0.0,0.0,0.0,0.0,0.0,0.0,0.0,0.0,0.0,0.0,0.0,0.0,0.0,0.0,0.0,0.0,0.0,0.0,0.0,0.0,0.0,0.0,0.0,0.0,0.0,0.0,0.0,1.541,1.6936,1.7843,1.7337,1.7632,1.7536,1.6605,1.7301,1.7473,1.6522,1.7608,1.7883,1.6963,1.7211,1.734,1.7293,1.7293,1.7308,1.7308,1.7308,1.7308,1.7308,1.7308,1.7308,1.7308,1.7308,1.7355,1.7293,1.7293,1.7293,1.7279,1.7279,1.7279,1.7279,1.7279,1.7279,1.7279,1.7279,1.7279,1.7235,0.6458,0.6491,0.6483,0.638,0.6097,0.5888,0.5888,0.6275,0.6771,0.7357,0.899,1.0449,1.1318,1.2665,1.3594,1.3848,1.375,1.3646,1.3646,1.287,1.2871,1.3906,1.4921,1.6059,1.7327,1.7471,1.8034,1.9056,1.9075,1.9228,1.953,1.9798,1.9868,1.9813,1.9658,1.9616,1.9575,1.9119,1.8766,1.8402,1.7006,1.5973,1.5235,0.0,0.0,0.0,0.0,0.0,0.0,0.0,0.0,0.0,0.0,0.0,0.0,0.0,0.0,0.0,0.0,0.0,0.0,0.0,0.0,0.0,0.0,0.0,0.0,0.0,0.0,0.0,0.0,0.0,0.0,0.0,0.0,1.7843,1.7353,1.8137,1.8722,1.8722,1.9583,1.9852,1.8965,1.8665,1.8403,1.8146,1.8452,1.824,1.724,1.7964,1.8178,1.7677,1.7677,1.7794,1.8028,1.8028,1.8028,1.8028,1.8028,1.8028,1.8028,1.8028,1.7911,1.7677,1.7677,1.7498,1.7279,1.7279,1.7279,1.7279,1.7279,1.7279,1.7279,1.7279,1.7279,1.7264,0.6561,0.6569,0.6578,0.6561,0.6292,0.613,0.6234,0.651,0.6963,0.774,0.9281,1.0646,1.1558,1.2815,1.3567,1.3516,1.3567,1.341,1.2964,1.29,1.3491,1.4884,1.592,1.6911,1.7853,1.8214,1.869,1.9283,1.957,1.9829,2.0037,2.0181,2.0273,2.0288,2.0127,2.0038,2.0017,1.9748,1.9554,1.9326,1.8506,1.7636,1.6746,1.6105,1.5085,1.4035,1.3603,1.3188,1.2711,1.1778,0.0,0.0,0.0,0.0,0.0,0.0,0.0,0.0,0.0,0.0,0.0,0.0,0.0,0.0,0.0,0.0,0.0,0.0,0.0,0.0,0.0,0.0,0.0,0.0,1.8805,1.9849,1.9864,2.0246,2.0501,2.0625,2.1065,2.1171,2.0642,2.0255,1.9695,1.8888,1.9293,1.9002,1.7578,1.8218,1.8623,1.8677,1.8256,1.8296,1.8965,1.8538,1.8306,1.8306,1.8306,1.8306,1.8306,1.8306,1.8203,0.0,1.8013,1.7911,1.7721,1.7589,1.753,0.0,0.0,0.0,0.0,0.0,1.7279,1.7279,0.6611,0.6611,0.6611,0.6611,0.638,0.6315,0.6611,0.6781,0.7299,0.8521,0.9611,1.0784,1.2133,1.2982,1.3446,1.3359,1.346,1.3209,1.2398,1.3184,1.4226,1.5459,1.6513,1.7256,1.7619,1.8811,1.9358,1.9249,2.0058,2.0427,2.0401,2.0524,2.054,2.0576,2.0478,2.0457,2.0457,2.0416,2.0203,1.9865,1.9824,1.9243,1.8331,1.7461,1.6634,1.5856,1.5339,1.463,1.3824,1.2896,0.0,0.0,0.0,0.0,0.0,0.0,0.0,0.0,0.0,0.0,0.0,0.0,0.0,0.0,0.0,0.0,0.0,0.0,0.0,0.0,0.0,0.0,0.0,0.0,2.0273,2.1211,2.2422,2.2578,2.2578,2.2578,2.2151,2.1872,2.1872,2.1776,2.1032,1.9304,2.0281,2.0171,1.8333,0.0,0.0,0.0,0.0,1.8992,1.9988,1.8939,1.8408,1.8408,1.8408,1.8408,1.8408,1.8408,1.8394,1.8364,1.8364,1.8335,1.8277,1.7984,1.7852,1.7779,1.741,1.7279,1.7279,1.7279,1.7279,1.7279,0.6611,0.6611,0.6611,0.6611,0.643,0.6448,0.6934,0.7154,0.7729,0.9004,0.9776,1.0514,1.1346,1.1816,1.2181,1.2418,1.2575,1.2835,1.3223,1.4215,1.5178,1.6078,1.6999,1.7995,1.9089,1.9098,1.9626,2.0699,2.0786,2.1049,2.1511,2.1511,2.1528,2.1528,2.1155,2.0953,2.0948,2.054,2.0369,2.0265,1.9948,1.9243,1.8393,1.8195,1.7802,1.7192,1.6415,1.6144,1.5969,1.4727,1.4216,1.3988,1.3484,1.2474,0.0,0.0,0.0,0.0,0.0,0.0,0.0,0.0,0.0,0.0,0.0,0.0,0.0,0.0,0.0,0.0,0.0,0.0,0.0,2.0625,2.1582,2.2344,2.2886,2.2984,2.2984,2.2984,2.2911,2.2818,2.2818,2.2438,2.2035,2.1652,2.2214,2.2055,2.087,2.1605,0.0,2.1603,2.0539,2.025,2.067,1.9632,1.9096,1.9096,0.0,0.0,1.9096,1.9096,1.895,1.8701,1.8701,1.854,1.8291,1.8233,1.8057,1.7779,1.741,1.7279,1.7279,1.7279,1.7279,1.7279,0.6611,0.6611,0.6611,0.6611,0.6731,0.6989,0.739,0.7735,0.8437,0.9777,1.0143,1.061,1.1407,1.1754,1.1824,1.165,1.1977,1.2573,1.3437,1.4758,1.58,1.646,1.7717,1.8614,1.9054,1.9656,2.0244,2.0781,2.1176,2.1515,2.1797,2.1797,2.1797,2.1797,2.1569,2.1466,2.1445,2.1217,2.099,2.0705,2.0286,1.9686,1.9077,1.8849,1.8444,1.7968,1.7305,1.6997,1.6723,1.5601,1.5178,1.5015,1.4593,1.3813,1.2978,0.0,0.0,0.0,0.0,0.0,0.0,0.0,0.0,0.0,0.0,0.0,0.0,0.0,0.0,1.7514,1.8492,0.0,2.0722,2.1699,2.236,2.2847,2.3062,2.3101,2.3101,2.3101,2.3101,2.3179,2.3437,2.3204,2.2941,2.2668,2.3007,2.2799,2.1772,2.2399,2.2855,2.3032,2.2011,2.1795,2.2484,2.1438,2.0877,2.0877,2.0877,2.0637,2.0086,2.0086,1.9737,1.9038,1.9038,1.8935,1.8774,1.8613,1.835,1.8043,1.7882,1.7618,1.7279,1.7279,1.7279,1.7279,0.6611,0.6611,0.6611,0.6611,0.7053,0.7523,0.7851,0.831,0.9082,1.0355,1.0493,1.0784,1.1566,1.1838,1.1716,1.1205,1.181,1.2629,1.3514,1.5119,1.6257,1.6762,1.8261,1.9034,1.8911,2.0131,2.0761,2.0737,2.148,2.1797,2.1797,2.1797,2.1797,2.1797,2.1797,2.1797,2.1797,2.1797,2.159,2.1197,2.0638,2.0203,1.9865,1.9305,1.8808,1.8351,1.7854,1.7307,1.6729,1.6007,1.5698,1.5547,1.5279,1.4867,1.4414,1.3965,1.3426,0.0,0.0,0.0,0.0,0.0,0.0,0.0,0.0,1.6297,1.6894,1.7572,1.8316,1.9138,2.0215,2.1036,2.182,2.25,2.291,2.3144,2.3101,2.3101,2.3101,2.3101,2.3101,2.3257,2.375,2.3867,2.3763,2.3402,2.3736,2.3572,2.2775,2.2976,2.3502,2.4393,2.3384,2.3235,2.4079,2.3035,2.2484,2.2484,2.2484,2.2047,2.1234,2.1234,2.0739,1.9931,1.9931,1.9776,1.9606,1.9337,1.9039,1.8691,1.8691,1.8465,1.8052,1.7584,1.7428,1.7366,0.6611,0.6611,0.6611,0.6611,0.7053,0.7593,0.8157,0.8692,0.933,1.0149,1.054,1.087,1.1153,1.13,1.1392,1.1369,1.2395,1.3294,1.3806,1.5532,1.6698,1.7108,1.8061,1.9026,2.0012,2.0186,2.0745,2.1659,2.1738,2.1797,2.1797,2.1797,2.1797,2.1797,2.1797,2.1797,2.1797,2.1797,2.1776,2.1652,2.0783,2.0354,2.0245,1.9396,1.8808,1.8351,1.7854,1.704,1.6185,1.6112,1.5693,1.531,1.5681,1.5535,1.5124,1.4756,1.3951,1.329,1.3899,1.4423,1.5149,1.6517,1.6698,1.7304,0.0,2.0127,1.9972,2.1094,2.1548,2.1846,2.2171,2.2641,2.2986,2.3032,2.3299,2.3363,2.3144,2.3101,2.3101,2.3101,2.3101,2.3257,2.375,2.4121,2.4485,2.4819,2.5218,2.5402,2.5305,2.5314,2.5382,2.5528,2.451,2.398,2.4097,2.3035,2.2484,2.2484,2.2484,2.2433,2.2333,2.2333,2.2232,2.2131,2.2131,2.1591,2.0723,2.0692,2.0471,2.0156,2.0156,2.0541,2.0755,1.8573,1.7765,1.7721,0.6611,0.6611,0.6712,0.7003,0.7538,0.8125,0.8674,0.9227,0.9791,1.0413,1.0476,1.0562,1.0888,1.0868,1.0975,1.1311,1.2377,1.3179,1.3455,1.5599,1.6941,1.719,1.8527,1.9512,2.0021,2.0483,2.1007,2.1627,2.1721,2.1797,2.1797,2.1797,2.1797,2.1797,2.1797,2.1797,2.1797,2.1797,2.1652,2.1342,2.0643,2.0265,1.9934,1.9056,1.8216,1.7544,1.7358,1.6853,0.0,1.5622,1.5307,1.5103,1.5205,1.5199,1.5034,1.4537,1.4701,1.526,1.6243,1.6837,1.7431,1.8324,1.9239,2.0159,2.1128,2.1192,2.1332,2.2073,2.233,2.251,2.2985,2.3106,2.3189,0.0,2.3536,2.3526,2.312,2.3359,2.3418,2.312,2.3101,2.3354,2.4082,2.4316,2.4707,2.541,2.5577,2.581,2.6094,2.6113,2.623,2.6484,2.6013,2.5793,2.5793,2.532,2.5117,2.5117,2.5117,2.4684,2.3859,2.3859,2.3364,2.2484,2.2484,2.2232,2.1828,2.1828,2.1745,2.1612,2.1612,2.1811,2.1887,2.0473,1.9431,1.8719,0.6595,0.6712,0.7003,0.7553,0.8125,0.8637,0.9037,0.9554,1.0044,1.0432,1.0546,1.0765,1.1239,1.1172,1.1146,1.1353,1.2277,1.2939,1.3091,1.528,1.6734,1.7113,1.8549,1.9493,1.9875,2.0555,2.1081,2.1384,2.168,2.1797,2.1797,2.1797,2.1797,2.1797,2.1797,2.1797,2.1797,2.1673,2.1424,2.1073,2.0472,1.9975,1.9513,1.8547,1.7636,1.682,1.682,1.6415,1.5711,1.5028,1.48,1.4775,1.4697,1.4805,1.4981,1.4917,1.5848,1.7029,1.7621,1.8339,1.9063,1.9738,2.1037,2.2069,2.1709,2.193,2.2244,2.2601,2.2719,2.2902,2.3304,2.3406,2.3446,2.3564,2.3816,2.3806,2.3359,2.3594,2.3633,2.314,2.3101,2.3393,2.418,2.4355,2.4738,2.5615,2.581,2.6055,2.6367,2.6504,2.6699,2.7012,2.7012,2.7012,2.7012,2.7012,2.7012,2.7012,2.7012,2.6429,2.5413,2.5413,2.4716,2.3562,2.3562,2.3341,2.2935,2.2935,2.2935,2.2935,2.2935,2.3135,2.3331,2.2858,2.1566,2.0084,0.6629,0.7028,0.7578,0.8175,0.8724,0.9088,0.9113,0.9554,0.9918,0.9918,1.0872,1.1796,1.2482,1.2531,1.2247,1.1542,1.2303,1.2829,1.2894,1.4496,1.5907,1.6956,1.7758,1.8693,1.9768,2.0224,2.0643,2.1098,2.159,2.1797,2.1797,2.1797,2.1797,2.1797,2.1797,2.1797,2.1776,2.1321,2.1135,2.1031,2.0176,1.9533,1.9036,1.806,1.7202,1.6423,1.6423,1.5525,1.4366,1.4345,1.4324,1.4324,1.4324,1.4635,1.5256,1.6552,1.7492,1.797,1.7236,1.8108,1.9444,2.0558,2.1471,2.2223,2.2639,2.2902,2.3042,2.3081,2.3299,2.3406,2.3144,2.3667,2.4089,2.3845,2.4192,2.4326,2.3859,2.3789,2.3633,2.314,2.3101,2.3276,0.0,2.418,2.4738,2.5615,2.6133,2.6367,2.6387,2.6777,2.7012,2.7012,2.7012,2.7012,2.7012,2.7012,2.7012,2.7012,2.7012,2.6961,2.6941,2.6941,2.6707,2.6267,2.6267,2.545,2.4029,2.4029,2.4029,2.4029,2.4029,2.4707,2.5577,2.5557,2.4017,2.183,0.7299,0.7486,0.7848,0.8696,0.8976,0.9214,0.9566,0.9792,1.0044,1.0382,1.1098,0.0,0.0,0.0,0.0,0.0,1.2541,1.2768,1.2829,1.4524,1.5699,1.6125,1.7245,1.8317,1.9305,1.9492,1.9893,2.0659,2.0767,2.085,2.085,2.085,2.085,2.085,2.085,2.085,2.0886,2.0684,2.0659,2.0576,1.9699,1.9243,1.8973,1.7709,1.6676,1.5835,0.0,1.4511,1.3783,1.3473,1.3369,1.3411,1.3625,1.3879,1.4444,1.6428,1.7339,1.7938,1.9156,2.0216,2.1106,2.1929,2.2817,2.3523,2.3685,2.3654,2.358,2.358,2.3256,2.3057,2.3143,2.3248,2.3345,2.3564,2.4073,2.4382,2.4199,2.4592,2.4605,2.3652,2.3963,0.0,0.0,0.0,0.0,2.5234,2.5703,2.6211,2.6777,2.7207,2.7578,2.7851,2.7871,2.7871,2.7871,2.7871,2.7871,2.7851,2.7578,2.7441,2.7441,2.7148,2.6934,2.6777,2.6504,2.609,2.5618,2.5282,2.5167,2.5167,2.5167,2.5382,2.5693,2.5693,2.5188,2.4242,0.7788,0.8186,0.8646,0.916,0.9478,0.0,0.0,0.0,0.0,0.0,0.0,0.0,0.0,0.0,0.0,0.0,0.0,1.2686,1.2746,1.4048,1.4987,1.539,1.6238,1.708,1.7874,1.8061,1.8464,1.9176,1.9541,1.9789,1.9934,1.9934,1.9934,1.9934,1.9934,1.9934,1.9934,1.9768,1.9686,1.9624,1.8713,1.8257,1.802,1.6767,1.5828,0.0,1.4138,1.3597,1.3266,1.2855,1.277,1.3018,1.3542,1.4455,1.558,1.6979,1.7807,1.8711,2.0629,2.1465,2.195,2.2918,2.3588,2.4077,2.4077,2.3841,2.3587,2.331,2.2926,2.2647,2.2369,2.235,2.2549,2.3137,2.3737,2.4218,2.4513,2.5085,2.5198,2.4238,2.4762,2.5027,0.0,0.0,0.0,2.5302,2.5859,2.6426,2.6992,2.7578,2.8008,2.8281,2.8301,2.8301,2.8301,2.8301,2.8301,2.8281,2.8027,2.7891,2.7871,2.7598,2.7383,2.7226,2.6953,2.668,2.6367,2.6094,2.583,2.5693,2.5693,2.5693,2.5693,2.5693,2.5693,2.5528,0.8186,0.91,0.9823,0.0,0.0,0.0,0.0,0.0,0.0,0.0,0.0,0.0,0.0,0.0,0.0,0.0,0.0,0.0,1.2705,1.3151,1.3847,1.4774,1.4858,1.5105,1.5662,1.6091,1.6519,1.6944,1.7843,1.8538,1.8973,1.8973,1.8973,1.8973,1.8973,1.8973,1.8932,1.8497,1.8331,1.8268,1.7296,1.6726,1.6299,1.5359,1.4718,1.4179,1.3266,1.2915,1.2853,1.2504,1.2732,1.3266,1.4155,1.6249,1.837,1.8194,1.9014,2.0239,2.1488,2.175,2.2049,2.3433,2.3797,2.3797,2.3797,2.3604,2.3196,2.2385,2.2269,2.203,2.0916,2.1125,2.1764,2.2584,2.3216,2.387,2.4703,2.5285,2.5404,0.0,0.0,0.0,0.0,0.0,0.0,2.583,0.0,2.7012,2.7051,2.7832,2.8301,2.8301,2.8301,2.8301,2.8301,2.8301,2.8301,2.8301,2.8301,2.8301,2.8301,2.8301,2.8066,2.7748,2.7728,2.7239,2.6426,2.6406,2.6133,2.5693,2.5693,2.5693,2.5693,2.5693,2.5693,2.5635,0.0,0.0,0.0,0.0,0.0,0.0,0.0,0.0,0.0,0.0,0.0,0.0,0.0,0.0,0.0,0.0,0.0,0.0,1.2639,1.338,1.3836,1.378,1.4155,1.4615,1.5092,1.5269,1.5566,1.6042,1.6601,1.6983,1.7107,1.7107,1.7107,1.7107,1.7107,1.7107,1.7087,1.6962,1.7077,1.7275,1.6394,1.6167,1.6299,1.5359,1.4718,1.4221,1.3617,1.3204,1.2998,1.36,1.4733,1.5986,1.6042,1.7042,1.8247,1.8704,1.9817,2.1046,2.1789,2.2502,2.312,2.3501,2.358,2.3624,2.3754,2.3125,2.2466,2.2171,2.1264,2.0243,1.9445,2.052,2.1499,2.151,2.333,0.0,2.5478,2.6411,0.0,2.6167,0.0,2.7317,2.6649,2.706,0.0,0.0,2.6983,2.6999,2.7513,2.8008,2.8301,2.8301,2.8301,2.8301,2.8301,2.8301,2.8301,2.8301,2.8301,2.8301,2.8301,2.8301,2.8242,2.8125,2.7865,2.7363,2.6836,2.6523,2.6133,2.5693,2.5693,2.5693,2.5693,2.5693,2.5693,2.5674,0.0,0.0,0.0,0.0,0.0,0.0,0.0,0.0,0.0,0.0,0.0,0.0,0.0,0.0,0.0,0.0,0.0,0.0,0.0,1.335,1.356,1.3344,1.3447,1.3582,1.3693,1.3914,1.408,1.4204,1.4842,1.5173,1.5173,1.5173,1.5173,1.5173,1.5173,1.5173,1.5173,1.5173,1.5318,0.0,0.0,1.4945,1.5111,1.4593,1.4221,1.3972,1.3679,1.3948,1.4552,1.5229,1.6552,1.7936,1.8047,1.8836,1.9848,2.0437,2.1223,2.2049,2.2689,2.333,2.3817,2.3927,2.3841,2.37,2.3326,2.2593,2.171,2.0585,1.9657,1.8738,1.7807,1.8941,2.0134,0.0,0.0,0.0,2.5568,2.6812,2.7452,0.0,2.8012,0.0,2.7681,2.8147,2.8482,0.0,2.7834,2.764,2.8053,2.8331,2.8514,2.8654,2.8388,2.8354,2.8461,2.8601,2.8654,2.8654,2.8654,2.8621,2.8461,2.8461,2.8408,2.8281,0.0,2.7695,2.7266,2.6988,2.6536,2.6124,2.6093,2.6062,2.6062,2.6062,2.5965,2.5868,0.0,0.0,0.0,0.0,0.0,0.0,0.0,0.0,0.0,1.1957,1.2187,1.2553,1.304,0.0,0.0,0.0,0.0,0.0,0.0,0.0,1.3223,1.3262,1.2854,1.2481,1.2257,1.256,1.2593,1.2362,1.3066,1.3458,1.3481,1.3458,1.3434,1.3434,1.3434,1.3434,1.3434,1.3434,1.3476,1.3493,1.3493,1.3535,1.3597,0.0,1.3597,1.3597,1.3597,1.4738,1.6291,1.6882,1.8112,1.945,1.9893,2.0891,2.2033,2.2453,2.2736,2.3042,2.3619,2.3991,2.4249,2.4378,2.4251,2.3778,2.2671,2.1903,2.0803,1.8487,1.7856,1.7368,1.6165,1.7144,1.8553,1.9839,0.0,2.3831,2.5415,2.6791,2.7652,2.7713,2.8734,2.9126,2.8512,2.8993,2.9291,2.9054,2.8827,2.8672,2.8568,2.8687,2.8887,2.9079,2.8654,2.8514,2.8727,2.8973,2.9079,2.9079,2.9079,2.8973,2.8727,2.8727,2.8621,2.8388,0.0,0.0,2.7793,2.7526,2.7192,2.6755,2.656,2.6496,2.6496,2.6496,2.6352,2.6139,0.0,0.0,0.0,0.0,0.0,0.0,0.0,1.2381,1.2983,1.3827,1.2887,1.2264,1.2495,1.2538,0.0,0.0,0.0,0.0,0.0,0.0,0.0,1.3218,1.2822,1.2585,1.2537,1.239,1.2419,1.2637,1.2552,1.2656,1.2915,1.2656,1.2525,1.2525,1.2525,1.2525,1.2525,1.2525,1.2732,1.3018,1.3018,1.3245,1.3597,1.3597,0.0,0.0,1.3597,1.4324,1.5484,1.7048,1.899,2.0808,2.1135,2.1916,2.2737,2.281,2.3076,2.3387,2.3527,2.3861,2.4163,2.397,2.3665,2.314,2.215,2.0722,1.9178,1.7792,1.6636,1.5716,1.5258,1.6924,1.868,1.9672,2.2051,2.4258,2.5644,2.7008,2.7971,0.0,2.9311,0.0,0.0,0.0,0.0,0.0,0.0,0.0,2.9011,2.9039,2.9026,2.9079,2.9026,2.8973,2.9026,2.9079,2.9079,2.9079,2.9079,2.9079,2.9026,2.9026,2.9026,2.8973,0.0,0.0,2.8344,2.7903,2.7512,2.7071,2.6677,2.6496,2.6496,2.6496,2.6448,2.6448,0.0,0.0,0.0,0.0,0.0,0.0,1.3038,1.3427,1.4097,1.544,1.4727,1.385,1.3233,1.2589,1.2147,0.0,0.0,0.0,0.0,0.0,0.0,1.3198,1.3,1.2808,1.2591,1.271,1.2659,1.2384,0.0,1.2308,1.2441,1.2048,1.187,1.187,1.187,1.1772,1.1571,1.1571,1.182,1.2234,1.2482,1.2855,1.3266,1.3493,0.0,0.0,1.3597,1.4221,1.5173,1.6291,1.8175,2.0307,2.16,2.2652,2.3392,2.3262,2.3527,2.3835,2.3887,2.4034,2.4206,2.4186,2.3549,2.2595,2.1107,1.9631,1.8043,1.6173,1.5287,1.4718,1.4341,1.596,1.7667,1.8547,2.0803,2.308,2.4923,2.6351,0.0,2.8504,2.9435,0.0,0.0,0.0,0.0,0.0,0.0,0.0,2.9554,2.9554,2.9396,2.9132,2.9396,2.9501,2.9343,2.9501,2.9554,2.9554,2.9554,2.9501,2.9343,2.9343,2.929,2.9079,2.9079,0.0,2.877,2.8259,2.7904,2.7641,2.7145,2.6928,2.6928,2.6928,2.6832,2.6709,0.0,0.0,0.0,0.0,0.0,0.0,1.3847,1.421,1.4904,1.6599,1.632,1.5471,1.4262,1.2988,1.2091,0.0,0.0,0.0,0.0,0.0,0.0,0.0,1.3198,1.306,1.2738,0.0,0.0,0.0,1.2287,0.0,0.0,0.0,0.0,0.0,0.0,1.1415,1.1023,1.1023,1.1298,0.0,0.0,1.2586,0.0,0.0,0.0,0.0,0.0,1.4076,1.48,1.5463,1.69,1.8745,2.0824,2.2439,2.3557,2.3391,2.3696,2.417,2.4186,2.4249,2.4292,2.4464,2.3618,2.2224,2.0265,1.8787,1.7195,1.479,1.4221,1.4076,1.3807,1.5028,1.6477,1.7647,1.9541,2.1652,2.4011,2.5647,2.7034,0.0,0.0,0.0,0.0,0.0,0.0,0.0,0.0,0.0,2.9994,2.9994,2.9784,2.929,2.9732,2.9889,2.9659,2.9889,2.9994,2.9994,2.9994,2.9889,2.9659,2.9659,2.9554,2.929,2.929,0.0,0.0,2.8645,2.838,2.8246,2.7669,2.7392,2.7309,2.7309,2.7167,2.6996,0.0,0.0,0.0,0.0,0.0,0.0,1.3263,1.3934,1.4993,1.6903,1.6585,1.5824,1.4902,1.3676,1.2675,0.0,0.0,0.0,0.0,0.0,0.0,0.0,0.0,0.0,0.0,0.0,0.0,0.0,0.0,0.0,0.0,0.0,0.0,0.0,0.0,0.0,1.1452,1.1452,0.0,0.0,0.0,0.0,0.0,0.0,0.0,0.0,0.0,1.3659,1.3927,1.5256,1.5835,1.6249,1.7688,2.0224,2.2668,2.2839,2.3371,2.3991,2.4127,2.4335,2.4464,2.4507,2.3495,2.2066,2.0218,1.8423,1.6564,1.4671,1.3948,1.3783,1.4179,1.4718,1.5815,1.7999,1.9243,2.086,2.3557,2.5505,2.6931,2.7883,0.0,0.0,0.0,0.0,0.0,0.0,0.0,0.0,0.0,2.9994,2.9994,2.9942,2.9994,2.9994,2.9942,2.9994,2.9994,2.9994,2.9994,2.9994,2.9942,2.9942,2.9942,2.9942,0.0,0.0,0.0,2.9405,2.895,2.8516,2.7999,2.7614,2.7309,2.7309,2.7262,2.7262,0.0,0.0,0.0,0.0,0.0,0.0,1.3686,1.4166,1.4993,1.6953,1.733,1.7122,1.6358,1.4993,1.3348,1.1428,1.129,0.0,0.0,0.0,0.0,0.0,0.0,0.0,0.0,0.0,1.3684,0.0,0.0,0.0,0.0,0.0,0.0,0.0,0.0,0.0,0.0,1.2118,0.0,0.0,0.0,0.0,0.0,0.0,0.0,0.0,0.0,0.0,1.3703,1.4262,1.48,1.5359,1.5918,1.7502,1.9486,2.0925,2.2037,2.3002,2.3824,2.4173,2.4335,2.4464,2.3308,2.1611,1.9803,1.7947,1.6125,1.4258,1.3721,1.3659,1.3824,1.4262,1.507,1.6547,1.7335,1.8704,2.1404,2.3143,2.4861,0.0,0.0,0.0,0.0,0.0,0.0,0.0,0.0,0.0,0.0,2.9994,2.9994,2.9994,2.9994,2.9994,2.9994,2.9994,2.9994,2.9994,2.9994,2.9994,2.9994,2.9994,2.9994,2.9994,0.0,0.0,0.0,2.9187,2.8773,2.8545,2.7821,2.7407,2.7309,2.7309,2.7309,2.7309,0.0,0.0,0.0,0.0,0.0,1.2071,1.376,1.4195,1.4935,1.6692,1.733,1.7446,1.6953,1.545,1.3742,1.1912,1.1467,0.0,0.0,0.0,0.0,0.0,0.0,0.0,0.0,0.0,1.4191,1.4324,1.4587,0.0,0.0,0.0,0.0,0.0,0.0,0.0,0.0,0.0,0.0,0.0,0.0,0.0,0.0,0.0,0.0,0.0,0.0,0.0,0.0,0.0,0.0,1.4593,1.4593,1.5312,1.6696,1.9272,2.0761,2.1896,2.3309,2.3928,2.413,2.4301,2.306,2.128,1.9347,1.7605,1.5884,1.3993,1.3597,1.3597,1.3597,1.389,1.4449,1.5504,1.6187,1.7533,2.0245,2.1942,0.0,0.0,0.0,0.0,0.0,0.0,0.0,0.0,0.0,0.0,0.0,2.9994,2.9994,2.9994,2.9994,2.9994,2.9994,2.9994,2.9994,2.9994,2.9994,2.9994,2.9994,2.9994,2.9994,2.9994,0.0,0.0,0.0,2.9145,2.8731,2.8545,2.7759,2.7413,2.7309,2.7309,2.7309,2.7309,0.0,0.0,0.0,0.0,0.0,1.1925,1.3205,1.3905,1.4761,1.6037,1.6227,1.6227,1.6227,1.4529,1.3628,1.421,1.2687,0.0,0.0,0.0,0.0,0.0,0.0,0.0,0.0,0.0,1.4349,1.4884,1.5417,1.5693,1.5693,0.0,0.0,0.0,0.0,0.0,0.0,0.0,0.0,0.0,0.0,0.0,1.4326,0.0,0.0,0.0,0.0,0.0,0.0,0.0,0.0,0.0,0.0,1.3927,1.4966,1.8186,1.9727,2.0808,2.2687,2.3536,2.3888,2.3929,2.2832,2.1197,1.8953,1.7377,1.5884,1.3993,1.3597,1.3597,1.3597,1.3597,1.4076,1.5463,1.6428,1.7957,2.0721,2.2687,0.0,0.0,0.0,0.0,0.0,0.0,0.0,0.0,0.0,0.0,0.0,2.9994,2.9994,2.9994,2.9994,2.9994,2.9994,2.9994,2.9994,2.9994,2.9994,2.9994,2.9994,2.9994,2.9994,0.0,0.0,0.0,0.0,2.9497,2.9021,2.8566,2.809,2.7655,2.7309,2.7309,2.7309,2.7309,0.0,0.0,0.0,0.0,0.0,0.0,1.2599,1.3279,1.3977,1.479,1.5283,1.5573,1.5573,1.4267,1.3845,1.4877,1.3104,0.0,0.0,0.0,0.0,0.0,0.0,0.0,0.0,1.4155,1.4928,1.5462,1.6392,1.7049,1.74,1.7024,1.6547,0.0,0.0,0.0,0.0,0.0,0.0,0.0,0.0,1.5355,1.5288,0.0,0.0,0.0,0.0,0.0,0.0,0.0,0.0,0.0,0.0,0.0,0.0,1.5815,1.7595,1.923,2.0155,2.0928,2.1362,2.0778,2.0052,1.9044,1.7418,1.6464,1.5463,1.3931,1.3597,1.3597,1.3597,1.3597,1.4258,1.6262,1.682,1.7957,2.0705,0.0,0.0,0.0,0.0,0.0,0.0,0.0,0.0,0.0,0.0,0.0,0.0,2.9994,2.9994,2.9994,2.9994,2.9994,2.9994,2.9994,2.9994,2.9994,2.9994,2.9994,2.9994,2.9994,0.0,0.0,0.0,0.0,0.0,2.9145,2.8752,2.8545,2.7759,2.7434,2.7309,2.7309,2.7309,2.7309,0.0,0.0,0.0,0.0,0.0,0.0,1.2332,1.2756,1.3324,1.4195,1.4456,1.4776,1.5254,1.4151,1.3919,1.5182,1.3811,0.0,0.0,0.0,0.0,0.0,0.0,0.0,1.3534,1.4431,1.5261,1.5994,1.7124,1.7877,1.8204,1.8078,1.7576,1.6823,1.6245,0.0,0.0,0.0,0.0,0.0,1.5901,1.557,1.5163,0.0,0.0,0.0,0.0,0.0,0.0,0.0,0.0,0.0,0.0,0.0,0.0,0.0,1.5856,1.7326,1.8299,1.9106,1.952,1.8973,1.8464,1.7781,1.6436,1.5753,1.509,1.3845,1.3597,1.3597,1.3597,1.3597,1.4175,1.5952,1.6531,1.7709,2.0436,0.0,0.0,0.0,0.0,0.0,0.0,0.0,0.0,0.0,0.0,0.0,0.0,0.0,2.9994,2.9994,2.9994,2.9994,2.9994,2.9994,2.9994,2.9994,2.9994,2.9994,2.9994,2.9994,0.0,0.0,0.0,0.0,0.0,2.9001,2.8607,2.8524,2.7614,2.7309,2.7309,2.7309,2.7309,2.7309,0.0,0.0,0.0,0.0,0.0,0.0,0.0,1.2432,1.286,1.4079,1.3758,1.3845,1.5037,1.4093,1.3874,1.5066,1.4616,0.0,0.0,0.0,0.0,0.0,0.0,0.0,1.4058,1.462,1.5437,1.65,1.7702,1.8304,1.838,1.8882,1.8555,1.7498,1.6898,1.6575,0.0,0.0,0.0,0.0,1.5825,1.5272,0.0,0.0,0.0,0.0,0.0,0.0,0.0,0.0,0.0,0.0,0.0,0.0,0.0,0.0,0.0,0.0,0.0,1.7781,1.8144,1.8082,1.7761,1.711,1.5835,1.5235,0.0,1.3807,1.3597,1.3641,1.3817,1.3727,1.4035,1.5232,1.6119,1.7554,2.0245,2.1901,0.0,0.0,0.0,0.0,0.0,0.0,0.0,0.0,0.0,0.0,0.0,0.0,2.9994,2.9994,2.9994,2.9994,2.9994,2.9994,2.9994,2.9994,2.9994,2.9994,2.9994,2.9994,0.0,0.0,0.0,0.0,0.0,2.9001,2.8607,2.8524,2.7614,2.7309,2.7309,2.7309,2.7309,2.7309,0.0,0.0,0.0,0.0,0.0,0.0,0.0,0.0,0.0,0.0,1.3601,1.3604,1.3883,1.361,1.3525,0.0,0.0,0.0,0.0,0.0,0.0,0.0,0.0,0.0,1.3805,1.4511,1.5437,1.65,1.8055,1.9258,2.0113,2.0239,1.9685,1.8581,1.8053,1.7325,0.0,0.0,0.0,0.0,1.6318,1.599,0.0,0.0,0.0,0.0,1.3881,1.3858,0.0,0.0,0.0,0.0,0.0,0.0,0.0,0.0,1.3824,1.401,1.4444,0.0,1.5628,1.4904,1.4925,1.4899,0.0,1.4304,1.4304,1.3721,1.3597,1.4101,1.5745,1.4999,1.5316,1.8949,1.9241,1.9844,2.2211,0.0,0.0,0.0,0.0,0.0,0.0,0.0,0.0,0.0,0.0,0.0,0.0,0.0,2.9994,2.9994,2.9994,2.9994,2.9994,2.9994,2.9994,2.9994,2.9994,2.9994,2.9994,2.9994,0.0,0.0,0.0,0.0,2.9932,2.9001,2.8607,2.8524,2.7614,2.7309,2.7309,2.7309,2.7309,2.7309,0.0,0.0,0.0,0.0,0.0,0.0,0.0,0.0,0.0,0.0,1.3552,1.3513,1.3513,1.3737,1.3769,0.0,0.0,0.0,0.0,0.0,0.0,0.0,0.0,1.3933,1.4454,1.477,1.5688,1.7277,1.8251,1.9409,2.0691,2.0521,1.999,1.9056,1.7998,1.7144,0.0,0.0,0.0,1.6149,1.64,0.0,0.0,0.0,0.0,0.0,1.4233,1.4163,0.0,1.3787,1.3597,1.3597,0.0,0.0,0.0,0.0,1.3597,1.3597,1.3597,1.4304,1.4883,1.4366,1.4428,1.4552,1.4304,1.4289,1.4201,1.3686,1.3975,1.4627,1.5765,1.5583,1.6248,1.9265,1.9784,2.088,0.0,0.0,0.0,0.0,0.0,0.0,0.0,0.0,0.0,0.0,0.0,0.0,0.0,0.0,3.0733,3.0733,3.0235,2.9994,2.9994,2.9994,2.9994,2.9994,2.9994,2.9994,2.9994,2.9994,0.0,0.0,0.0,0.0,3.027,2.9099,2.8731,2.8851,2.7723,2.7309,2.7309,2.7309,2.7309,2.7309,0.0,0.0,0.0,0.0,0.0,0.0,0.0,0.0,0.0,0.0,0.0,0.0,0.0,0.0,0.0,0.0,0.0,0.0,0.0,0.0,0.0,0.0,1.4241,1.4392,1.5496,1.519,1.6022,1.8125,1.8496,1.9382,2.0772,2.0653,2.0118,1.9153,1.7555,1.6751,1.6565,1.6565,1.6288,1.5889,1.6367,0.0,0.0,0.0,0.0,0.0,0.0,0.0,0.0,1.3905,1.3668,1.3597,1.3597,0.0,0.0,0.0,0.0,0.0,1.3762,1.4552,1.5235,1.4966,1.5007,1.509,1.5007,1.4736,1.4378,1.402,1.4639,1.5373,1.5907,1.6407,1.7313,1.8987,0.0,0.0,0.0,0.0,0.0,0.0,0.0,0.0,0.0,0.0,0.0,0.0,0.0,0.0,0.0,0.0,0.0,3.1819,3.0785,3.0235,3.0235,3.0099,2.9994,2.9994,3.0151,3.0235,3.0235,3.0391,3.0391,0.0,0.0,0.0,3.0721,2.9522,2.9299,2.9496,2.8047,2.762,2.7715,2.7573,2.762,2.7762,0.0,0.0,0.0,0.0,0.0,0.0,0.0,0.0,0.0,0.0,0.0,0.0,0.0,0.0,0.0,0.0,0.0,0.0,0.0,0.0,0.0,1.5389,1.4889,1.5065,1.6055,1.5671,1.6249,1.7795,1.9223,2.0322,2.1063,2.1961,2.1322,1.9324,1.8073,1.7281,1.6846,1.6846,1.6731,1.6549,0.0,0.0,0.0,0.0,0.0,0.0,0.0,0.0,0.0,1.4443,1.3975,1.3597,1.3597,0.0,0.0,0.0,0.0,0.0,1.4573,1.5704,1.6324,1.48,1.5007,1.5484,1.509,1.4935,1.5037,1.547,1.5672,1.6773,1.9989,1.9317,1.9346,0.0,0.0,0.0,0.0,0.0,0.0,0.0,0.0,0.0,0.0,0.0,0.0,0.0,0.0,0.0,0.0,0.0,0.0,3.2951,3.1942,3.133,3.133,3.0443,2.9994,2.9994,3.094,3.133,3.1381,3.2297,3.2196,0.0,0.0,3.1957,3.0821,3.1121,3.0961,3.044,2.9039,2.9002,2.9669,2.8817,2.9026,2.9761,0.0,0.0,0.0,0.0,0.0,0.0,0.0,0.0,0.0,0.0,0.0,0.0,0.0,0.0,0.0,0.0,0.0,0.0,0.0,1.5492,1.5699,1.6098,1.5854,1.6145,1.7038,1.7419,1.8225,1.9467,2.0692,2.1538,2.2014,2.1685,2.063,1.9031,1.7849,1.7162,1.691,1.691,1.6867,1.6803,0.0,0.0,0.0,0.0,0.0,0.0,0.0,0.0,0.0,0.0,1.4046,1.3597,1.3597,0.0,0.0,0.0,0.0,0.0,1.4138,1.5256,1.6251,1.6085,1.709,1.7999,1.7585,1.7801,1.8125,1.8121,1.853,1.9456,2.1158,0.0,2.2292,2.5355,0.0,0.0,0.0,0.0,0.0,0.0,0.0,0.0,0.0,0.0,0.0,0.0,0.0,0.0,0.0,0.0,0.0,0.0,3.3028,3.2448,3.2448,3.1993,3.1146,2.9994,3.0495,3.1043,3.1637,3.2095,3.2398,3.2476,0.0,3.2489,3.2009,3.1456,3.1252,3.1129,2.9943,2.9806,3.0125,2.9669,2.9806,3.0215,0.0,0.0,0.0,0.0,0.0,0.0,0.0,0.0,0.0,0.0,0.0,0.0,0.0,0.0,0.0,0.0,0.0,0.0,0.0,1.5566,1.5876,1.659,1.687,1.75,1.8483,1.9146,2.0128,2.1551,2.2269,2.2721,2.2864,2.1225,1.9876,1.8783,1.7726,1.714,1.6947,1.6947,1.6952,1.6931,0.0,0.0,0.0,0.0,0.0,0.0,0.0,0.0,0.0,0.0,0.0,0.0,0.0,0.0,0.0,1.3644,1.3597,1.3638,1.389,1.4878,1.6117,1.7123,1.8441,1.9584,2.0093,2.038,2.0593,2.0884,2.152,2.2184,2.252,2.3666,0.0,0.0,0.0,0.0,0.0,0.0,0.0,0.0,0.0,0.0,0.0,0.0,0.0,0.0,0.0,0.0,0.0,0.0,0.0,0.0,3.4141,3.3549,3.3549,3.335,3.2398,3.0754,3.0991,3.1534,3.2376,3.2464,3.2818,3.3389,3.3071,3.2936,3.2833,3.1899,3.1677,3.1845,3.089,3.0531,3.0576,3.08,3.089,3.089,0.0,0.0,0.0,0.0,0.0,0.0,0.0,0.0,0.0,0.0,0.0,0.0,0.0,0.0,0.0,0.0,0.0,0.0,1.5595,1.5712,1.6054,1.6681,1.7891,1.9199,2.0654,2.0142,2.0933,2.311,2.3678,2.3687,2.3121,2.1479,2.0046,1.8875,1.8274,1.77,1.7178,1.7178,1.7115,1.6968,1.6968,0.0,0.0,0.0,0.0,0.0,0.0,0.0,0.0,0.0,0.0,0.0,0.0,0.0,1.4233,1.3763,1.3597,1.3783,1.4656,1.5622,1.6455,1.6913,1.7128,1.8053,2.1275,2.0859,2.0523,2.3095,2.3692,2.4206,2.5843,2.6773,0.0,0.0,0.0,0.0,0.0,0.0,0.0,0.0,0.0,0.0,0.0,0.0,0.0,0.0,0.0,0.0,0.0,0.0,0.0,0.0,0.0,3.4678,3.4678,3.3697,3.3101,3.3001,3.3993,3.4483,3.4557,3.5008,3.474,3.3958,3.4361,3.3728,3.2445,3.3321,3.3396,3.2896,3.1889,3.1492,3.1625,3.2525,3.2896,3.2896,0.0,0.0,0.0,0.0,0.0,0.0,0.0,0.0,0.0,0.0,0.0,1.4222,1.328,0.0,0.0,0.0,0.0,0.0,1.5696,1.577,1.6069,1.6651,1.7593,1.8926,2.0735,2.2123,2.3281,2.4177,2.4481,2.3935,2.2629,2.124,1.9987,1.8872,1.7957,1.7408,1.7199,1.7199,1.7178,1.7115,1.7115,1.7052,0.0,0.0,0.0,0.0,0.0,0.0,0.0,0.0,1.4832,1.4628,1.479,1.4628,1.435,1.4163,1.4093,1.4178,1.4543,1.6325,1.8197,1.8674,1.9523,2.0638,2.2263,2.3295,2.4511,2.6569,2.6749,2.682,2.7809,0.0,0.0,0.0,0.0,0.0,0.0,0.0,0.0,0.0,0.0,0.0,0.0,0.0,0.0,0.0,0.0,0.0,0.0,0.0,0.0,0.0,0.0,3.5614,3.5221,3.4843,3.4458,3.4143,3.3931,3.3975,3.4342,3.4481,3.4541,3.4428,3.427,3.3876,3.3316,3.3346,3.3269,3.3068,3.268,3.2525,3.2568,3.2939,3.3111,3.3111,0.0,0.0,0.0,0.0,0.0,0.0,0.0,0.0,1.5465,0.0,0.0,0.0,0.0,1.3825,0.0,0.0,0.0,0.0,1.5769,1.5799,1.6069,1.6651,1.7533,1.8745,2.0348,2.2751,2.4215,2.4668,2.4615,2.385,2.2446,2.1113,2.0028,1.9076,1.7969,1.7486,1.746,1.7277,1.7199,1.7199,1.7199,1.7157,0.0,0.0,0.0,0.0,0.0,0.0,0.0,0.0,1.4907,1.4808,1.5215,1.5085,1.4789,1.4674,1.4873,1.512,1.512,1.6945,1.9077,1.9936,2.1182,2.2528,2.3749,2.5133,2.6806,2.9013,2.9113,2.9026,2.9364,2.9779,0.0,0.0,0.0,0.0,0.0,0.0,0.0,0.0,0.0,0.0,0.0,0.0,0.0,0.0,0.0,0.0,0.0,0.0,0.0,0.0,0.0,0.0,3.5232,3.5232,3.5056,3.468,3.3981,3.3863,3.421,3.4064,3.4163,3.4424,3.3872,3.3646,3.3621,3.3244,3.3111,3.3111,3.3111,3.3111,3.3111,3.3111,3.3111,3.3111,0.0,0.0,0.0,0.0,0.0,0.0,0.0,0.0,1.511,1.4836,1.4244,0.0,0.0,0.0,0.0,0.0,0.0,0.0,1.5799,1.5799,1.6069,1.6651,1.7968,1.9001,1.9678,2.1655,2.331,2.4575,2.4112,2.356,2.2846,2.1268,2.0188,1.9552,1.8548,1.8087,1.8061,1.746,1.7199,1.7199,1.7199,1.7199,1.7146,0.0,0.0,0.0,0.0,0.0,0.0,0.0,1.5295,1.5707,1.5784,1.5798,1.5712,1.5244,1.5868,1.6703,1.6703,1.7498,1.871,2.0305,2.1558,2.3049,2.5795,2.603,2.6589,2.9938,3.0633,3.0633,3.0633,3.0633,0.0,0.0,0.0,0.0,0.0,0.0,0.0,0.0,0.0,0.0,0.0,0.0,0.0,0.0,0.0,0.0,0.0,0.0,0.0,0.0,0.0,0.0,3.468,3.468,3.468,3.4655,3.4655,3.47,3.4655,3.4148,3.3897,3.3847,3.3319,3.3111,3.3111,3.3111,3.3111,3.3111,3.3111,3.3111,3.3111,3.3111,3.3111,3.3111,0.0,0.0,0.0,0.0,0.0,0.0,0.0,0.0,1.5631,1.4896,1.5035,0.0,0.0,0.0,0.0,0.0,0.0,0.0,1.5799,1.5799,1.5888,1.6054,1.7326,1.8087,1.8296,2.024,2.1934,2.3251,2.3539,2.2944,2.1476,2.1112,2.0238,1.8973,1.8995,1.8443,1.7481,1.7562,1.7468,1.7199,1.7199,1.7199,1.7173,0.0,0.0,0.0,0.0,0.0,0.0,0.0,0.0,0.0,1.5789,1.5877,1.58,1.5758,1.6167,1.6646,1.6646,1.8556,2.0744,2.1613,2.3835,2.6129,2.7304,2.7766,2.8525,3.0693,3.1461,3.1612,3.1235,3.116,0.0,0.0,0.0,0.0,0.0,0.0,0.0,0.0,0.0,0.0,0.0,0.0,0.0,0.0,0.0,0.0,0.0,0.0,0.0,0.0,0.0,0.0,3.4148,3.4148,3.3947,3.3571,3.3571,3.3771,3.4148,3.3972,3.3696,3.3319,3.3144,3.3111,3.3111,3.3111,3.3111,3.3111,3.3111,3.3111,3.3111,3.3111,3.3111,3.3111,0.0,0.0,0.0,0.0,0.0,0.0,1.5193,1.5652,1.586,1.5273,1.5319,1.5335,0.0,0.0,0.0,1.5769,1.5799,0.0,1.5799,1.5799,1.5904,1.6159,1.716,1.7938,1.8476,1.9941,2.0976,2.1505,2.2433,2.215,2.0821,2.1216,2.0768,1.9586,1.9986,1.9502,1.8428,1.8268,1.7902,1.7427,1.7261,1.7199,1.7199,0.0,0.0,0.0,0.0,0.0,0.0,0.0,0.0,0.0,1.5803,1.5789,1.5673,1.6139,1.6806,1.7549,1.8339,2.0407,2.2702,2.396,2.5946,2.7845,2.9061,2.9618,3.0181,3.1185,3.1838,3.2114,3.1788,0.0,0.0,0.0,0.0,0.0,0.0,0.0,0.0,0.0,0.0,0.0,0.0,0.0,0.0,0.0,0.0,0.0,0.0,0.0,0.0,0.0,0.0,0.0,3.3571,3.3571,3.3395,3.3111,3.3111,3.3244,3.3571,3.3571,3.3395,3.3111,3.3111,3.3111,3.3111,3.3111,3.3111,3.3111,3.3111,3.3111,3.3111,3.3111,3.3111,3.3111,0.0,0.0,1.5653,1.5027,0.0,0.0,1.5384,1.555,1.578,1.5842,1.5229,1.5065,0.0,0.0,0.0,1.5739,1.5799,1.5799,1.5799,1.5799,1.6069,1.6651,1.7384,1.8386,1.9678,2.0288,2.0318,1.9708,2.0976,2.1276,2.0628,2.1486,2.1489,2.0848,2.1176,2.0924,2.0154,1.9224,1.8419,1.7767,1.7406,1.724,1.7199,1.7146,0.0,0.0,0.0,0.0,0.0,0.0,0.0,0.0,1.5792,1.5639,1.544,1.6379,1.7495,1.8869,2.0873,2.2483,2.4218,2.6653,2.7697,2.8662,3.0676,3.1269,3.1377,3.1427,3.1838,3.2215,3.2256,0.0,0.0,0.0,0.0,0.0,0.0,0.0,0.0,0.0,0.0,0.0,0.0,0.0,0.0,0.0,0.0,0.0,0.0,0.0,0.0,0.0,0.0,0.0,3.3111,3.3111,3.3111,0.0,3.3154,3.3154,3.3111,3.3111,3.3111,3.3111,3.3111,3.3111,3.3111,3.3111,3.3111,3.3111,3.3111,3.3111,3.3111,3.3111,3.3111,3.3111,0.0,0.0,1.5209,1.4506,0.0,0.0,1.5919,1.5687,1.5741,1.6058,1.5337,1.5065,1.5739,1.5679,0.0,1.5799,1.5799,1.5799,1.5799,1.5799,1.6069,1.6651,1.7848,1.8882,1.9678,1.9839,1.9839,1.9708,2.0528,2.0587,1.9929,2.1178,2.1226,2.0311,2.1195,2.0863,1.9549,1.9196,1.8582,1.7787,1.7707,1.7488,1.7146,1.6728,1.6493,0.0,0.0,0.0,0.0,0.0,0.0,0.0,1.5691,1.5724,1.5895,1.6206,1.7038,1.8275,2.0067,2.1756,2.3654,2.6381,2.8462,2.9996,3.0483,3.0906,3.1323,3.1554,3.2044,3.2449,0.0,0.0,0.0,0.0,0.0,0.0,0.0,0.0,0.0,0.0,0.0,0.0,0.0,0.0,0.0,0.0,0.0,0.0,0.0,0.0,0.0,0.0,0.0,3.3283,3.3111,3.3283,3.3368,0.0,3.3513,3.3471,3.3326,3.3154,3.3111,3.3111,3.3111,3.3111,3.3111,3.3111,3.3111,3.3111,3.3111,3.3111,3.3111,3.3111,3.3111,3.3111,0.0,0.0,0.0,0.0,0.0,0.0,0.0,0.0,1.5526,1.5947,1.5583,1.5395,1.5769,1.5799,0.0,0.0,1.5799,1.5799,1.5799,1.5799,1.6203,1.7145,1.8446,1.9181,1.9211,1.9211,1.9211,1.9211,1.957,1.9899,2.0198,2.1565,2.2012,2.1798,2.236,2.2008,2.0921,1.9963,1.9132,1.8403,1.8206,1.7725,1.7077,1.6803,1.6401,1.597,1.597,0.0,0.0,0.0,0.0,0.0,0.0,0.0,1.5492,1.6338,1.6829,1.7661,2.0348,2.2433,2.4671,2.8066,2.9682,3.0444,3.0634,3.0829,3.1023,3.1214,3.1811,0.0,0.0,0.0,0.0,0.0,0.0,0.0,0.0,0.0,0.0,0.0,0.0,0.0,0.0,0.0,0.0,0.0,0.0,0.0,0.0,0.0,0.0,0.0,3.3471,3.3471,3.3386,3.3471,3.3556,3.3556,3.3641,3.3641,3.3513,3.324,3.3111,3.3111,3.3197,3.324,3.324,3.3368,3.3386,3.3386,3.3386,3.3326,3.324,3.324,3.3197,3.3111,0.0,0.0,0.0,0.0,0.0,0.0,0.0,0.0,0.0,1.5893,1.5792,1.5736,1.5799,1.5799,1.5799,0.0,0.0,0.0,1.5799,1.5904,1.6428,1.7473,1.8702,1.9091,1.8553,1.8523,1.8565,1.8702,1.8702,1.957,2.1226,2.2254,2.3032,2.361,2.349,2.3122,2.2413,2.0617,1.9497,1.889,1.8427,1.773,1.6883,1.682,1.6206,1.5436,1.5436,1.5713,1.6101,1.631,0.0,0.0,0.0,0.0,1.5011,1.6353,1.6595,1.711,2.0373,2.3142,2.6039,2.9745,3.0618,3.0596,3.0898,3.0887,3.0736,3.0736,0.0,0.0,0.0,0.0,0.0,0.0,0.0,0.0,0.0,0.0,0.0,0.0,0.0,0.0,0.0,0.0,0.0,0.0,0.0,0.0,0.0,0.0,3.381,3.3725,3.3768,3.3768,3.3725,3.3768,3.3768,3.3768,3.3768,3.3768,3.3768,3.3368,3.3197,3.3197,3.3386,3.3428,3.3471,3.3641,3.3725,3.3725,3.3725,3.3598,3.3428,3.3428,3.3368,3.3197,0.0,0.0,0.0,0.0,0.0,0.0,0.0,0.0,0.0,0.0,1.5787,1.5411,1.5767,1.5799,1.5799,1.5799,1.5799,1.5799,1.5799,0.0,0.0,1.6846,1.7563,1.7938,1.7848,1.7848,1.8117,1.8702,1.8702,2.0258,2.3221,2.2853,2.3032,2.358,2.3062,2.2463,2.1695,1.9725,1.8632,1.8176,1.7545,1.6997,1.6514,1.5992,1.5538,1.5146,1.5146,1.5008,1.5021,1.6049,1.6388,0.0,0.0,0.0,0.0,1.5638,1.6049,1.6728,1.8226,2.2086,2.6321,2.8856,3.0205,3.0936,3.0973,3.0999,3.0962,0.0,0.0,0.0,0.0,0.0,0.0,0.0,0.0,0.0,0.0,0.0,0.0,0.0,0.0,0.0,0.0,0.0,0.0,0.0,0.0,0.0,0.0,3.423,3.4105,3.3725,3.3937,3.3937,3.3725,3.3937,3.4047,3.4047,3.4047,3.4047,3.4047,3.3768,3.3641,3.3641,3.3641,3.3683,3.3683,3.3683,3.3725,3.3725,3.3725,3.3683,3.3683,3.3683,3.3641,3.3641,0.0,0.0,0.0,0.0,0.0,0.0,0.0,0.0,0.0,0.0,0.0,1.5623,1.5826,1.5813,1.5799,1.5799,1.5799,1.5799,1.5799,1.6353,1.6711,1.6711,1.7324,1.7503,1.7145,1.7145,1.7473,1.8147,1.7758,1.9851,2.4156,2.3909,2.4717,2.6333,2.4956,2.3939,2.317,2.0808,1.9284,1.8413,1.8118,1.8232,1.8387,1.6632,1.6474,1.6894,1.5244,1.4752,1.4981,1.568,1.6101,1.6388,1.6388,0.0,0.0,0.0,1.5466,1.6049,1.9159,2.24,2.5558,2.8543,2.9702,3.0189,3.0843,3.0973,3.0973,0.0,0.0,0.0,0.0,0.0,0.0,0.0,0.0,0.0,0.0,0.0,0.0,0.0,0.0,0.0,0.0,0.0,0.0,0.0,0.0,0.0,3.4272,3.4356,3.4314,3.4105,3.4189,3.423,3.4105,3.4189,3.4272,3.4272,3.4272,3.4272,3.4272,3.4147,3.3937,3.3725,3.3852,3.3937,3.3937,3.4063,3.4105,3.4105,3.4105,3.4021,3.3937,3.3937,3.3852,3.3725,0.0,0.0,0.0,0.0,0.0,0.0,0.0,0.0,0.0,0.0,0.0,1.5899,1.587,0.0,0.0,0.0,1.5799,1.5799,1.5799,1.6219,1.6458,1.6458,1.6951,1.6981,1.6488,1.6458,1.6786,1.7443,1.7115,1.9564,2.4605,2.4784,2.6458,2.9265,2.726,2.5591,2.4186,2.1914,2.0378,1.945,1.9301,1.9664,2.0196,1.8884,1.9022,1.9475,1.6846,1.5997,1.6082,1.5808,1.6023,1.6388,0.0,0.0,0.0,0.0,0.0,1.5291,1.9499,2.1799,2.3812,2.7131,2.8412,2.9144,3.0294,0.0,0.0,0.0,0.0,0.0,0.0,0.0,0.0,0.0,0.0,0.0,0.0,0.0,0.0,0.0,0.0,0.0,0.0,0.0,0.0,0.0,0.0,0.0,3.4188,3.4188,3.4267,3.4397,3.4397,3.4397,3.4397,3.4397,3.4397,3.4397,3.4397,3.4397,3.4397,3.4397,3.423,3.3894,3.4063,3.4189,3.4189,3.4356,3.4397,3.4397,3.4397,3.4314,3.4189,3.4189,3.4063,3.3894,0.0,0.0,0.0,0.0,0.0,0.0,1.6118,1.6625,0.0,0.0,0.0,1.608,1.5842,1.5799,1.5799,1.5799,1.5799,1.5799,1.5799,1.5829,1.5858,1.5858,1.5888,0.0,1.5858,1.5858,1.6129,1.6741,1.7354,2.003,2.4605,2.5232,2.7624,3.1271,2.9325,2.6662,2.355,2.2203,2.1605,2.1485,2.0838,2.0628,2.0938,2.3298,2.3637,2.2637,2.089,1.969,0.0,0.0,0.0,0.0,0.0,1.597,1.5395,0.0,0.0,0.0,1.746,1.9133,2.0727,2.3655,2.5976,2.7915,0.0,0.0,0.0,0.0,0.0,0.0,0.0,0.0,0.0,0.0,0.0,0.0,0.0,0.0,0.0,0.0,0.0,0.0,0.0,0.0,0.0,0.0,0.0,0.0,3.3613,3.3639,3.3875,3.4371,3.4397,3.4397,3.4397,3.4397,3.4397,3.4397,3.4397,3.4397,3.4397,3.4397,3.4397,3.4356,3.4397,3.4397,3.4397,3.4397,3.4397,3.4397,3.4397,3.4397,3.4397,3.4397,3.4397,3.4356,0.0,0.0,0.0,0.0,0.0,0.0,1.6674,1.6778,1.6722,0.0,0.0,0.0,0.0,1.5899,1.5856,1.5856,1.5856,1.5842,1.5799,1.5799,1.5799,1.5799,1.5799,1.5799,1.5799,1.5799,1.6143,1.6834,1.6967,1.9031,2.2825,2.3841,2.5292,2.7086,2.726,2.6871,2.5967,2.2951,2.1695,2.1724,2.1904,2.2981,2.4448,2.4088,2.5335,2.6856,2.3931,0.0,0.0,0.0,0.0,0.0,1.6165,1.5657,1.5291,1.4367,1.4472,1.5204,1.6624,1.8087,1.9734,2.1877,2.4178,2.619,2.7373,0.0,0.0,0.0,0.0,0.0,0.0,0.0,0.0,0.0,0.0,0.0,0.0,0.0,0.0,0.0,0.0,0.0,0.0,0.0,0.0,0.0,0.0,0.0,3.3012,3.3012,3.3117,3.33,3.33,3.3483,3.3875,3.4214,3.4397,3.4397,3.4397,3.4397,3.4397,3.4397,3.4397,3.4397,3.4397,3.4397,3.4397,3.4397,3.4397,3.4397,3.4397,3.4397,3.4397,3.4397,3.4397,3.4397,0.0,0.0,1.7076,1.7454,0.0,1.7308,1.6863,1.6735,1.657,1.6136,0.0,0.0,0.0,0.0,1.6502,1.6261,1.6035,1.587,1.5827,1.5827,1.5842,1.587,1.6096,1.6096,1.587,1.6067,1.6307,1.6563,1.6653,1.833,2.1502,2.2484,2.3691,2.5002,2.4979,2.5698,2.6776,2.4358,2.3221,2.3101,2.4208,2.5608,2.6956,2.7195,2.8487,2.9899,0.0,0.0,0.0,0.0,0.0,0.0,1.7511,1.6163,1.5003,1.4079,1.4472,1.5317,1.5918,1.7199,1.8845,2.0989,2.2558,2.4102,2.6222,0.0,0.0,0.0,0.0,0.0,0.0,0.0,0.0,0.0,0.0,0.0,0.0,0.0,0.0,0.0,0.0,0.0,0.0,0.0,0.0,0.0,0.0,0.0,3.2411,3.2411,3.2489,3.2672,3.2698,3.2881,3.3273,3.3849,3.4136,3.4136,3.4319,3.4397,3.4397,3.4397,3.4397,3.4397,3.4397,3.4397,3.4397,3.4397,3.4397,3.4397,3.4397,3.4397,3.4397,3.4397,3.4397,3.4397,1.7294,1.7413,1.7362,1.7072,1.7054,1.6953,1.6712,1.6588,1.6485,1.6183,0.0,0.0,0.0,0.0,0.0,1.7,1.6321,1.5915,1.5915,1.5915,1.5927,1.5982,1.6635,1.6696,1.6057,1.6607,1.6593,1.5929,1.6473,1.809,2.0719,2.1315,2.3044,2.5537,2.2894,2.3131,2.5555,2.6153,2.6093,2.5824,2.7739,2.8188,2.8214,3.2706,3.3245,0.0,3.1161,3.0132,0.0,2.6349,0.0,0.0,0.0,1.7497,1.4524,1.4018,1.4236,1.4768,0.0,0.0,0.0,0.0,0.0,0.0,0.0,0.0,0.0,0.0,0.0,0.0,0.0,0.0,0.0,0.0,0.0,0.0,0.0,0.0,0.0,0.0,0.0,0.0,0.0,0.0,0.0,0.0,0.0,3.1235,3.1745,3.1771,3.2032,3.262,3.2646,3.2672,3.2672,3.3273,3.3561,3.3561,3.4084,3.4345,3.4371,3.4371,3.4371,3.4397,3.4397,3.4397,3.4397,3.4397,3.4397,3.4397,3.4397,3.4397,3.4397,3.4397,3.4397,3.4397,1.7394,1.7786,1.8099,1.8024,1.824,1.8363,1.8079,1.8022,1.7905,0.0,0.0,0.0,1.7807,1.7944,1.799,1.7729,1.7091,1.6697,1.6623,1.6127,1.5827,1.5856,1.6458,1.6759,1.6653,1.7302,1.7348,1.6755,1.7348,1.7771,1.8059,1.9105,2.0494,2.2094,2.1834,2.2353,2.3422,2.2164,2.3721,2.7016,2.6602,2.8338,3.124,0.0,0.0,0.0,0.0,3.2646,3.1278,0.0,2.7432,2.4427,0.0,1.7835,1.5667,1.5524,1.5663,1.584,1.5552,0.0,0.0,0.0,0.0,0.0,0.0,0.0,0.0,0.0,0.0,0.0,0.0,0.0,0.0,0.0,0.0,0.0,0.0,0.0,0.0,0.0,0.0,0.0,0.0,0.0,0.0,0.0,3.0973,3.1052,3.1209,3.1235,3.1287,3.1444,3.1862,3.2032,3.2032,3.2646,3.2934,3.2934,3.3091,3.3404,3.3822,3.3822,3.4031,3.4397,3.4397,3.4397,3.4397,3.4397,3.4397,3.4397,3.4397,3.4397,3.4397,3.4397,3.4397,3.4397,1.7582,1.8157,1.8697,1.8772,1.8954,1.9153,1.9295,1.9077,1.8843,0.0,0.0,0.0,1.9373,1.9694,1.9599,1.8982,1.802,1.7319,1.7,1.6592,1.6335,1.6394,1.7,1.7348,1.7456,1.8063,1.7973,1.7089,1.741,1.7364,1.703,1.8013,1.8869,1.9599,1.9978,2.0651,2.1394,1.9654,2.1794,2.6452,2.7619,2.9507,0.0,3.2766,3.3814,0.0,0.0,0.0,3.3245,3.2614,2.9894,0.0,2.2042,1.9654,1.806,1.6528,1.6925,1.7583,1.6494,1.7042,1.7957,0.0,0.0,0.0,0.0,0.0,0.0,0.0,0.0,0.0,0.0,0.0,0.0,0.0,0.0,0.0,0.0,0.0,0.0,0.0,0.0,0.0,0.0,0.0,0.0,0.0,3.0973,3.0973,3.0973,3.0973,3.0973,3.0973,3.1313,3.1496,3.1496,3.2045,3.2333,3.2333,3.2568,3.2881,3.3221,3.3221,3.3535,3.4058,3.4058,3.4188,3.4397,3.4397,3.4397,3.4397,3.4397,3.4397,3.4397,3.4397,3.4397,3.4397,0.0,1.8484,1.9231,1.9417,1.9473,1.9765,2.0518,2.0073,1.9703,0.0,1.9919,2.0443,2.172,2.2274,2.2021,2.075,1.9215,1.8067,1.7486,1.7211,1.7134,1.7271,1.7854,1.8222,1.8299,1.8895,1.8587,1.7349,1.7197,1.7136,1.7136,1.7653,1.7941,1.7986,1.8077,1.8694,1.9665,1.8821,2.0903,2.5129,2.9179,3.0851,0.0,0.0,3.4622,3.3873,3.507,3.513,3.4593,3.4444,3.1664,2.77,2.4077,2.2535,0.0,0.0,1.8473,1.9845,1.8217,1.853,1.9511,0.0,0.0,0.0,2.1328,2.1249,0.0,0.0,0.0,0.0,0.0,0.0,0.0,0.0,0.0,0.0,0.0,0.0,0.0,0.0,0.0,0.0,0.0,0.0,3.0973,3.0973,3.0973,3.0973,3.0973,3.0973,3.0973,3.0973,3.0973,3.0973,3.0973,3.1458,3.1719,3.1719,3.2254,3.2542,3.2594,3.2594,3.296,3.3587,3.3587,3.3901,3.4397,3.4397,3.4397,3.4397,3.4397,3.4397,3.4397,3.4397,3.4397,3.4397,1.8546,1.9041,1.9767,2.0316,2.0674,2.1319,2.2551,2.2151,2.212,2.3179,2.3794,2.4471,2.5324,2.4502,2.3794,2.3528,2.1228,1.9752,1.9582,1.7975,1.7273,1.7822,1.7958,1.8309,1.8909,1.9565,1.9568,1.8869,1.8268,1.7945,1.7868,1.7471,1.7517,1.7952,1.8546,1.8893,1.9217,2.1622,2.3833,2.5796,2.6465,0.0,3.3156,3.3665,3.4412,3.516,3.54,3.5429,3.513,0.0,3.2408,3.0322,0.0,0.0,0.0,0.0,0.0,0.0,0.0,0.0,0.0,0.0,0.0,0.0,0.0,1.9496,0.0,0.0,0.0,0.0,0.0,0.0,0.0,0.0,0.0,0.0,0.0,0.0,0.0,0.0,0.0,0.0,0.0,0.0,3.0973,3.0973,3.0973,3.0973,3.0973,3.0973,3.0973,3.0973,3.0973,3.0973,3.0973,3.1104,3.1156,3.1156,3.1261,3.1548,3.198,3.198,3.2594,3.3587,3.3587,3.3901,3.4397,3.4397,3.4397,3.4397,3.4397,3.4397,3.4397,3.4397,3.4397,3.4397,1.9061,1.9641,2.0523,2.1352,2.1657,2.2347,2.404,2.3733,2.3794,2.5179,2.6534,2.7065,2.6441,2.6349,2.5795,2.4441,2.274,2.1308,2.0312,1.9234,1.8666,1.8666,1.865,1.8987,1.968,2.0018,1.9899,1.9302,1.8545,1.7992,1.7609,1.7639,1.8159,1.9054,1.9121,1.9854,2.1075,2.1686,2.3324,2.5682,2.7821,0.0,3.391,3.4513,3.5113,3.5589,3.5716,3.5683,3.5379,3.3964,3.2826,0.0,0.0,2.8416,2.7672,0.0,2.4762,2.52,0.0,0.0,0.0,2.1794,0.0,0.0,0.0,0.0,0.0,0.0,0.0,0.0,0.0,0.0,0.0,0.0,0.0,0.0,0.0,0.0,0.0,0.0,0.0,0.0,0.0,0.0,3.0973,3.0973,3.0973,3.0973,3.0973,3.0973,3.0973,3.0973,3.0973,3.0973,3.0973,3.0973,3.0973,3.0973,3.0973,3.113,3.1418,3.1418,3.1888,3.2725,3.3012,3.3456,3.4005,3.4293,3.4397,3.4397,3.4397,3.4397,3.4397,3.4397,3.4397,3.4397,1.9586,2.0153,2.1019,2.1942,2.2317,2.3117,2.5004,2.4964,2.5241,2.678,2.8719,2.9371,2.7834,2.8473,2.8196,2.6226,2.4841,2.3414,2.175,2.106,2.0505,2.0104,1.958,1.9734,2.0641,2.0426,2.0042,1.9487,1.8607,1.7992,1.7517,1.7992,1.8835,1.9997,2.007,2.1252,2.3101,2.1797,2.3193,2.6565,0.0,3.2304,3.3393,3.4941,3.5484,3.5389,3.5819,3.5816,3.5507,3.4145,0.0,3.2646,3.061,3.049,0.0,0.0,0.0,0.0,0.0,0.0,0.0,0.0,0.0,2.2576,0.0,0.0,0.0,2.1433,0.0,0.0,0.0,0.0,0.0,0.0,0.0,0.0,0.0,0.0,0.0,0.0,0.0,0.0,0.0,0.0,3.0346,3.079,3.0503,3.0503,3.0973,3.0973,3.0973,3.0973,3.0973,3.0973,3.0973,3.0973,3.0973,3.0973,3.0973,3.0973,3.0973,3.0973,3.1287,3.1823,3.2333,3.2934,3.3613,3.4058,3.4319,3.4397,3.4397,3.4397,3.4397,3.4397,3.4397,3.4397,2.0213,2.0292,2.057,2.1288,2.2397,2.3671,2.5066,2.5795,2.6842,2.8812,3.0812,3.2198,3.2567,3.1674,3.1397,3.229,2.9027,2.6842,2.6595,2.3784,2.2305,2.2809,2.0566,2.0165,2.2028,2.0919,2.0258,2.0196,1.8853,1.8484,1.9039,1.8484,1.859,1.9321,2.1756,2.2985,2.3284,2.4845,2.7517,0.0,3.1117,3.0952,0.0,3.3065,3.4,3.4243,3.5361,3.572,3.5567,0.0,3.4541,3.4303,0.0,3.2226,0.0,0.0,0.0,0.0,0.0,0.0,0.0,0.0,2.6778,0.0,0.0,0.0,2.1485,1.9682,0.0,0.0,0.0,0.0,0.0,0.0,0.0,0.0,0.0,0.0,0.0,0.0,0.0,0.0,0.0,0.0,0.0,3.0048,2.8769,2.883,3.0869,3.0973,3.0973,3.0973,3.0973,3.0973,3.0973,3.0973,3.0973,3.0973,3.0973,3.0973,3.0973,3.0973,3.1287,3.1797,3.1876,3.2568,3.3587,3.3666,3.3979,3.4397,3.4397,3.4397,3.4397,3.4397,3.4397,3.4397,2.0354,2.032,2.0505,2.1165,2.2089,2.3302,2.5035,2.7919,3.0166,3.1028,3.2936,3.4137,3.4073,3.355,3.3118,3.2844,0.0,2.9643,0.0,0.0,2.521,2.5087,2.2859,2.2028,2.284,2.1565,2.069,2.032,1.9317,1.9008,1.9302,1.8978,2.0022,2.2167,2.2943,2.482,2.7356,2.7018,2.7939,0.0,0.0,0.0,0.0,3.3997,3.537,3.5431,3.5761,3.5878,3.5664,0.0,3.4089,0.0,0.0,0.0,0.0,0.0,0.0,0.0,0.0,0.0,0.0,0.0,0.0,0.0,0.0,0.0,2.1776,0.0,0.0,0.0,0.0,0.0,0.0,0.0,0.0,0.0,0.0,0.0,0.0,0.0,0.0,0.0,0.0,0.0,0.0,0.0,0.0,2.7889,2.9938,3.032,3.0634,3.0973,3.0973,3.0973,3.0973,3.0973,3.0973,3.0973,3.0973,3.0973,3.0973,3.0973,3.1104,3.1365,3.1667,3.2306,3.3091,3.3456,3.3927,3.4397,3.4397,3.4397,3.4397,3.4397,3.4397,3.4397,2.0601,2.0443,2.0505,2.1165,2.2028,2.3363,2.5773,2.9396,3.1982,3.2351,3.4073,3.5275,3.5337,3.5337,0.0,0.0,3.4229,3.2875,0.0,0.0,2.8258,2.7765,2.5426,0.0,2.441,2.2717,2.1442,2.0549,1.9703,1.9395,1.958,1.9395,2.0795,2.3486,2.3948,2.6287,2.9802,0.0,2.9438,3.0589,3.1955,3.2511,3.2765,3.5461,3.6568,3.6596,3.6406,3.6221,3.5854,3.4576,3.4091,0.0,3.3849,0.0,0.0,0.0,0.0,0.0,3.1719,0.0,0.0,0.0,0.0,0.0,0.0,0.0,0.0,0.0,0.0,0.0,0.0,0.0,0.0,0.0,0.0,0.0,0.0,0.0,0.0,0.0,0.0,0.0,0.0,0.0,0.0,0.0,0.0,0.0,2.9144,2.9666,3.0241,3.0973,3.0973,3.0973,3.0973,3.0973,3.0973,3.0973,3.0973,3.0973,3.0973,3.0973,3.0973,3.0999,3.1418,3.1902,3.2515,3.3091,3.3666,3.4188,3.4345,3.4397,3.4397,3.4397,3.4397,3.4397,2.1257,2.0734,2.0505,2.1165,2.2397,2.441,2.7796,2.9525,3.0909,3.2228,3.3642,0.0,0.0,0.0,0.0,0.0,0.0,3.703,3.6292,0.0,3.127,3.1213,0.0,2.6595,0.0,2.4625,2.2594,2.1257,1.995,1.9641,2.0258,1.961,2.0042,2.1535,2.4831,2.7119,2.8627,3.1151,3.3798,3.6168,3.5584,3.6507,3.8108,0.0,3.6687,3.701,3.7109,0.0,0.0,3.5246,3.5156,0.0,0.0,0.0,0.0,0.0,0.0,0.0,0.0,0.0,0.0,3.0372,0.0,0.0,0.0,0.0,2.4629,0.0,0.0,0.0,0.0,0.0,2.262,2.0964,0.0,0.0,0.0,0.0,0.0,0.0,0.0,0.0,0.0,0.0,0.0,0.0,0.0,0.0,2.9074,2.9336,2.9823,3.0947,3.0973,3.0973,3.0973,3.0973,3.0973,3.0973,3.0973,3.0973,3.0973,3.0973,3.0973,3.0973,3.0999,3.1339,3.1876,3.2489,3.3064,3.3666,3.4188,3.4397,3.4397,3.4397,3.4397,3.4397,2.2624,2.2459,2.2212,2.1997,2.3055,2.5272,2.9125,3.1243,3.3213,0.0,0.0,0.0,0.0,4.0201,4.0601,0.0,0.0,3.9708,3.8569,3.6168,0.0,0.0,0.0,2.9822,0.0,0.0,2.5118,2.3302,2.2397,2.1843,2.1627,2.0919,2.1565,2.3363,2.5456,2.7857,0.0,0.0,0.0,0.0,0.0,3.7646,3.9674,0.0,0.0,3.8006,3.8039,3.7546,0.0,3.656,3.5889,3.5187,3.5338,3.4912,3.4364,3.4577,3.4333,0.0,0.0,0.0,3.4024,3.2018,0.0,0.0,0.0,0.0,0.0,0.0,0.0,0.0,0.0,0.0,2.3315,2.1978,2.1047,2.0066,0.0,0.0,0.0,0.0,0.0,0.0,0.0,0.0,0.0,0.0,2.3158,0.0,0.0,2.8682,2.964,3.0361,3.079,3.0973,3.0973,3.0973,3.0973,3.0973,3.0973,3.0973,3.0973,3.0973,3.0973,3.0973,3.0973,3.1522,3.2411,3.262,3.3247,3.4136,3.4319,3.4397,3.4397,3.4397,3.4397,3.4397,2.401,2.401,2.3794,2.3117,2.4533,2.6903,3.0258,3.269,0.0,0.0,3.8292,0.0,4.174,0.0,4.214,0.0,4.2448,4.1617,3.9951,3.8662,0.0,3.7861,3.5091,0.0,0.0,3.0443,2.7796,2.5004,2.4348,2.3548,2.2624,2.1966,2.2471,2.404,2.5918,2.8196,3.0874,3.3919,3.5491,0.0,0.0,3.897,0.0,0.0,3.9062,3.8877,0.0,3.835,3.7638,3.7393,3.6686,3.595,3.6134,3.5553,3.4851,3.5339,3.5063,3.4666,3.5058,3.5086,0.0,3.3006,3.1713,0.0,2.755,0.0,0.0,0.0,0.0,0.0,0.0,0.0,2.4564,2.3454,2.1963,2.0535,0.0,0.0,0.0,0.0,0.0,0.0,0.0,0.0,2.0438,2.1982,2.2217,0.0,0.0,0.0,2.9118,3.0074,3.0686,3.0973,3.0973,3.0973,3.0973,3.0973,3.0973,3.0973,3.0973,3.0973,3.0973,3.0973,3.0973,3.1522,3.2411,3.2594,3.3247,3.4136,3.4319,3.4605,3.4827,3.4522,3.4397,3.4397,2.5435,2.5496,2.5342,2.4779,2.678,0.0,0.0,0.0,3.6045,0.0,3.8816,4.0416,4.2479,4.2694,4.3217,4.4517,4.4024,0.0,4.0812,4.0628,0.0,0.0,3.8015,3.6999,3.5737,3.3552,0.0,0.0,2.5773,2.4697,2.3425,2.2686,2.2717,2.3456,2.6164,2.8134,2.974,3.4414,3.7246,3.8662,3.9951,4.0505,4.0505,4.0505,4.0105,3.9521,3.9521,3.9123,3.8446,3.78,3.7584,3.7399,3.6534,3.6257,3.6225,3.6068,3.6005,3.6005,3.6005,3.6005,3.5518,3.3457,0.0,0.0,0.0,0.0,3.028,0.0,0.0,0.0,0.0,0.0,0.0,2.5228,2.333,2.1244,0.0,0.0,0.0,0.0,0.0,0.0,0.0,0.0,1.9104,2.125,2.0988,2.2192,0.0,0.0,2.8247,2.9944,3.066,3.0973,3.0973,3.0973,3.1011,3.1048,3.1011,3.1011,3.1048,3.1048,3.1048,3.1048,3.1112,3.1453,3.1992,3.2607,3.3211,3.3773,3.4271,3.495,3.5575,3.4744,3.4481,3.4481,2.7611,2.8387,2.9187,0.0,2.9766,3.0751,0.0,0.0,0.0,0.0,4.0509,4.1832,4.3864,4.4079,4.4202,4.4579,4.4456,0.0,0.0,0.0,0.0,4.2263,4.017,3.8846,3.8477,3.4968,0.0,3.0843,0.0,2.5918,2.5496,2.3825,2.3394,2.4133,2.5857,2.795,3.0356,3.3614,3.663,3.9339,4.0166,4.0505,0.0,0.0,4.0382,4.0228,4.0228,3.9797,3.9247,3.9029,3.8662,3.8138,3.7367,3.7182,3.7059,3.6536,3.6258,3.6163,3.6163,3.6068,3.5883,3.5305,3.4121,3.2842,0.0,0.0,0.0,0.0,0.0,0.0,0.0,0.0,0.0,2.5848,2.3785,2.2026,0.0,0.0,0.0,0.0,0.0,0.0,0.0,1.9057,1.993,2.0229,2.0884,2.2243,0.0,0.0,0.0,2.8804,3.0241,3.0973,3.0973,3.0973,3.1272,3.1809,3.1246,3.131,3.1809,3.1809,3.1809,3.1873,3.2928,3.3735,3.4306,3.4951,3.5171,3.5184,3.5278,3.5521,3.5655,3.5481,3.5399,3.5277,2.9643,0.0,0.0,3.3149,0.0,0.0,3.5614,0.0,0.0,4.0166,4.1401,0.0,4.3587,4.4233,4.461,4.461,4.461,0.0,0.0,0.0,0.0,4.3156,4.1955,4.1032,4.0447,3.7584,0.0,3.2382,0.0,2.7365,2.5834,2.441,2.3794,2.3948,2.5949,2.7827,2.9802,3.4014,3.7246,3.9551,4.0228,0.0,0.0,4.0505,4.0505,4.0505,4.0505,4.0259,3.989,3.9582,3.9244,3.8846,3.8169,3.7738,3.743,3.7061,3.666,3.6352,3.6352,3.6289,3.6195,3.61,3.5278,3.4331,3.3604,3.3423,3.3152,0.0,0.0,0.0,0.0,0.0,0.0,0.0,0.0,0.0,0.0,0.0,0.0,0.0,0.0,0.0,0.0,1.8757,1.9478,1.9698,2.0355,2.151,0.0,0.0,0.0,2.8312,2.98,3.0738,3.0973,3.132,3.17,3.2074,3.1663,3.17,3.2074,3.1773,3.1809,3.2137,3.3239,3.425,3.5152,3.5808,3.613,3.6227,3.6649,3.6766,3.6766,3.6766,3.657,3.6148,3.1701,0.0,0.0,0.0,0.0,0.0,0.0,3.8662,0.0,4.0843,0.0,4.3125,4.3125,4.4141,4.4849,4.4849,0.0,4.4233,4.3063,4.3987,4.4079,4.291,4.3347,4.3069,4.1894,4.0139,0.0,0.0,0.0,2.851,2.5404,2.4656,2.3948,2.3425,2.6072,2.7919,0.0,3.5091,3.8292,3.9551,4.0228,4.0505,4.0505,4.0505,4.0505,4.0505,4.0505,4.0505,4.0413,3.9828,3.9613,3.949,3.8846,3.8231,3.7738,3.7677,3.7153,3.663,3.663,3.6569,3.6445,3.6289,3.6227,3.589,3.4638,3.4303,3.4303,3.4303,3.3361,3.3178,0.0,0.0,0.0,0.0,0.0,0.0,0.0,0.0,0.0,0.0,0.0,0.0,0.0,1.8665,1.8772,1.9532,1.9638,2.0465,0.0,0.0,0.0,2.8395,2.9539,0.0,3.1283,0.0,3.2182,3.2398,3.229,3.229,3.2362,3.17,3.1827,3.2535,3.3312,3.439,3.5597,3.6258,3.675,3.7127,3.791,3.8202,3.8202,3.8315,3.791,3.7204,0.0,0.0,0.0,0.0,0.0,4.0474,4.1555,4.1832,4.2355,4.371,4.5064,4.5895,4.5895,4.6111,4.6234,4.6234,4.5741,0.0,0.0,0.0,0.0,4.4271,4.384,4.3501,4.3254,3.9708,3.7184,0.0,3.1059,2.7834,2.6111,2.485,2.3948,2.3394,2.558,2.8781,3.2752,3.6076,0.0,3.9551,4.0228,4.0505,4.0505,4.0505,4.0505,4.0505,4.0505,4.0505,4.0474,4.0351,4.032,4.0197,3.9521,3.9213,3.9062,3.8508,3.7861,3.7307,3.7307,3.6907,3.6476,3.6445,3.6445,3.6384,3.6137,3.5921,3.5828,3.5828,3.5645,3.5248,3.4486,0.0,0.0,0.0,0.0,0.0,0.0,0.0,0.0,0.0,0.0,0.0,0.0,0.0,2.0104,1.9419,1.9053,0.0,0.0,0.0,0.0,0.0,0.0,0.0,0.0,0.0,3.272,3.3939,3.3318,3.3318,3.3939,3.3802,3.4094,3.4813,3.6073,3.7098,3.7855,3.8536,3.8487,3.7985,3.8127,3.8202,3.8277,3.8973,3.9119,3.876,0.0,0.0,0.0,0.0,0.0,0.0,0.0,4.4756,0.0,4.4633,4.5157,4.5557,4.5557,4.6172,4.6603,4.6603,4.6296,4.6111,4.6111,4.5464,4.5133,4.5133,4.4486,0.0,4.3624,4.097,3.86,3.6507,3.2444,2.9243,2.6842,2.5465,2.4471,2.3948,2.6718,3.0197,0.0,0.0,0.0,3.9582,4.0662,4.0812,4.0536,4.0905,4.0812,4.0505,4.0505,4.0505,4.0505,4.0505,4.0505,4.0443,4.0105,3.9767,3.9428,3.9123,3.8569,3.7954,3.7584,3.7246,3.6938,3.6569,3.6507,3.6507,3.6507,3.6414,3.6352,3.6352,3.6352,3.5953,3.4513,3.2835,0.0,0.0,0.0,0.0,0.0,0.0,0.0,0.0,0.0,0.0,0.0,0.0,0.0,0.0,0.0,0.0,0.0,0.0,0.0,0.0,0.0,0.0,0.0,0.0,0.0,3.4312,3.3939,3.3973,3.4279,3.3905,3.4318,3.5369,3.6388,3.7416,3.8452,3.914,3.9156,3.8826,3.8826,3.8826,3.887,3.9265,3.9373,3.9265,0.0,4.1151,0.0,0.0,4.3587,0.0,4.5649,4.6942,4.725,4.5649,4.5434,4.5434,4.5434,4.6388,4.7034,4.7034,4.688,4.6819,4.6819,4.6172,4.5803,4.5803,4.5157,4.4579,4.4055,4.2571,4.0201,0.0,0.0,3.112,2.7796,2.6542,2.5834,2.5733,2.8719,0.0,0.0,0.0,3.8816,4.0262,4.137,4.1463,4.0997,4.1586,4.1463,4.0935,4.0782,4.072,4.0689,4.0536,4.0505,4.0505,4.0505,4.0136,3.9705,3.9705,3.9247,3.86,3.8077,3.7707,3.7369,3.6846,3.6599,3.6507,3.6507,3.6507,3.6507,3.6507,3.6507,3.6076,3.4751,3.3742,0.0,0.0,0.0,0.0,0.0,0.0,0.0,0.0,0.0,0.0,0.0,0.0,0.0,0.0,0.0,0.0,0.0,0.0,0.0,0.0,0.0,3.1317,3.3266,0.0,3.4413,0.0,3.4581,3.4581,3.4543,3.4083,3.4554,3.578,3.6453,3.7447,3.8661,3.92,3.9373,3.9373,3.9373,3.9373,3.9373,3.9373,3.9373,3.9373,0.0,0.0,0.0,0.0,0.0,0.0,0.0,4.765,4.845,4.8266,4.8235,4.8235,4.8235,4.8358,4.8419,4.8419,4.7865,4.7527,4.7527,4.688,4.6511,4.6511,4.5865,4.5464,4.5403,4.3494,4.1124,0.0,0.0,0.0,2.9187,2.8473,2.8725,2.9894,3.1428,0.0,0.0,3.8723,4.0478,4.2325,4.2448,4.2479,4.2417,4.2479,4.2479,4.2325,4.1709,4.1494,4.1401,4.072,4.0505,4.0505,4.0505,4.0443,4.0413,4.0413,3.992,3.9367,3.9339,3.8446,3.7492,3.743,3.6938,3.6507,3.6507,3.6507,3.6507,3.6507,3.6507,3.6076,3.4751,3.5368,3.5246,0.0,0.0,0.0,0.0,0.0,0.0,0.0,0.0,0.0,0.0,0.0,0.0,0.0,0.0,0.0,0.0,0.0,0.0,3.0513,0.0,3.1403,3.3447,3.4188,0.0,3.5392,3.5494,3.5524,3.5422,3.5952,3.6548,3.7242,3.7898,3.862,3.932,3.9343,3.9373,3.9373,3.9373,3.9373,3.9373,3.9373,3.9373,3.9373,0.0,0.0,0.0,0.0,0.0,0.0,0.0,4.8266,4.8604,4.8604,4.8604,4.8604,4.8604,4.8604,4.8604,4.8604,4.8358,4.8204,4.8204,4.7588,4.7188,4.7188,4.6542,4.5988,4.5588,4.4418,4.2663,0.0,0.0,0.0,0.0,3.1305,3.1736,3.3521,0.0,3.6907,3.9336,4.0355,4.1494,4.2633,4.3033,4.294,4.2633,4.3033,4.294,4.2571,4.2294,4.2202,4.2171,4.1863,4.1181,4.0505,4.0505,4.0505,4.0505,4.0505,4.029,4.0013,3.9582,3.9123,3.8508,3.7707,3.7307,3.6999,3.6569,3.6507,3.6507,3.6507,3.6507,3.6322,3.5799,3.5491,3.5213,0.0,0.0,0.0,0.0,0.0,0.0,0.0,0.0,0.0,0.0,0.0,0.0,0.0,0.0,0.0,0.0,0.0,0.0,2.9372,0.0,3.2524,3.3667,3.4835,3.5559,3.5812,3.5846,3.6058,3.6416,3.6658,3.7352,3.8379,3.9073,3.9526,3.9762,3.9625,3.9589,3.9553,3.9445,3.9481,3.9589,3.9589,3.9661,3.9762,4.685,0.0,4.5988,0.0,4.7127,4.6973,4.8389,4.8604,4.8604,4.8604,4.8604,4.8604,4.8604,4.8604,4.8604,4.8604,4.8604,4.8604,4.8604,4.8173,4.7896,4.7896,4.725,0.0,4.6203,4.5526,4.4202,4.2171,4.0047,0.0,0.0,3.4752,3.5091,0.0,3.7861,3.94,4.1151,4.1894,4.2571,4.3217,4.3716,4.3587,4.3248,4.3716,4.3587,4.3156,4.2971,4.2879,4.2848,4.2663,4.1955,4.1058,4.0909,4.0659,4.0505,4.0505,4.0505,4.0382,3.992,3.9644,3.9244,3.8323,3.78,3.7369,3.6907,3.663,3.6507,3.6507,3.6507,3.6507,3.6507,3.5737,3.5275,3.5799,0.0,0.0,0.0,0.0,0.0,0.0,0.0,2.5628,0.0,0.0,0.0,0.0,0.0,0.0,0.0,0.0,0.0,0.0,0.0,0.0,0.0,3.5305,3.6037,3.6005,3.6037,3.6371,3.7008,3.7403,3.8223,3.9317,3.9798,4.0011,4.0011,3.9839,3.9803,3.9768,3.9553,3.9625,3.9768,3.9732,3.9839,4.0011,4.7465,4.7588,4.7773,4.8481,4.8573,4.8573,4.8604,4.8604,4.8604,4.8604,4.8604,4.8604,4.8604,4.8604,4.8604,4.8604,4.8604,4.8604,4.8604,4.8604,4.8604,0.0,0.0,4.7588,4.7588,4.6911,4.5588,4.3593,0.0,0.0,3.9398,3.8754,3.8816,3.9459,4.0166,4.1243,4.2633,4.3316,4.3963,4.4579,4.461,4.461,4.4579,4.461,4.461,4.4517,4.384,4.3593,4.3501,4.2817,4.2602,4.2479,4.1801,4.1093,4.0505,4.0505,4.0505,4.0505,4.0474,3.9982,3.949,3.9459,3.8477,3.7492,3.7492,3.6969,3.6507,3.6507,3.6507,3.6507,3.6507,3.6476,3.6045,3.4751,0.0,0.0,0.0,0.0,0.0,0.0,0.0,2.5312,2.5281,0.0,0.0,0.0,0.0,0.0,0.0,0.0,0.0,3.2038,3.3359,0.0,3.4,3.5461,3.6133,3.6005,3.6133,3.6467,3.7038,3.8375,3.9347,3.998,4.0011,4.0011,4.0011,4.0011,4.0011,3.9975,3.9768,3.9803,3.9975,3.9768,3.9839,4.0011,4.8235,4.8296,4.8358,4.8573,4.9035,4.9189,4.8696,4.9035,4.9158,4.8696,4.8604,4.8604,4.8604,4.8604,4.8604,0.0,4.8604,4.8604,0.0,4.8604,4.8604,4.8604,4.8419,4.8081,4.7619,4.7404,4.6726,4.5649,0.0,0.0,0.0,4.0724,4.1217,4.2294,4.2509,4.3094,4.3956,4.4209,4.4425,4.461,4.461,4.461,4.461,4.461,4.461,4.4579,4.4363,4.4302,4.4271,4.4018,4.3648,4.3217,4.3039,4.2171,4.1247,4.1247,4.0874,4.0505,4.0505,4.0351,4.0074,3.9582,3.9185,3.8631,3.7707,3.6969,3.6507,3.6507,3.6507,3.6507,3.6507,3.6507,3.6353,3.5922,3.583,0.0,0.0,0.0,0.0,0.0,0.0,2.7242,0.0,2.6349,0.0,0.0,0.0,0.0,0.0,0.0,0.0,0.0,3.3504,0.0,3.4209,3.5646,3.6383,3.632,3.6843,3.764,3.8742,3.963,4.0151,4.0331,4.0331,4.0331,4.0331,4.0226,4.0191,4.0156,3.998,4.0016,4.0222,4.0121,4.0191,4.0331,4.9404,4.9404,4.9404,4.9404,4.9774,4.9928,4.9466,4.9774,4.9897,4.9466,4.9189,4.9004,4.9004,4.8789,0.0,4.8604,4.8604,4.8604,4.8604,4.8604,4.8604,4.8604,4.8604,4.8419,4.7989,0.0,0.0,4.6973,4.5464,4.4295,4.3464,4.3217,4.3525,4.4363,4.4086,4.4209,4.461,4.461,4.461,4.461,4.461,4.461,4.461,4.461,4.461,4.461,4.461,4.461,4.461,4.461,4.4332,4.3994,4.3994,4.3254,4.2294,4.2048,4.1494,4.0905,4.0905,4.0689,4.0382,3.9982,3.9674,3.9154,3.78,3.7184,3.6784,3.6538,3.6507,3.6507,3.6507,3.6507,3.6507,3.6507,3.5922,3.5275,0.0,0.0,0.0,0.0,0.0,0.0,0.0,2.8442,0.0,0.0,0.0,0.0,0.0,0.0,0.0,3.2038,3.4539,0.0,3.5124,3.6045,3.663,3.6876,3.78,3.8692,3.9521,4.0197,4.0505,4.0505,4.0505,4.0505,4.0505,4.0401,4.0366,4.0366,4.0156,4.0226,4.0366,4.0296,4.0366,4.0505,5.0697,5.0697,0.0,0.0,5.0728,0.0,5.0697,5.0728,5.0759,5.0697,5.0143,4.9743,4.9743,4.9127,4.8696,4.8696,0.0,0.0,0.0,4.8604,4.8604,4.8604,4.8604,4.8604,4.8604,4.8604,4.8296,4.7619,4.6973,4.6634,4.6573,4.5957,4.5649,4.5618,4.5041,4.4764,4.4764,4.4764,4.4733,4.4702,4.4702,4.4641,4.461,4.461,4.461,4.461,4.461,4.461,4.461,4.461,4.461,4.461,4.461,4.4178,4.3562,4.2879,4.2202,4.1648,4.1617,4.1124,4.0566,4.0505,3.9982,3.9152,3.7923,3.7554,3.7307,3.6692,3.6538,3.6507,3.6507,3.6507,3.6476,3.6445,3.5891,3.5213,3.4536,0.0,0.0,0.0,0.0,0.0,0.0,3.0443,3.1578,0.0,0.0,0.0,0.0,0.0,3.2167,3.5398,3.6138,3.6507,3.6507,3.6538,3.6938,3.7646,3.8908,3.9521,3.9582,4.0197,4.0505,4.0505,4.0505,4.0505,4.0505,4.0505,4.0505,4.0505,4.0366,4.0401,4.0505,4.0366,4.0401,4.0505,0.0,0.0,5.0697,5.0697,5.1128,5.1282,5.0759,5.1128,5.1282,5.0759,5.0543,5.0451,5.0451,4.9835,4.9435,4.9435,4.8943,4.8604,4.8604,4.8604,4.8604,4.8604,4.8604,4.8604,4.8604,4.8604,4.8296,4.7619,4.7434,4.7096,4.6603,4.6419,4.6357,4.6357,4.6203,4.6111,4.6111,4.6111,4.5803,4.5341,4.5341,4.5033,4.461,4.461,4.461,4.461,4.461,4.461,4.461,4.461,4.461,4.461,4.461,4.4517,4.424,4.3562,4.2879,4.2263,4.174,4.1463,4.1217,4.0628,3.9982,3.9431,3.9123,3.8231,3.7461,3.7307,3.6846,3.6507,3.6507,3.6507,3.6322,3.5799,3.5183,3.4505,3.3767,3.2936,0.0,0.0,3.2382,3.2351,3.152,3.2872,3.3118,0.0,0.0,0.0,0.0,3.3583,3.4106,3.546,3.6138,3.6507,3.6507,3.6999,3.7861,3.9031,3.9336,3.9767,4.0259,4.0413,4.0505,4.0505,4.0505,4.0505,4.0505,4.0505,4.0505,4.0505,4.047,4.047,4.0505,4.047,4.047,4.0505,5.1621,5.1621,5.1621,5.1621,5.1929,5.2052,5.1682,5.1929,5.2021,5.1652,5.1344,5.1159,5.1159,5.0543,5.0143,5.0143,4.922,4.8604,4.8604,4.8604,4.8604,4.8604,4.8604,4.8604,4.8604,4.8604,4.8419,4.8081,4.8081,4.7865,4.7527,4.7188,4.7065,4.7034,4.6726,4.6603,4.6603,4.6603,4.6388,4.6049,4.6049,4.5834,4.5495,4.5495,4.5311,4.5033,4.5033,4.4849,4.461,4.461,4.461,4.461,4.461,4.461,4.4548,4.4178,4.3593,4.2971,4.2602,4.2294,4.1894,4.1186,4.0509,3.9859,3.9551,3.8939,3.8262,3.7615,3.7215,3.6846,3.6569,3.6507,3.6261,3.5614,3.5213,3.472,3.3983,3.3611,0.0,3.3365,3.3952,3.4075,3.3426,3.4628,3.4844,3.3396,0.0,0.0,3.4814,3.5213,3.5583,3.5922,3.6292,3.663,3.6938,3.7923,3.8785,3.949,3.9797,4.0136,4.0505,4.0505,4.0505,4.0505,4.0505,4.0505,4.0505,4.0505,4.0505,4.0505,4.0505,4.0505,4.0505,4.0505,4.0689,4.0997,5.2698,5.2698,5.2698,5.2698,5.2698,5.2698,5.2698,5.2698,5.2698,5.2698,5.2206,5.1867,5.1867,5.1251,5.0851,5.0851,4.9682,4.8881,4.8789,4.8666,4.8604,4.8604,4.8604,4.8604,4.8604,4.8604,4.8604,4.8604,4.8604,4.8604,4.8604,4.8019,4.7742,4.7742,4.7157,4.6911,4.6911,4.6911,4.685,4.6757,4.6757,4.6696,4.6603,4.6603,4.6234,4.5741,4.5741,4.5372,4.4918,4.4918,4.4818,4.4764,4.4764,4.4664,4.461,4.461,4.4209,4.3747,4.3624,4.3094,4.2448,4.1771,4.1155,4.0474,3.9797,3.9551,3.9185,3.8046,3.7738,3.7461,3.6753,3.663,3.6353,3.5491,3.543,3.5244,3.4443,0.0,3.4659,3.4659,3.5244,3.5429,3.4874,3.583,3.6261,3.5676,3.6168,3.6507,0.0,3.6599,3.663,3.663,3.663,3.703,3.78,3.8939,3.9521,3.9644,4.0228,4.0505,4.0505,4.0505,4.0505,4.0505,4.0505,4.0505,4.0505,4.0505,4.0505,4.0505,4.0597,4.0659,4.0659,4.0782,4.1217,4.174,5.2698,5.2698,5.2698,5.2698,5.2698,5.2698,5.2698,5.2698,5.2698,5.2698,5.2637,5.2544,5.2544,5.1959,5.1559,5.1559,5.082,5.0112,4.9558,4.8943,4.8604,4.8604,4.8604,4.8604,4.8604,4.8604,4.8604,4.8604,4.8604,4.8604,4.8604,4.8512,4.845,4.845,4.8358,4.8296,4.8296,4.8296,4.7958,4.7434,4.7434,4.7096,4.6603,4.6603,4.6542,4.6449,4.6449,4.6357,4.6296,4.6296,4.5895,4.5434,4.5434,4.5072,4.461,4.461,4.4548,4.4332,4.3747,4.3094,4.2448,4.1771,4.1524,4.1247,4.0505,3.989,3.9428,3.9213,3.8754,3.8138,3.7461,3.7338,3.6753,3.4967,3.5152,3.5059,3.3737,0.0,3.5337,3.5337,3.5922,3.6292,3.6199,3.6384,3.6445,3.6353,3.6445,3.6507,3.6507,3.703,3.7338,3.7338,3.7338,3.7954,3.9185,3.9398,3.9767,4.0351,4.0443,4.0505,4.0505,4.0505,4.0505,4.0505,4.0505,4.0505,4.0505,4.0505,4.0505,4.0566,4.1186,4.1432,4.1494,4.2078,4.2355,4.2448,5.2698,5.2698,5.2698,5.2698,5.2698,5.2698,5.2698,5.2698,5.2698,5.2698,5.2698,5.2698,5.2698,5.2421,5.2236,5.2236,5.1621,5.1097,5.079,4.9774,4.9035,4.8635,4.8604,4.8604,4.8604,4.8604,4.8604,4.8604,4.8604,4.8604,4.8604,4.8604,4.8604,4.8604,4.8604,4.8604,4.8604,4.8604,4.8419,4.8142,4.8142,4.7958,4.7681,4.7681,4.7465,4.7127,4.7127,4.6911,4.6603,4.6603,4.6388,4.6142,4.6142,4.5926,4.5588,4.5218,4.4849,4.4548,4.424,4.3655,4.3063,4.2725,4.2109,4.1524,4.1186,4.0536,3.992,3.9551,3.9244,3.8846,3.8169,3.7738,3.7184,3.6261,3.6045,0.0,0.0,3.5614,3.6014,3.6014,3.6292,3.6507,3.6507,3.6507,3.663,3.6999,3.703,3.7184,3.7554,3.7861,3.82,3.8569,3.86,3.8877,3.949,3.9859,4.0197,4.0505,4.0505,4.0505,4.0505,4.0505,4.0505,4.0505,4.0505,4.0505,4.0505,4.0505,4.072,4.1155,4.1463,4.1832,4.2171,4.2509,4.2817,4.3125,5.2698,5.2698,5.2698,5.2698,5.2698,5.2698,5.2698,5.2698,5.2698,5.2698,5.2698,5.2698,5.2698,5.2698,5.2698,5.2698,5.2236,5.1867,5.1713,5.0728,4.9835,4.9127,4.8943,4.8881,4.8881,4.8696,4.8604,4.8604,4.8604,4.8604,4.8604,4.8604,4.8604,4.8604,4.8604,4.8604,4.8604,4.8604,4.8604,4.8604,4.8604,4.8604,4.8604,4.8604,4.8296,4.7835,4.7835,4.7496,4.7065,4.7065,4.6973,4.6819,4.6819,4.6726,4.648,4.5988,4.5341,4.4825,4.4641,4.424,4.3809,4.3655,4.2854,4.2017,4.1863,4.1278,4.0597,4.0074,3.9828,3.9521,3.8877,3.8323,3.78,3.7338,0.0,0.0,0.0,3.663,3.6784,3.6938,3.6969,3.6969,3.6969,3.6969,3.7184,3.7707,3.7738,3.7954,3.8477,3.8662,3.9062,3.9705,3.9705,3.9705,3.9705,4.0228,4.0505,4.0505,4.0505,4.0505,4.0505,4.0505,4.0505,4.0505,4.0659,4.0751,4.0751,4.0905,4.134,4.1863,4.1986,4.2386,4.2848,4.3002,4.3371,4.384,5.2698,5.2698,5.2698,5.2698,5.2698,5.2698,5.2698,5.2698,5.2698,5.2698,5.2698,5.2698,5.2698,5.2698,5.2698,5.2698,5.2667,5.2359,5.1744,5.1621,5.1251,5.0574,4.9928,4.962,4.962,4.8943,4.8604,4.8604,4.8604,4.8604,4.8604,4.8604,4.8604,4.8604,4.8604,4.8604,4.8604,4.8604,4.8604,4.8604,4.8604,4.8604,4.8604,4.8604,4.8573,4.8543,4.8543,4.8512,4.845,4.845,4.805,4.7527,4.7527,4.7096,4.6573,4.6542,4.6049,4.5372,4.4795,4.4579,4.4394,4.3778,4.3531,4.3316,4.2663,4.2017,4.1494,4.1463,4.0909,4.0228,3.9521,3.9367,3.8754,3.6876,0.0,0.0,3.6569,3.703,3.7677,3.8292,3.8354,3.8354,3.8354,3.8354,3.8385,3.8446,3.8446,3.8446,3.8508,3.9093,3.9705,4.0413,4.0413,4.0413,4.0413,4.0474,4.0505,4.0505,4.0505,4.0505,4.0505,4.0505,4.0505,4.0536,4.1247,4.1524,4.1586,4.2202,4.2479,4.2602,4.3223,4.3501,4.3624,4.4202,4.4486,4.4548,5.2698,5.2698,5.2698,5.2698,5.2698,5.2698,5.2698,5.2698,5.2698,5.2698,5.2698,5.2698,5.2698,5.2698,5.2698,5.2698,5.2698,5.2606,5.2359,5.2329,5.1836,5.0759,5.0451,5.0112,4.9682,4.9435,4.9066,4.8604,4.8604,4.8604,4.8604,4.8604,4.8604,4.8604,4.8604,4.8604,4.8604,4.8604,4.8604,4.8604,4.8604,4.8604,4.8604,4.8604,4.8604,4.8604,4.8604,4.8604,4.8604,4.8604,4.845,4.8235,4.8235,4.805,4.7773,4.7342,4.6757,4.6142,4.5895,4.5218,4.4548,4.4302,4.3932,4.3531,4.3285,4.2694,4.2232,4.2232,4.1678,4.1124,4.0847,4.0108,3.9367,3.9062,0.0,3.82,3.8354,3.8231,3.8231,3.8477,3.8508,3.8508,3.8508,3.8508,3.8692,3.9093,3.909,3.9275,3.9705,3.9982,4.0228,4.0474,4.0505,4.0505,4.0505,4.0505,4.0505,4.0505,4.0935,4.1186,4.1217,4.1617,4.1801,4.1832,4.2109,4.2232,4.2232,4.2509,4.2848,4.3254,4.3501,4.387,4.4271,4.4517,4.461,4.461,5.2698,5.2698,5.2698,5.2698,5.2698,5.2698,5.2698,5.2698,5.2698,5.2698,5.2698,5.2698,5.2698,5.2698,5.2698,5.2698,5.2698,5.2698,5.2698,5.2698,5.2298,5.1374,5.1128,5.079,5.0328,5.0112,4.9651,4.8943,4.8943,4.885,4.8604,4.8604,4.8604,4.8604,4.8604,4.8604,4.8604,4.8604,4.8604,4.8604,4.8604,4.8604,4.8604,4.8604,4.8604,4.8604,4.8604,4.8604,4.8604,4.8604,4.8604,4.8604,4.8604,4.8604,4.8512,4.805,4.7434,4.6911,4.6911,4.608,4.5157,4.4979,4.4425,4.3932,4.3932,4.3371,4.291,4.291,4.2386,4.1925,4.1925,4.097,4.0228,4.0443,3.9521,3.9,3.9428,3.9123,3.8908,3.9123,3.9154,3.9154,3.9154,3.9154,3.9339,3.9767,3.9797,4.0013,4.0474,4.0505,4.0505,4.0505,4.072,4.0878,4.0878,4.0878,4.0878,4.0843,4.1586,4.1925,4.1925,4.2386,4.2602,4.2633,4.2817,4.291,4.291,4.3125,4.3494,4.3932,4.3932,4.4209,4.461,4.461,4.461,4.461,5.2698,5.2698,5.2698,5.2698,5.2698,5.2698,5.2698,5.2698,5.2698,5.2698,5.2698,5.2698,5.2698,5.2698,5.2698,5.2698,5.2698,5.2698,5.2698,5.2698,5.2698,5.2698,5.2082,5.1713,5.1713,5.1036,5.0359,4.9682,4.9682,4.9312,4.8635,4.8604,4.8604,4.8604,4.8604,4.8604,4.8604,4.8604,4.8604,4.8604,4.8604,4.8604,4.8604,4.8604,4.8604,4.8604,4.8604,4.8604,4.8604,4.8604,4.8604,4.8604,4.8604,4.8604,4.8604,4.8604,4.8142,4.7619,4.7619,4.7127,4.6449,4.5772,4.5095,4.4641,4.461,4.4086,4.3624,4.3624,4.3063,4.2633,4.2633,4.2078,4.137,4.0628,3.9951,3.9521,3.9521,3.9521,3.9736,4.0413,4.0505,4.0505,4.0505,4.0505,4.0505,4.0505,4.0505,4.0505,4.0505,4.0505,4.0505,4.0505,4.1247,4.1617,4.1617,4.1617,4.1617,4.1617,4.2294,4.2633,4.2633,4.2633,4.2633,4.2663,4.3347,4.3624,4.3655,4.4332,4.461,4.461,4.461,4.461,4.461,4.461,4.461,4.461,5.2698,5.2698,5.2698,5.2698,5.2698,5.2698,5.2698,5.2698,5.2698,5.2698,5.2698,5.2698,5.2698,5.2698,5.2698,5.2698,5.2698,5.2698,5.2698,5.2698,5.2698,5.2698,5.2513,5.2206,5.1713,5.1498,5.1067,5.0389,4.9928,4.9589,4.9343,4.885,4.8604,4.8604,4.8604,4.8604,4.8604,4.8604,4.8604,4.8604,4.8604,4.8604,4.8604,4.8604,4.8604,4.8604,4.8604,4.8604,4.8604,4.8604,4.8604,4.8604,4.8604,4.8604,4.8604,4.8604,4.8481,4.8296,4.8296,4.7804,4.7034,4.5865,4.5434,4.5157,4.4733,4.4456,4.4302,4.4302,4.3778,4.3316,4.3316,4.2756,4.2232,4.2017,4.1832,4.1678,4.1678,4.1278,4.1063,4.1247,4.0812,4.0505,4.0505,4.0505,4.0505,4.0505,4.0505,4.072,4.1247,4.1278,4.1494,4.1986,4.2202,4.2294,4.2294,4.2294,4.2294,4.2325,4.2971,4.3316,4.3347,4.3771,4.3987,4.3987,4.424,4.4302,4.4332,4.4517,4.461,4.461,4.461,4.461,4.461,4.461,4.461,4.461,5.4159,5.3665,5.3214,5.3214,5.2922,5.2698,5.2698,5.2698,5.2698,5.2698,5.2698,5.2698,5.2698,5.2698,5.2698,5.2698,5.2698,5.2698,5.2698,5.2698,5.2698,5.2698,5.2698,5.2513,5.2113,5.2113,5.1775,5.1097,5.0697,5.0359,5.0082,4.9374,4.9035,4.9035,4.8727,4.8604,4.8604,4.8604,4.8604,4.8604,4.8604,4.8604,4.8604,4.8604,4.8604,4.8604,4.8604,4.8604,4.8604,4.8604,4.8604,4.8604,4.8604,4.8604,4.8604,4.8604,4.8604,4.8604,4.8604,4.8296,4.7742,4.6665,4.6172,4.5865,4.5464,4.5187,4.4972,4.4972,4.4486,4.4024,4.4024,4.3433,4.3002,4.3002,4.2786,4.2602,4.2602,4.2263,4.2017,4.2017,4.1617,4.1304,4.1304,4.1304,4.1304,4.1304,4.1304,4.1555,4.1986,4.2017,4.2202,4.2602,4.2848,4.3002,4.3002,4.3248,4.3248,4.3002,4.3685,4.4024,4.4024,4.4425,4.461,4.461,4.461,4.461,4.461,4.461,4.461,4.461,4.461,4.461,4.461,4.461,4.461,4.461,5.6431,5.5165,5.4071,5.4008,5.3258,5.2698,5.2698,5.2698,5.2698,5.2698,5.2698,5.2698,5.2698,5.2698,5.2698,5.2698,5.2698,5.2698,5.2698,5.2698,5.2698,5.2698,5.2698,5.2698,5.2698,5.2698,5.2421,5.1805,5.1744,5.1374,5.0759,5.0082,4.9774,4.9743,4.9035,4.8696,4.8696,4.8635,4.8604,4.8604,4.8604,4.8604,4.8604,4.8604,4.8604,4.8604,4.8604,4.8604,4.8604,4.8604,4.8604,4.8604,4.8604,4.8604,4.8604,4.8604,4.8604,4.8604,4.8604,4.8604,4.845,4.7835,4.7219,4.6757,4.6634,4.6111,4.568,4.568,4.5164,4.4702,4.4702,4.4148,4.3685,4.3685,4.3156,4.2786,4.2786,4.2725,4.2694,4.2694,4.2633,4.2602,4.2602,4.2602,4.2602,4.2602,4.2602,4.2633,4.2694,4.2694,4.2725,4.2786,4.334,4.3685,4.3685,4.4302,4.4302,4.3716,4.4332,4.461,4.461,4.461,4.461,4.461,4.461,4.461,4.461,4.461,4.461,4.461,4.461,4.461,4.461,4.461,4.461,4.461,5.6529,5.5581,5.4683,5.4114,5.3258,5.2698,5.2698,5.2698,5.2698,5.2698,5.2698,5.2698,5.2698,5.2698,5.2698,5.2698,5.2698,5.2698,5.2698,5.2698,5.2698,5.2698,5.2698,5.2698,5.2698,5.2698,5.2637,5.2483,5.1959,5.1621,5.1467,5.079,5.0482,5.0451,4.9774,4.9466,4.9404,4.885,4.8604,4.8604,4.8604,4.8604,4.8604,4.8604,4.8604,4.8604,4.8604,4.8604,4.8604,4.8604,4.8604,4.8604,4.8604,4.8604,4.8604,4.8604,4.8604,4.8604,4.8604,4.8604,4.8573,4.8419,4.8296,4.7896,4.685,4.648,4.6388,4.6388,4.5834,4.5372,4.5372,4.4856,4.4394,4.4394,4.4271,4.4178,4.4178,4.3716,4.3408,4.3408,4.291,4.2602,4.2602,4.2602,4.2602,4.2602,4.2602,4.2817,4.3377,4.3408,4.3624,4.4141,4.4332,4.4394,4.4394,4.4548,4.4548,4.4394,4.4548,4.461,4.461,4.461,4.461,4.461,4.461,4.461,4.461,4.461,4.461,4.461,4.461,4.461,4.461,4.461,4.461,4.461,5.88,5.7454,5.6251,5.5822,5.4412,5.3302,5.3302,5.3302,5.3302,5.3302,5.3695,5.3922,5.3922,5.3922,5.3922,5.3922,5.3565,5.3302,5.3302,5.3738,5.375,5.3346,5.3707,5.3922,5.3922,5.3922,5.3521,5.2698,5.2359,5.2175,5.2175,5.1498,5.119,5.1159,5.0482,5.0174,5.0143,4.9774,4.9589,4.9589,4.9589,4.9589,4.9589,4.9589,4.9589,4.9558,4.9251,4.8912,4.8604,4.8604,4.8604,4.8604,4.8604,4.8604,4.8604,4.8604,4.8604,4.8604,4.8604,4.8604,4.8604,4.8604,4.8604,4.8419,4.7711,4.7311,4.7065,4.7065,4.6542,4.608,4.608,4.5772,4.5434,4.5126,4.5103,4.4979,4.4633,4.4302,4.4086,4.4086,4.3741,4.3556,4.3556,4.3556,4.3556,4.3556,4.3556,4.371,4.4086,4.4086,4.424,4.461,4.461,4.461,4.461,4.461,4.461,4.461,4.461,4.461,4.461,4.461,4.461,4.461,4.461,4.461,4.461,4.461,4.461,4.461,4.461,4.461,4.461,4.461,4.461,4.461,6.1332,5.9561,5.8045,5.7912,5.5969,5.4391,5.4391,5.4295,5.4232,5.4232,5.4861,5.5312,5.5312,5.519,5.5108,5.5108,5.4274,5.3836,5.3976,5.4527,5.4653,5.4232,5.4778,5.5149,5.5312,5.5117,5.4359,5.2922,5.3069,5.3069,5.2891,5.251,5.2231,5.2069,5.1389,5.1024,5.0851,5.0759,5.0697,5.0697,5.0697,5.0697,5.0697,5.0697,5.0697,5.0636,5.0051,4.9466,4.8943,4.885,4.8789,4.8789,4.8666,4.8604,4.8604,4.8604,4.8604,4.8604,4.8604,4.8604,4.8604,4.8604,4.8604,4.8604,4.8604,4.8173,4.7773,4.7773,4.725,4.6757,4.6757,4.6665,4.6419,4.5865,4.5772,4.5557,4.5003,4.4856,4.4756,4.4756,4.4702,4.461,4.461,4.461,4.461,4.461,4.461,4.461,4.461,4.461,4.461,4.461,4.461,4.461,4.461,4.461,4.461,4.461,4.461,4.461,4.461,4.461,4.461,4.461,4.461,4.461,4.461,4.461,4.461,4.461,4.461,4.461,4.461,4.461,4.461,4.461,6.1434,6.0437,5.9477,5.8774,5.7209,5.6062,5.6062,5.5504,5.5149,5.5149,5.5231,5.5312,5.5312,5.4653,5.419,5.419,5.339,5.3201,5.3934,5.339,5.3695,5.5067,5.4527,5.4527,5.528,5.4569,5.4062,5.3836,5.4569,5.4569,5.3836,5.4515,5.4441,5.3647,5.2997,5.2278,5.1528,5.0944,5.0697,5.0697,5.0697,5.0697,5.0697,5.0697,5.0697,5.0697,5.0605,5.0513,5.0328,4.9743,4.9528,4.9435,4.882,4.8604,4.8604,4.8604,4.8604,4.8604,4.8604,4.8604,4.8604,4.8604,4.8604,4.8604,4.8604,4.8543,4.8481,4.8481,4.7927,4.7465,4.7465,4.7004,4.6573,4.648,4.6449,4.6419,4.6326,4.5803,4.5434,4.5434,4.4941,4.461,4.461,4.461,4.461,4.461,4.461,4.461,4.461,4.461,4.461,4.461,4.461,4.461,4.461,4.461,4.461,4.461,4.461,4.461,4.461,4.461,4.461,4.461,4.461,4.461,4.461,4.461,4.461,4.461,4.461,4.461,4.461,4.461,4.461,4.461,6.1975,6.1262,6.0622,6.0248,5.884,5.7617,5.719,5.6861,5.6493,5.61,5.6426,5.6734,5.6734,5.5995,5.5474,5.5474,5.5108,5.4819,5.4736,5.5312,5.5756,5.5995,5.6113,5.6348,5.6734,5.6387,5.5955,5.5474,5.4359,5.3922,5.4019,5.4401,5.4359,5.4019,5.4208,5.3534,5.2281,5.2468,5.2256,5.1836,5.1836,5.1836,5.1836,5.1836,5.1836,5.1775,5.1374,5.1005,5.0636,5.0359,5.0266,5.0143,4.9435,4.922,4.9127,4.8727,4.8604,4.8604,4.8604,4.8604,4.8604,4.8604,4.8604,4.8604,4.8604,4.8604,4.8604,4.8604,4.8767,4.8872,4.8872,4.8985,4.8986,4.8574,4.8128,4.7723,4.7317,4.6609,4.6142,4.6142,4.5895,4.5711,4.5711,4.5372,4.5157,4.5157,4.4825,4.461,4.461,4.461,4.461,4.461,4.461,4.461,4.461,4.4941,4.5157,4.5157,4.5157,4.4941,4.461,4.461,4.461,4.461,4.461,4.461,4.461,4.461,4.461,4.461,4.461,4.461,4.461,4.461,4.461,4.461]}]]